[[{"header":{"parameterUnit":"m.s-1","parameterCategory":1,"la1":30.6,"la2":28.766,"lo1":-90.7593,"lo2":-88.6598,"dy":0.0162,"dx":0.0183,"nx":116,"ny":114,"refTime":"2023-08-14T06:00:00:Z","depth":0,"parameterNumber":2,"parameterNumberName":"U-component_of_WINDS"},"data":[0.0,0.0,0.0,0.0,0.0,0.0,0.0,0.0,0.0,0.0,0.0,0.0,0.0,0.0,0.0,0.0,0.0,0.0,0.0,0.0,0.0,0.0,0.0,0.0,0.0,0.0,0.0,0.0,0.0,0.0,0.0,0.0,0.0,0.0,0.0,0.0,0.0,0.0,0.0,0.0,0.0,0.0,0.0,0.0,0.0,0.0,0.0,0.0,0.0,0.0,0.0,0.0,0.0,0.0,0.0,0.0,0.0,0.0,0.0,0.0,0.0,0.0,0.0,0.0,0.0,0.0,0.0,0.0,0.0,0.0,0.0,0.0,0.0,0.0,0.0,0.0,0.0,0.0,0.0,0.0,0.0,0.0,0.0,0.0,0.0,0.0,0.0,0.0,0.0,0.0,0.0,0.0,0.0,0.0,0.0,0.0,0.0,0.0,0.0,0.0,0.0,0.0,0.0,0.0,0.0,0.0,0.0,0.0,0.0,0.0,0.0,0.0,0.0,0.0,0.0,0.0,0.0,0.0,0.0,0.0,0.0,0.0,0.0,0.0,0.0,0.0,0.0,0.0,0.0,0.0,0.0,0.0,0.0,0.0,0.0,0.0,0.0,0.0,0.0,0.0,0.0,0.0,0.0,0.0,0.0,0.0,0.0,0.0,0.0,0.0,0.0,0.0,0.0,0.0,0.0,0.0,0.0,0.0,0.0,0.0,0.0,0.0,0.0,0.0,0.0,0.0,0.0,0.0,0.0,0.0,0.0,0.0,0.0,0.0,0.0,0.0,0.0,0.0,0.0,0.0,0.0,0.0,0.0,0.0,0.0,0.0,0.0,0.0,0.0,0.0,0.0,0.0,0.0,0.0,0.0,0.0,0.0,0.0,0.0,0.0,0.0,0.0,0.0,0.0,0.0,0.0,0.0,0.0,0.0,0.0,0.0,0.0,0.0,0.0,0.0,0.0,0.0,0.0,0.0,0.0,0.0,0.0,0.0,0.0,0.0,0.0,0.0,0.0,0.0,0.0,0.0,0.0,0.0,0.0,0.0,0.0,0.0,0.0,0.0,0.0,0.0,0.0,0.0,0.0,0.0,0.0,0.0,0.0,0.0,0.0,0.0,0.0,0.0,0.0,0.0,0.0,0.0,0.0,0.0,0.0,0.0,0.0,0.0,0.0,0.0,0.0,0.0,0.0,0.0,0.0,0.0,0.0,0.0,0.0,0.0,0.0,0.0,0.0,0.0,0.0,0.0,0.0,0.0,0.0,0.0,0.0,0.0,0.0,0.0,0.0,0.0,0.0,0.0,0.0,0.0,0.0,0.0,0.0,0.0,0.0,0.0,0.0,0.0,0.0,0.0,0.0,0.0,0.0,0.0,0.0,0.0,0.0,0.0,0.0,0.0,0.0,0.0,0.0,0.0,0.0,0.0,0.0,0.0,0.0,0.0,0.0,0.0,0.0,0.0,0.0,0.0,0.0,0.0,0.0,0.0,0.0,0.0,0.0,0.0,0.0,0.0,0.0,0.0,0.0,0.0,0.0,0.0,0.0,0.0,0.0,0.0,0.0,0.0,0.0,0.0,0.0,0.0,0.0,0.0,0.0,0.0,0.0,0.0,0.0,0.0,0.0,0.0,0.0,0.0,0.0,0.0,0.0,0.0,0.0,0.0,0.0,0.0,0.0,0.0,0.0,0.0,0.0,0.0,0.0,0.0,0.0,0.0,0.0,0.0,0.0,0.0,0.0,0.0,0.0,0.0,0.0,0.0,0.0,0.0,0.0,0.0,0.0,0.0,0.0,0.0,0.0,0.0,0.0,0.0,0.0,0.0,0.0,0.0,0.0,0.0,0.0,0.0,0.0,0.0,0.0,0.0,0.0,0.0,0.0,0.0,0.0,0.0,0.0,0.0,0.0,0.0,0.0,0.0,0.0,0.0,0.0,0.0,0.0,0.0,0.0,0.0,0.0,0.0,0.0,0.0,0.0,0.0,0.0,0.0,0.0,0.0,0.0,0.0,0.0,0.0,0.0,0.0,0.0,0.0,0.0,0.0,0.0,0.0,0.0,0.0,0.0,0.0,0.0,0.0,0.0,0.0,0.0,0.0,0.0,0.0,0.0,0.0,0.0,0.0,0.0,0.0,0.0,0.0,0.0,0.0,0.0,0.0,0.0,0.0,0.0,0.0,0.0,0.0,0.0,0.0,0.0,0.0,0.0,0.0,0.0,0.0,0.0,0.0,0.0,0.0,0.0,0.0,0.0,0.0,0.0,0.0,0.0,0.0,0.0,0.0,0.0,0.0,0.0,0.0,0.0,0.0,0.0,0.0,0.0,0.0,0.0,0.0,0.0,0.0,0.0,0.0,0.0,0.0,0.0,0.0,0.0,0.0,0.0,0.0,0.0,0.0,0.0,0.0,0.0,0.0,0.0,0.0,0.0,0.0,0.0,0.0,0.0,0.0,0.0,0.0,0.0,0.0,0.0,0.0,0.0,0.0,0.0,0.0,0.0,0.0,0.0,0.0,0.0,0.0,0.0,0.0,0.0,0.0,0.0,0.0,0.0,0.0,0.0,0.0,0.0,0.0,0.0,0.0,0.0,0.0,0.0,0.0,0.0,0.0,0.0,0.0,0.0,0.0,0.0,0.0,0.0,0.0,0.0,0.0,0.0,0.0,0.0,0.0,0.0,0.0,0.0,0.0,0.0,0.0,0.0,0.0,0.0,0.0,0.0,0.0,0.0,0.0,0.0,0.0,0.0,0.0,0.0,0.0,0.0,0.0,0.0,0.0,0.0,0.0,0.0,0.0,0.0,0.0,0.0,0.0,0.0,0.0,0.0,0.0,0.0,0.0,0.0,0.0,0.0,0.0,0.0,0.0,0.0,0.0,0.0,0.0,0.0,0.0,0.0,0.0,0.0,0.0,0.0,0.0,0.0,0.0,0.0,0.0,0.0,0.0,0.0,0.0,0.0,0.0,0.0,0.0,0.0,0.0,0.0,0.0,0.0,0.0,0.0,0.0,0.0,0.0,0.0,0.0,0.0,0.0,0.0,0.0,0.0,0.0,0.0,0.0,0.0,0.0,0.0,0.0,0.0,0.0,0.0,0.0,0.0,0.0,0.0,0.0,0.0,0.0,0.0,0.0,0.0,0.0,0.0,0.0,0.0,0.0,0.0,0.0,0.0,0.0,0.0,0.0,0.0,0.0,0.0,0.0,0.0,0.0,0.0,0.0,0.0,0.0,0.0,0.0,0.0,0.0,0.0,0.0,0.0,0.0,0.0,0.0,0.0,0.0,0.0,0.0,0.0,0.0,0.0,0.0,0.0,0.0,0.0,0.0,0.0,0.0,0.0,0.0,0.0,0.0,0.0,0.0,0.0,0.0,0.0,0.0,0.0,0.0,0.0,0.0,0.0,0.0,0.0,0.0,0.0,0.0,0.0,0.0,0.0,0.0,0.0,0.0,0.0,0.0,0.0,0.0,0.0,0.0,0.0,0.0,0.0,0.0,0.0,0.0,0.0,0.0,0.0,0.0,0.0,0.0,0.0,0.0,0.0,0.0,0.0,0.0,0.0,0.0,0.0,0.0,0.0,0.0,0.0,0.0,0.0,0.0,0.0,0.0,0.0,0.0,0.0,0.0,0.0,0.0,0.0,0.0,0.0,0.0,0.0,0.0,0.0,0.0,0.0,0.0,0.0,0.0,0.0,0.0,0.0,0.0,0.0,0.0,0.0,0.0,0.0,0.0,0.0,0.0,0.0,0.0,0.0,0.0,0.0,0.0,0.0,0.0,0.0,0.0,0.0,0.0,0.0,0.0,0.0,0.0,0.0,0.0,0.0,0.0,0.0,0.0,0.0,0.0,0.0,0.0,0.0,0.0,0.0,0.0,0.0,0.0,0.0,0.0,0.0,0.0,0.0,0.0,0.0,0.0,0.0,0.0,0.0,0.0,0.0,0.0,0.0,0.0,0.0,0.0,0.0,0.0,0.0,0.0,0.0,0.0,0.0,0.0,0.0,0.0,0.0,0.0,0.0,0.0,0.0,0.0,0.0,0.0,0.0,0.0,0.0,0.0,0.0,0.0,0.0,0.0,0.0,0.0,0.0,0.0,0.0,0.0,0.0,0.0,0.0,0.0,0.0,0.0,0.0,0.0,0.0,0.0,0.0,0.0,0.0,0.0,0.0,0.0,0.0,0.0,0.0,0.0,0.0,0.0,0.0,0.0,0.0,0.0,0.0,0.0,0.0,0.0,0.0,0.0,0.0,0.0,0.0,0.0,0.0,0.0,0.0,0.0,0.0,0.0,0.0,0.0,0.0,0.0,0.0,0.0,0.0,0.0,0.0,0.0,0.0,0.0,0.0,0.0,0.0,0.0,0.0,0.0,0.0,0.0,0.0,0.0,0.0,0.0,0.0,0.0,0.0,0.0,0.0,0.0,0.0,0.0,0.0,0.0,0.0,0.0,0.0,0.0,0.0,0.0,0.0,0.0,0.0,0.0,0.0,0.0,0.0,0.0,0.0,0.0,0.0,0.0,0.0,0.0,0.0,0.0,0.0,0.0,0.0,0.0,0.0,0.0,0.0,0.0,0.0,0.0,0.0,0.0,0.0,0.0,0.0,0.0,0.0,0.0,0.0,0.0,0.0,0.0,0.0,0.0,0.0,0.0,0.0,0.0,0.0,0.0,0.0,0.0,0.0,0.0,0.0,0.0,0.0,0.0,0.0,0.0,0.0,0.0,0.0,0.0,0.0,0.0,0.0,0.0,0.0,0.0,0.0,0.0,0.0,0.0,0.0,0.0,0.0,0.0,0.0,0.0,0.0,0.0,0.0,0.0,0.0,0.0,0.0,0.0,0.0,0.0,0.0,0.0,0.0,0.0,0.0,0.0,0.0,0.0,0.0,0.0,0.0,0.0,0.0,0.0,0.0,0.0,0.0,0.0,0.0,0.0,0.0,0.0,0.0,0.0,0.0,0.0,0.0,0.0,0.0,0.0,0.0,0.0,0.0,0.0,0.0,0.0,0.0,0.0,0.0,0.0,0.0,0.0,0.0,0.0,0.0,0.0,0.0,0.0,0.0,0.0,0.0,0.0,0.0,0.0,0.0,0.0,0.0,0.0,0.0,0.0,0.0,0.0,0.0,0.0,0.0,0.0,0.0,0.0,0.0,0.0,0.0,0.0,0.0,0.0,0.0,0.0,0.0,0.0,0.0,0.0,0.0,0.0,0.0,0.0,0.0,0.0,0.0,0.0,0.0,0.0,0.0,0.0,0.0,0.0,0.0,0.0,0.0,0.0,0.0,0.0,0.0,0.0,0.0,0.0,0.0,0.0,0.0,0.0,0.0,0.0,0.0,0.0,0.0,0.0,0.0,0.0,0.0,0.0,0.0,0.0,0.0,0.0,0.0,0.0,0.0,0.0,0.0,0.0,0.0,0.0,0.0,0.0,0.0,0.0,0.0,0.0,0.0,0.0,0.0,0.0,0.0,0.0,0.0,0.0,0.0,0.0,0.0,0.0,0.0,0.0,0.0,0.0,0.0,0.0,0.0,0.0,0.0,0.0,0.0,0.0,0.0,0.0,0.0,0.0,0.0,0.0,0.0,0.0,0.0,0.0,0.0,0.0,0.0,0.0,0.0,0.0,0.0,0.0,0.0,0.0,0.0,0.0,0.0,0.0,0.0,0.0,0.0,0.0,0.0,0.0,0.0,0.0,0.0,0.0,0.0,0.0,0.0,0.0,0.0,0.0,0.0,0.0,0.0,0.0,0.0,0.0,0.0,0.0,0.0,0.0,0.0,0.0,0.0,0.0,0.0,0.0,0.0,0.0,0.0,0.0,0.0,0.0,0.0,0.0,0.0,0.0,0.0,0.0,0.0,0.0,0.0,0.0,0.0,0.0,0.0,0.0,0.0,0.0,0.0,0.0,0.0,0.0,0.0,0.0,0.0,0.0,0.0,0.0,0.0,0.0,0.0,0.0,0.0,0.0,0.0,0.0,0.0,0.0,0.0,0.0,0.0,0.0,0.0,0.0,0.0,0.0,0.0,0.0,0.0,0.0,0.0,0.0,0.0,0.0,0.0,0.0,0.0,0.0,0.0,0.0,0.0,0.0,0.0,0.0,0.0,-4.0372,-4.0489,0.0,0.0,0.0,0.0,0.0,0.0,0.0,0.0,0.0,0.0,0.0,0.0,0.0,0.0,0.0,0.0,0.0,0.0,0.0,0.0,0.0,0.0,0.0,0.0,0.0,0.0,0.0,0.0,0.0,0.0,0.0,0.0,0.0,0.0,0.0,0.0,0.0,0.0,0.0,0.0,0.0,0.0,0.0,0.0,0.0,0.0,0.0,0.0,0.0,0.0,0.0,0.0,0.0,0.0,0.0,0.0,0.0,0.0,0.0,0.0,0.0,0.0,0.0,0.0,0.0,0.0,0.0,0.0,0.0,0.0,0.0,0.0,0.0,0.0,0.0,0.0,0.0,0.0,0.0,0.0,0.0,0.0,0.0,0.0,0.0,0.0,0.0,0.0,0.0,0.0,0.0,0.0,0.0,0.0,0.0,0.0,0.0,0.0,0.0,0.0,0.0,0.0,0.0,0.0,0.0,0.0,0.0,0.0,0.0,0.0,0.0,0.0,0.0,0.0,-4.0441,-4.0489,0.0,0.0,0.0,0.0,0.0,0.0,0.0,0.0,0.0,0.0,0.0,0.0,0.0,0.0,0.0,0.0,0.0,0.0,0.0,0.0,0.0,0.0,0.0,0.0,0.0,0.0,0.0,0.0,0.0,0.0,0.0,0.0,0.0,0.0,0.0,0.0,0.0,0.0,0.0,0.0,0.0,0.0,0.0,0.0,0.0,0.0,0.0,0.0,0.0,0.0,0.0,0.0,0.0,0.0,0.0,0.0,0.0,0.0,0.0,0.0,0.0,0.0,0.0,0.0,0.0,0.0,0.0,0.0,0.0,0.0,0.0,0.0,0.0,0.0,0.0,0.0,0.0,0.0,0.0,0.0,0.0,0.0,0.0,0.0,0.0,0.0,0.0,0.0,0.0,0.0,0.0,0.0,0.0,0.0,0.0,0.0,0.0,0.0,0.0,0.0,0.0,0.0,0.0,0.0,0.0,0.0,0.0,0.0,-4.0457,-4.0457,-4.0489,-4.0489,-4.0489,-4.0489,-4.0489,-4.0489,-4.0489,-4.0489,0.0,0.0,0.0,0.0,0.0,0.0,0.0,0.0,0.0,0.0,0.0,0.0,0.0,0.0,0.0,0.0,0.0,0.0,0.0,0.0,0.0,0.0,0.0,0.0,0.0,0.0,0.0,0.0,0.0,0.0,0.0,0.0,0.0,0.0,0.0,0.0,0.0,0.0,-3.5506,-3.5621,-3.5603,-3.5504,0.0,0.0,0.0,0.0,0.0,0.0,0.0,0.0,0.0,0.0,0.0,0.0,0.0,0.0,0.0,0.0,0.0,0.0,0.0,0.0,0.0,0.0,0.0,0.0,0.0,0.0,0.0,0.0,0.0,0.0,0.0,0.0,0.0,0.0,0.0,0.0,0.0,0.0,0.0,0.0,0.0,0.0,0.0,0.0,-3.5603,-3.5599,0.0,0.0,0.0,0.0,0.0,0.0,0.0,0.0,0.0,0.0,0.0,0.0,0.0,-4.0422,-4.037,-4.0232,-4.0267,-4.0489,-4.025,-4.0267,-4.0489,-4.0489,-4.0489,-4.0489,-4.0489,0.0,-4.0489,-4.0489,0.0,0.0,0.0,0.0,0.0,0.0,0.0,0.0,0.0,0.0,0.0,0.0,0.0,0.0,0.0,0.0,0.0,0.0,0.0,0.0,0.0,0.0,0.0,0.0,0.0,0.0,0.0,0.0,0.0,0.0,0.0,0.0,0.0,0.0,0.0,0.0,-3.4211,-3.462,-3.5059,-3.5417,-3.5579,-3.5558,-3.5528,-3.5058,-3.4275,-3.3953,0.0,0.0,0.0,0.0,0.0,0.0,0.0,0.0,0.0,0.0,0.0,0.0,0.0,0.0,0.0,0.0,0.0,0.0,0.0,0.0,0.0,0.0,0.0,0.0,0.0,0.0,0.0,0.0,0.0,0.0,0.0,0.0,0.0,0.0,0.0,0.0,0.0,0.0,0.0,-3.5622,-3.5732,-3.617,-3.7097,-3.7718,0.0,0.0,0.0,0.0,0.0,0.0,0.0,0.0,0.0,-3.9599,-4.0043,-4.0286,-4.0286,-4.0321,-4.0372,-4.0489,-4.0372,-4.0389,-4.0489,-4.0489,-4.0489,-4.0489,-4.0489,-4.0489,-4.0489,-4.0489,-4.059,-4.0732,0.0,0.0,0.0,0.0,-4.0788,-4.0742,0.0,0.0,0.0,0.0,0.0,0.0,0.0,0.0,0.0,0.0,0.0,0.0,0.0,0.0,0.0,-2.0128,0.0,0.0,0.0,0.0,0.0,0.0,0.0,0.0,0.0,0.0,0.0,0.0,-3.3513,-3.4069,-3.4427,-3.5113,-3.5442,-3.5494,-3.5526,-3.5232,-3.4698,-3.4095,-3.3387,0.0,0.0,0.0,0.0,0.0,0.0,0.0,0.0,0.0,0.0,0.0,0.0,0.0,0.0,0.0,0.0,0.0,0.0,0.0,0.0,0.0,0.0,0.0,0.0,0.0,0.0,0.0,0.0,0.0,0.0,0.0,0.0,0.0,0.0,0.0,0.0,0.0,0.0,-3.5622,-3.5861,-3.6547,-3.7167,-3.7665,0.0,0.0,0.0,0.0,0.0,0.0,-3.8999,-3.9308,-3.9462,-3.9462,-3.988,-4.0101,-4.0101,-4.0372,-4.0489,-4.0489,-4.0489,-4.0489,-4.0489,-4.0489,-4.0489,-4.0489,-4.0489,-4.0489,-4.0489,-4.0489,-4.0588,-4.0703,-4.0703,-4.0752,-4.0793,-4.0788,-4.077,-4.0761,0.0,0.0,0.0,0.0,0.0,0.0,0.0,0.0,0.0,0.0,0.0,0.0,0.0,0.0,-1.5137,-1.7695,-1.7915,-1.8668,0.0,0.0,0.0,0.0,0.0,0.0,0.0,0.0,0.0,-3.1689,-3.2972,-3.364,-3.3666,-3.4732,-3.5218,-3.523,-3.5488,-3.5297,-3.4748,-3.4223,-3.3579,-3.2854,0.0,0.0,0.0,0.0,0.0,0.0,0.0,0.0,0.0,0.0,0.0,0.0,0.0,0.0,0.0,0.0,0.0,0.0,0.0,0.0,0.0,0.0,0.0,0.0,0.0,0.0,0.0,0.0,0.0,0.0,0.0,0.0,0.0,0.0,0.0,0.0,0.0,0.0,0.0,-3.635,-3.6882,0.0,0.0,0.0,0.0,-3.8707,-3.8719,-3.8719,-3.8719,-3.899,-3.9125,-3.9125,-3.9754,-4.0101,-4.0101,-4.0372,-4.0489,-4.0489,-4.0489,-4.0489,-4.0489,-4.0489,-4.0489,-4.0489,-4.0489,-4.0489,-4.0489,-4.0489,-4.0588,-4.0703,-4.0703,-4.0752,-4.0785,-4.0721,-4.0715,-4.0692,0.0,0.0,0.0,0.0,0.0,0.0,0.0,0.0,0.0,0.0,0.0,0.0,0.0,-1.3489,-1.3716,-1.5913,-1.6061,-1.6862,-1.8639,0.0,0.0,0.0,0.0,0.0,0.0,0.0,-3.0021,-3.1155,-3.1916,-3.2745,-3.3613,-3.4482,-3.5023,-3.5269,-3.5458,-3.5295,-3.486,-3.4566,-3.3773,-3.2608,-3.1686,-3.0864,0.0,0.0,0.0,0.0,0.0,0.0,0.0,0.0,0.0,0.0,0.0,0.0,0.0,0.0,0.0,0.0,0.0,0.0,0.0,0.0,0.0,0.0,0.0,0.0,0.0,0.0,0.0,0.0,0.0,0.0,0.0,0.0,0.0,0.0,0.0,0.0,0.0,-3.635,-3.6865,0.0,-3.7859,-3.8382,-3.8707,-3.8707,-3.8707,-3.8707,-3.8707,-3.8773,-3.9017,-3.9414,-3.9645,-3.9964,-4.0356,-4.0457,-4.0489,-4.0489,-4.0489,-4.0489,-4.0469,-3.995,-3.9719,-3.97,-3.9123,-3.8892,-3.8892,-3.8892,-3.9552,-4.0574,-4.0574,-4.0596,-4.0533,-4.0003,-3.9802,-3.9706,0.0,0.0,0.0,0.0,0.0,0.0,0.0,0.0,0.0,0.0,0.0,-1.011,-1.2291,-1.1742,-1.1864,-1.3556,-1.4004,-1.4854,-1.6347,0.0,0.0,0.0,0.0,0.0,0.0,-2.7095,-2.828,-2.9734,0.0,0.0,0.0,0.0,0.0,0.0,0.0,0.0,-3.4847,-3.4567,-3.37,-3.24,-3.1305,-3.0499,-2.9892,0.0,0.0,0.0,0.0,0.0,0.0,0.0,0.0,0.0,0.0,0.0,0.0,0.0,0.0,0.0,0.0,0.0,0.0,0.0,0.0,0.0,0.0,0.0,0.0,0.0,0.0,0.0,0.0,0.0,0.0,0.0,0.0,0.0,0.0,-3.5622,-3.5827,-3.635,-3.6724,-3.7173,-3.7825,-3.8216,-3.8515,-3.8676,-3.8707,-3.8707,-3.8707,-3.8432,-3.8467,-3.8864,-3.8809,-3.8947,-3.9352,-3.9541,-3.9662,-3.9662,-3.9662,-3.9662,-3.9642,-3.9104,-3.8854,-3.8834,-3.8257,-3.8007,-3.8007,-3.8007,-3.8642,-3.9662,-3.9662,-3.9662,-3.9585,-3.9065,-3.8854,-3.8777,0.0,0.0,0.0,0.0,0.0,0.0,0.0,0.0,0.0,0.0,-0.8807,-0.9212,-0.9311,-0.9296,-0.9669,-1.0634,-1.1694,-1.2659,-1.36,-1.5292,0.0,0.0,0.0,0.0,-2.3966,-2.5284,-2.6439,0.0,0.0,0.0,0.0,0.0,0.0,0.0,0.0,0.0,0.0,0.0,-3.3369,-3.2263,-3.0203,-2.9345,-2.9164,0.0,0.0,0.0,0.0,0.0,0.0,0.0,0.0,0.0,0.0,0.0,0.0,0.0,0.0,0.0,0.0,0.0,0.0,0.0,0.0,0.0,0.0,0.0,0.0,0.0,0.0,0.0,0.0,0.0,0.0,0.0,0.0,0.0,-3.5622,-3.5622,-3.5766,-3.6291,-3.6374,-3.6786,-3.7755,-3.7875,-3.8062,-3.859,-3.8634,-3.8634,-3.8634,-3.7881,-3.747,-3.747,-3.7218,-3.709,-3.7112,-3.7706,-3.7988,-3.8007,-3.8007,-3.8007,-3.7993,-3.7969,-3.795,-3.7935,-3.793,-3.7911,-3.7911,-3.7911,-3.7911,-3.793,-3.7988,-3.8007,-3.8007,-3.7969,-3.795,-3.7911,0.0,0.0,0.0,0.0,0.0,0.0,0.0,0.0,0.0,0.0,-0.6996,-0.7698,-0.9145,-0.8613,-0.8613,-0.9593,-1.064,-1.1601,-1.2538,0.0,0.0,0.0,0.0,0.0,-2.1337,-2.2989,0.0,0.0,0.0,0.0,0.0,0.0,0.0,0.0,0.0,0.0,0.0,0.0,0.0,-3.1202,-2.9641,-2.828,-2.7149,0.0,0.0,0.0,0.0,0.0,0.0,0.0,0.0,0.0,0.0,0.0,0.0,0.0,0.0,0.0,0.0,0.0,0.0,0.0,0.0,0.0,0.0,0.0,0.0,0.0,0.0,0.0,0.0,0.0,0.0,0.0,-3.5622,-3.5622,-3.5622,-3.5622,-3.565,-3.5827,-3.6182,-3.6498,-3.6786,-3.6952,-3.7097,-3.7247,-3.7058,-3.6964,-3.6964,-3.6743,-3.6721,-3.692,-3.6839,-3.7021,-3.7471,-3.7637,-3.7811,-3.8007,-3.8007,-3.7894,-3.7706,-3.7256,-3.6953,-3.675,-3.6373,-3.6199,-3.6199,-3.6199,-3.6199,-3.6315,-3.7526,-3.8007,-3.7911,-3.7296,-3.6699,-3.6199,0.0,0.0,0.0,0.0,0.0,0.0,0.0,0.0,0.0,0.0,-0.473,-0.5118,-0.6513,-0.6594,-0.6904,-0.7905,-0.8954,-0.9927,-1.0908,0.0,0.0,0.0,0.0,-1.7437,-1.8613,-2.0385,0.0,0.0,0.0,0.0,0.0,0.0,0.0,0.0,0.0,0.0,0.0,0.0,0.0,0.0,-2.6645,-2.6272,-2.6256,-2.6119,-2.6068,-2.6215,-2.757,-2.8418,-2.9223,-3.0983,0.0,0.0,0.0,0.0,0.0,0.0,0.0,0.0,0.0,0.0,0.0,0.0,0.0,0.0,0.0,0.0,0.0,0.0,0.0,0.0,0.0,0.0,0.0,0.0,-3.5424,-3.5515,-3.5207,-3.5407,-3.5622,-3.5622,-3.5625,-3.57,-3.5907,-3.5764,-3.581,-3.62,-3.6108,-3.6102,-3.6285,-3.5954,-3.5846,-3.5988,-3.5764,-3.5806,-3.6174,-3.6311,-3.6462,-3.6623,-3.6623,-3.6535,-3.6369,-3.602,-3.5774,-3.5628,-3.5433,-3.5273,-3.519,-3.5417,-3.5369,-3.5286,0.0,0.0,0.0,0.0,-3.5911,-3.5493,0.0,0.0,0.0,0.0,0.0,0.0,0.0,0.0,0.0,0.0,0.0,-0.2418,-0.3044,-0.3887,-0.4807,-0.5742,-0.6805,-0.7799,0.0,0.0,0.0,-1.2884,-1.3028,-1.3945,-1.5722,0.0,0.0,0.0,0.0,0.0,0.0,0.0,0.0,0.0,0.0,0.0,0.0,0.0,0.0,0.0,0.0,-2.2305,-2.5298,-2.4969,-2.4883,-2.5176,-2.6562,-2.7519,-2.842,-3.0179,0.0,0.0,0.0,0.0,0.0,0.0,0.0,0.0,0.0,0.0,0.0,0.0,0.0,0.0,0.0,0.0,0.0,0.0,0.0,0.0,0.0,0.0,0.0,0.0,-3.5052,-3.5128,-3.4477,-3.4888,-3.5307,-3.5442,-3.4827,-3.4568,-3.5031,-3.4476,-3.4405,-3.5241,-3.5331,-3.5501,-3.5923,-3.5265,0.0,0.0,0.0,-3.4171,-3.42,-3.4508,-3.4653,-3.4694,-3.4694,-3.4674,-3.4653,-3.4674,-3.4674,-3.4653,-3.4944,-3.4926,-3.4753,-3.5207,-3.5122,-3.4734,-3.5273,-3.546,-3.5493,-3.5493,-3.5493,-3.5493,0.0,0.0,0.0,0.0,0.0,0.0,0.0,0.0,0.0,-0.0778,-0.1948,-0.2966,-0.3124,-0.3276,-0.3507,-0.3663,-0.4655,-0.564,0.0,0.0,-0.7601,-0.8825,-0.9532,-1.0563,0.0,0.0,0.0,0.0,0.0,0.0,0.0,0.0,0.0,0.0,0.0,0.0,0.0,0.0,0.0,0.0,0.0,0.0,-1.9414,-2.0784,-2.1776,-2.2613,-2.4182,-2.5806,-2.7494,-2.9274,-3.1699,-3.4171,-3.5088,0.0,0.0,0.0,0.0,0.0,0.0,0.0,0.0,0.0,0.0,0.0,0.0,0.0,0.0,0.0,0.0,0.0,0.0,0.0,0.0,-3.4624,-3.4235,-3.3743,-3.3063,-3.3096,-3.3578,-3.4604,-3.4066,-3.3651,-3.3777,-3.3463,-3.3303,-3.3508,-3.3598,-3.3695,-3.3773,-3.3935,-3.4027,-3.4027,-3.3915,-3.3986,-3.42,-3.4246,-3.4423,-3.4694,-3.4694,0.0,-3.4311,-3.4572,-3.4551,-3.4292,-3.4634,-3.4734,-3.4694,-3.4813,-3.4793,-3.4734,-3.5034,-3.5304,-3.5493,-3.5493,-3.5493,-3.5479,0.0,0.0,0.0,0.0,0.0,0.0,0.0,0.0,0.0,0.0,-0.0469,-0.1565,-0.1565,-0.1565,-0.18,-0.2268,-0.3272,0.0,0.0,-0.4647,-0.5109,-0.6103,-0.6612,0.0,0.0,0.0,0.0,0.0,0.0,0.0,0.0,0.0,0.0,0.0,0.0,0.0,0.0,0.0,0.0,0.0,0.0,0.0,-0.455,-1.2708,-1.7991,-2.1277,-2.2347,-2.4329,-2.6739,-2.8865,-3.1393,-3.3799,-3.4781,-3.5969,-3.7097,0.0,0.0,0.0,0.0,0.0,0.0,0.0,0.0,0.0,0.0,0.0,0.0,0.0,0.0,-3.5622,0.0,0.0,-3.4364,-3.3714,-3.3304,-3.2764,-3.1713,-3.1564,-3.1901,-3.2928,-3.2663,-3.2419,-3.2419,-3.2201,-3.2187,-3.2377,-3.2458,-3.2598,-3.2858,-3.3027,-3.3148,-3.3148,-3.339,-3.3542,-3.3697,-3.3917,-3.4068,-3.4255,-3.4255,-3.4141,-3.4012,-3.4165,-3.416,-3.4018,-3.4311,-3.4375,-3.4255,-3.4255,-3.4439,-3.4694,-3.4656,-3.4832,-3.5105,-3.5105,-3.5105,-3.5088,0.0,0.0,0.0,0.0,0.0,0.0,0.0,0.0,0.0,0.0,0.0,0.0314,0.0314,0.0471,0.0235,0.0,0.0,0.0,0.0,-0.1871,-0.2334,-0.3328,-0.3405,0.0,0.0,0.0,0.0,0.0,0.0,0.0,0.0,0.0,0.0,0.0,0.0,0.0,0.0,0.0,0.0,0.0,0.0,0.0,1.2258,0.0626,-0.8398,-1.5068,-1.5698,-1.7562,-2.0402,-2.505,-2.7984,-3.0256,-3.355,-3.5107,-3.5762,-3.6059,-3.6503,0.0,0.0,0.0,0.0,0.0,0.0,0.0,0.0,0.0,-3.6105,-3.6224,-3.5688,-3.522,-3.5222,-3.4537,-3.3648,-3.2396,-3.2085,-3.1596,-3.0381,-3.0174,-3.0307,-3.0799,-3.0943,-3.1002,-3.1002,-3.1033,-3.1179,-3.1476,-3.1699,-3.1968,-3.2332,-3.2451,-3.2484,-3.2484,-3.289,-3.3075,-3.3075,-3.339,-3.355,-3.355,-3.355,-3.355,-3.355,-3.3634,-3.3634,-3.356,-3.3776,-3.3847,-3.3807,-3.3606,-3.3899,-3.436,-3.3994,-3.4043,-3.4319,-3.4593,-3.4694,-3.4694,0.0,0.0,0.0,0.0,0.0,0.0,0.0,0.0,0.0,0.0,0.0,0.0,0.0,0.0,0.0,0.0,0.0,0.0,0.0,0.2418,0.1947,0.0932,0.0932,0.0,0.0,0.0,0.0,0.0,0.0,0.0,0.0,0.0,0.0,0.0,0.0,0.0,0.0,0.0,0.0,0.0,0.0,0.0,2.5315,2.3685,1.5638,0.5054,0.3809,0.286,0.03,-1.1848,-1.6611,-1.943,-3.0638,-3.3577,-3.3129,-3.4434,0.0,-3.4367,-3.5451,-3.5444,-3.5172,-3.5467,-3.5545,-3.5558,0.0,0.0,-3.4971,-3.5543,-3.4688,-3.3793,-3.3846,-3.2803,-3.1701,-3.0931,-3.0302,-2.9713,-2.8944,-2.883,-2.8625,-2.8082,-2.8967,-2.9608,-2.9608,-3.007,-3.0418,-3.0444,-3.1287,-3.1808,-3.1897,-3.2264,-3.2484,-3.2484,-3.255,-3.2583,-3.2583,-3.2616,-3.2648,-3.2648,-3.2648,-3.2648,-3.2648,-3.3075,-3.3045,-3.2648,-3.2695,-3.31,-3.3734,-3.2965,-3.2916,-3.3325,-3.2885,-3.2709,-3.2893,-3.4209,-3.4694,-3.4653,0.0,0.0,0.0,0.0,0.0,0.0,0.0,0.0,0.0,0.0,0.0,0.0,0.0,0.0,0.0,0.0,0.0,0.0,0.3962,0.457,0.4714,0.432,0.4243,0.4085,0.0,0.0,0.0,0.0,0.0,0.0,0.0,0.0,0.0,0.0,0.0,0.0,0.0,0.0,2.9669,3.2388,3.2057,3.1681,3.1296,3.1284,2.8276,2.2993,1.5069,1.0991,0.0,0.0,-0.8748,-1.3104,-2.1025,-2.4921,-2.6976,-2.9092,-2.9918,0.0,-3.1351,-3.2502,-3.3276,-3.2719,-3.285,-3.3145,-3.3145,-3.2984,-3.2948,-3.3201,-3.2805,-3.2433,-3.2416,-3.1639,-3.0778,0.0,-2.9474,-2.8771,-2.8098,-2.8008,-2.7889,-2.7655,-2.8027,-2.8496,-2.8826,-2.9406,-2.9761,-2.9761,-3.0143,-3.0558,-3.0914,-3.1116,-3.1363,-3.1714,-3.1968,-3.2092,-3.2092,-3.2366,-3.2484,-3.2484,-3.2484,-3.2484,-3.2517,-3.2713,-3.2681,-3.2484,-3.2484,-3.2713,-3.3027,-3.2648,-3.2616,-3.2777,-3.2583,-3.2484,-3.2565,-3.3187,-3.3414,-3.3386,0.0,0.0,0.0,0.0,0.0,0.0,0.0,0.0,0.0,0.0,0.0,0.0,0.0,0.0,0.0,0.0,0.0,0.0,0.0,0.6634,0.7087,0.7087,0.7087,0.0,0.7442,0.7446,0.0,0.0,0.0,0.0,0.0,0.0,0.0,0.0,0.0,0.0,0.0,3.0969,3.2828,3.4683,3.4969,3.482,3.4431,3.4415,3.4706,3.3905,2.4631,1.9985,0.0,0.0,0.0705,-0.4135,-1.1729,-1.6374,-1.96,-2.2423,-2.4356,-2.5878,-2.7287,-2.892,-3.0131,-2.9706,-3.0132,-3.0701,-3.0701,-3.0712,-3.0754,-3.0937,-3.0689,-3.0441,-3.0454,-2.9884,-2.9236,-2.8535,-2.801,-2.7524,-2.7041,-2.6967,-2.6967,-2.6967,-2.6967,-2.7225,-2.7864,-2.867,-2.9134,-2.9134,-2.9316,-2.9585,-3.0038,-3.0038,-3.0251,-3.0699,-3.0977,-3.1138,-3.1138,-3.1627,-3.1881,-3.1898,-3.2074,-3.2162,-3.2162,-3.1969,-3.2109,-3.2484,-3.2074,-3.2109,-3.2484,-3.2248,-3.2091,-3.1982,-3.1863,-3.1707,-3.1514,-3.1514,-3.1823,-3.2199,0.0,0.0,0.0,0.0,0.0,0.0,0.0,0.0,0.0,0.0,0.0,0.0,0.0,0.0,0.0,0.0,0.0,0.0,0.0,0.9216,0.9221,0.9221,0.9221,0.9643,1.0564,1.0564,1.0985,0.0,0.0,0.0,0.0,0.0,0.0,0.0,0.0,0.0,0.0,3.2783,3.4242,3.5552,3.558,3.5441,3.5256,3.5185,3.5053,3.4821,3.4181,0.0,0.0,0.0,1.356,1.0208,-0.4879,-1.0035,0.0,-1.4869,-1.8065,-2.1013,-2.3865,-2.4699,-2.5127,-2.6846,-2.7846,-2.8414,-2.8414,-2.8477,-2.8653,-2.9358,-2.8361,-2.7454,-2.7523,-2.696,-2.63,-2.5633,-2.5536,-2.5481,-2.5453,-2.5453,-2.5453,-2.5453,-2.5453,-2.5728,-2.651,-2.7765,-2.8511,-2.8511,-2.9058,-2.9406,-2.9406,-2.9406,-2.9451,-2.9451,-2.9496,-2.948,-2.948,-3.0064,-3.0377,-3.0377,-3.0958,-3.123,-3.123,-3.0642,-3.1155,-3.2417,-3.0999,-3.1193,-3.2417,-3.16,-3.1042,-3.0716,-3.0316,-2.9722,-2.9115,-2.9115,-3.0093,-3.1448,0.0,0.0,0.0,0.0,0.0,0.0,0.0,0.0,0.0,0.0,0.0,0.0,0.0,0.0,0.0,0.0,0.0,0.0,0.0,1.152,1.2184,1.2184,1.283,1.3397,1.367,1.4182,1.4936,0.0,0.0,0.0,0.0,0.0,0.0,0.0,0.0,0.0,0.0,3.3374,3.4356,3.5091,3.5507,3.5485,3.524,3.5215,3.5013,3.4717,0.0,0.0,0.0,0.0,2.1032,1.7106,0.7576,0.2265,-0.1596,-0.7268,-1.1912,-1.5458,-1.6383,-1.8538,-2.0582,-2.1233,-2.2526,-2.3707,-2.3707,-2.4195,-2.4762,-2.4983,-2.4646,-2.4295,-2.4337,-2.4647,-2.4775,-2.4587,-2.5009,-2.5398,-2.5398,-2.5398,-2.5398,-2.5398,-2.5398,0.0,0.0,-2.664,-2.7378,-2.786,-2.8076,-2.8352,-2.8779,-2.8779,-2.9012,-2.9406,-2.9406,-2.9406,-2.9406,-2.9585,-2.9717,-2.9717,-2.9908,-2.9995,-2.9962,-2.9329,-2.9321,-2.9726,-2.8788,-2.8657,-2.9065,-2.8794,-2.8606,-2.8516,-2.8369,-2.8158,-2.7945,-2.7945,-2.7982,-2.8176,0.0,0.0,0.0,0.0,0.0,0.0,0.0,0.0,0.0,0.0,0.0,0.0,0.0,0.0,0.0,0.0,0.0,0.0,0.0,0.0,1.4243,1.4243,1.513,1.5826,1.6175,1.7008,1.789,1.8839,0.0,0.0,0.0,0.0,0.0,0.0,0.0,0.0,3.2702,3.3556,3.4327,3.498,3.5233,3.5234,3.5039,3.4885,3.4564,0.0,0.0,0.0,0.0,2.8904,2.5559,2.1724,1.6369,1.0659,0.4864,-0.0856,-0.5197,-0.8538,-1.0311,-1.2811,-1.5279,-1.6272,-1.8042,-1.955,-1.955,-2.029,-2.0966,-2.0966,-2.1249,-2.1531,-2.1531,-2.2274,-2.2877,-2.2877,-2.3331,-2.3651,-2.3651,-2.3651,-2.3651,-2.3651,-2.3651,-2.3768,0.0,0.0,-2.5672,-2.6745,-2.6811,-2.7108,-2.7765,-2.7535,-2.7819,-2.8717,-2.8497,-2.8497,-2.8764,-2.895,-2.918,-2.9406,-2.9134,-2.9022,-2.9006,-2.814,-2.7849,-2.8003,-2.7386,-2.7179,-2.7387,-2.7387,-2.7242,-2.7033,-2.7033,-2.6872,-2.6607,-2.6607,-2.6318,-2.6124,0.0,0.0,0.0,0.0,0.0,0.0,0.0,0.0,0.0,0.0,0.0,0.0,0.0,0.0,0.0,0.0,0.0,0.0,0.0,0.0,0.0,1.5367,1.6139,1.7008,1.7986,1.8889,1.9771,2.0707,0.0,0.0,0.0,0.0,0.0,0.0,0.0,0.0,3.2943,3.3415,3.4242,3.5149,3.4832,3.4722,3.4757,3.4316,0.0,0.0,0.0,0.0,0.0,0.0,0.0,2.4254,2.0958,1.4941,0.836,0.4609,0.1952,-0.0677,-0.539,-0.7522,-0.9139,-1.192,-1.4138,-1.5745,-1.583,-1.6591,-1.736,-1.7437,-1.8211,-1.8923,0.0,0.0,-2.0375,-2.0451,-2.0515,-2.0515,-2.059,-2.059,-2.059,0.0,0.0,0.0,0.0,0.0,0.0,-2.5036,-2.5287,-2.5728,-2.6404,-2.5783,-2.6054,-2.7458,-2.6826,-2.6774,-2.7458,-2.8076,-2.8607,-2.9146,-2.849,-2.82,-2.8124,-2.686,-2.662,-2.7115,-2.6545,-2.6557,-2.7093,-2.7093,-2.6725,-2.6038,-2.6038,-2.564,-2.4996,-2.4996,-2.4996,-2.513,0.0,0.0,0.0,0.0,0.0,0.0,0.0,0.0,0.0,0.0,0.0,0.0,0.0,0.0,0.0,0.0,0.0,0.0,0.0,0.0,0.0,0.0,0.0,0.0,0.0,0.0,0.0,0.0,0.0,0.0,0.0,0.0,0.0,0.0,0.0,0.0,3.3153,3.3773,3.4345,3.4813,0.0,3.4711,3.4666,0.0,0.0,0.0,0.0,0.0,0.0,0.0,0.0,0.0,0.0,1.5644,1.2031,1.0346,0.7347,0.4183,0.2118,-0.0301,-0.285,-0.5052,-0.7114,-0.901,-1.0592,-1.1703,-1.2649,-1.3364,-1.4332,-1.5006,0.0,0.0,0.0,-1.8465,-1.9117,0.0,-2.0515,-2.059,0.0,-2.059,0.0,-2.0643,-2.0876,-2.1066,0.0,-2.1794,-2.4071,-2.5453,-2.5673,-2.5508,-2.5563,-2.5946,-2.5783,-2.5783,-2.5946,-2.6133,-2.6021,-2.5763,-2.5604,-2.5286,-2.4858,-2.4043,-2.3755,-2.384,-2.3191,-2.3022,-2.3132,-2.3132,-2.3045,-2.2855,-2.2855,-2.2754,-2.261,-2.261,-2.261,-2.2639,0.0,0.0,0.0,0.0,0.0,0.0,0.0,0.0,0.0,0.0,0.0,0.0,0.0,0.0,0.0,0.0,0.0,0.0,0.0,0.0,0.0,0.0,0.0,0.0,0.0,0.0,0.0,0.0,0.0,0.0,0.0,0.0,0.0,0.0,0.0,3.2745,3.3243,0.0,0.0,0.0,0.0,0.0,0.0,0.0,0.0,0.0,0.0,0.0,0.0,0.0,0.0,2.1773,1.8843,1.6528,1.4474,1.2722,0.0,0.7895,0.6384,0.4056,0.1525,-0.0537,-0.2902,-0.517,-0.673,-0.793,-0.8971,-0.9983,-1.0942,-1.1899,-1.2839,-1.419,-1.5539,0.0,0.0,0.0,-1.814,-1.8218,-1.8218,0.0,-1.8562,0.0,-1.8839,-1.953,-2.0009,-2.0009,-2.2091,-2.3462,-2.3742,-2.3462,-2.3566,-2.4235,-2.4346,-2.4684,-2.5398,-2.5122,-2.4858,-2.4498,-2.3958,-2.3529,-2.3234,-2.256,-2.2284,-2.2208,-2.152,-2.137,-2.1649,-2.0992,-2.093,-2.1212,-2.0882,-2.0722,-2.0722,-2.0722,-2.0722,-2.0771,0.0,0.0,0.0,0.0,0.0,0.0,0.0,0.0,0.0,0.0,0.0,0.0,0.0,0.0,0.0,0.0,0.0,0.0,0.0,0.0,0.0,0.0,0.0,0.0,0.0,0.0,0.0,0.0,0.0,0.0,0.0,0.0,0.0,0.0,0.0,0.0,0.0,0.0,0.0,0.0,0.0,0.0,0.0,0.0,0.0,0.0,0.0,0.0,0.0,0.0,2.272,2.2226,1.8965,1.7163,1.5756,1.3295,1.1877,1.0548,0.8481,0.6627,0.4699,0.2467,-0.0231,-0.2544,-0.3714,-0.4791,-0.5937,-0.7102,0.0,-0.9309,-1.1243,-1.2417,-1.3425,-1.4641,0.0,-1.4871,-1.5163,-1.5234,-1.5234,-1.5234,-1.593,-1.6419,-1.6419,-1.7852,-1.8747,-1.8747,-1.9596,-2.047,-2.1475,-2.0928,-2.1209,-2.2478,-2.2637,-2.3357,-2.4741,-2.4176,-2.3825,-2.3798,-2.2688,-2.2119,-2.2024,-2.1434,-2.1143,-2.1129,-2.0489,-2.0539,-2.1081,-1.9788,-1.9623,-2.0152,-1.9509,-1.9241,-1.9241,-1.9241,-1.9241,-1.9356,0.0,0.0,0.0,0.0,0.0,0.0,0.0,0.0,0.0,0.0,1.0278,1.0881,0.0,0.0,0.0,0.0,0.0,0.0,0.0,0.0,0.0,0.0,0.0,0.0,0.0,0.0,0.0,0.0,0.0,0.0,0.0,0.0,0.0,0.0,0.0,0.0,0.0,0.0,0.0,0.0,0.0,0.0,0.0,0.0,0.0,0.0,0.0,0.0,0.0,0.0,2.1884,2.1475,1.8793,1.6775,1.528,1.4783,1.3433,1.162,0.9583,0.8742,0.7812,0.49,0.3112,0.1555,-0.0389,-0.1636,0.0,0.0,-0.5973,-0.7114,-0.8367,-0.9352,-1.0611,-1.2444,-1.2736,-1.3324,-1.4942,-1.5234,-1.5234,0.0,-1.5376,-1.5446,-1.5446,-1.572,0.0,-1.5922,-1.6748,-1.8305,-2.0685,-2.0643,-2.0707,-2.0991,-2.1003,-2.1129,-2.1432,-2.0918,-2.0498,-2.0018,-1.9479,-1.8975,-1.8476,-1.8382,-1.8293,-1.8293,-1.8186,-1.8186,-1.8293,-1.8024,-1.8024,-1.8132,-1.797,-1.7915,-1.7915,-1.7915,-1.7915,-1.797,0.0,0.0,0.0,0.0,0.0,0.0,0.0,0.0,0.7749,0.9492,1.0091,1.1131,1.3218,1.33,0.0,0.0,0.0,0.0,0.0,0.0,0.0,0.0,0.0,0.0,0.0,0.0,0.0,0.0,0.0,0.0,0.0,0.0,0.0,0.0,0.0,0.0,0.0,0.0,0.0,0.0,0.0,0.0,0.0,0.0,0.0,0.0,0.0,0.0,0.0,0.0,2.1174,1.9987,1.7375,1.5587,1.4314,1.381,1.3018,1.2077,1.1099,1.0126,0.8832,0.6743,0.5057,0.3357,0.1327,0.0,0.0,0.0,-0.4285,-0.5212,-0.7391,-0.8161,0.0,-1.1137,-1.1508,-1.2024,-1.3513,-1.3665,-1.3665,-1.3665,-1.4091,-1.445,-1.445,-1.4879,-1.5234,-1.5234,-1.5658,-1.6678,-1.8439,-1.8946,-1.9431,-1.9879,-1.9944,-2.0139,-2.059,-1.984,-1.9347,-1.9101,-1.835,-1.7868,-1.7578,-1.7578,-1.7578,-1.7578,-1.7202,-1.7257,-1.7523,-1.68,-1.6698,-1.6978,-1.6585,-1.6472,-1.6472,-1.6472,-1.6472,-1.6528,0.0,0.0,0.0,0.0,0.0,0.0,0.0,0.7316,0.7925,0.9148,1.0265,1.1662,1.3507,1.3681,1.3454,0.0,0.0,0.0,0.0,0.0,0.0,0.0,0.0,0.0,0.0,0.0,0.0,2.406,0.0,0.0,0.0,0.0,0.0,0.0,0.0,0.0,0.0,0.0,0.0,0.0,0.0,0.0,0.0,0.0,0.0,0.0,0.0,0.0,0.0,0.0,2.0373,1.8593,1.6271,1.4807,1.3882,1.3164,1.2659,1.2224,1.207,1.0645,0.9064,0.7964,0.6213,0.4219,0.2348,0.1723,0.0,-0.2187,-0.2968,-0.39,-0.6619,-0.7322,-0.8097,0.0,-1.0181,-1.0663,-1.1941,-1.211,-1.2234,0.0,-1.3051,0.0,-1.339,-1.4091,0.0,-1.4593,-1.4736,-1.5305,-1.6219,-1.7001,-1.7696,-1.8402,-1.8402,-1.8726,-1.9433,-1.8511,-1.8044,-1.8033,-1.709,-1.6588,-1.6588,-1.6588,-1.6588,-1.6588,-1.5995,-1.611,-1.6532,-1.5371,-1.5216,-1.5661,-1.5099,-1.4874,-1.4874,-1.4874,-1.4874,-1.4982,0.0,0.0,0.0,0.0,0.0,0.0,0.0,0.8013,0.9148,1.0265,1.1466,1.2668,1.3873,1.3808,1.3539,0.0,0.0,0.0,0.0,0.0,0.0,0.0,0.0,0.0,0.0,0.0,0.0,2.3185,2.4002,0.0,0.0,0.0,0.0,0.0,0.0,3.1316,0.0,0.0,0.0,0.0,0.0,0.0,0.0,0.0,0.0,0.0,0.0,0.0,0.0,0.0,0.0,1.7871,1.6826,1.579,1.5021,1.495,0.0,0.0,1.1168,1.0121,0.9069,0.808,0.623,0.4375,0.3202,0.0,0.094,-0.1253,-0.2501,-0.3513,-0.4761,-0.5783,-0.6839,0.0,0.0,-0.902,-1.13,-1.1573,-1.1884,-1.2656,0.0,0.0,-1.2472,-1.2519,-1.2592,-1.2592,-1.3382,-1.4243,-1.5305,-1.5376,-1.5517,-1.5579,-1.5579,-1.5649,-1.5711,-1.4966,-1.459,-1.4516,-1.3774,-1.3416,-1.3416,-1.3416,-1.3416,-1.3416,-1.3356,-1.3364,-1.3416,-1.3304,-1.3243,-1.3304,-1.3243,-1.3252,-1.3252,-1.3252,-1.3252,-1.3243,0.0,0.0,0.0,0.0,0.0,0.0,0.8101,0.8627,0.9323,1.0438,1.1552,1.2498,1.2942,1.3542,1.3841,0.0,0.0,0.0,0.0,0.0,0.0,0.0,0.0,0.0,0.0,0.0,0.0,2.1604,2.2917,0.0,0.0,0.0,0.0,0.0,0.0,2.9878,3.0746,0.0,0.0,0.0,0.0,0.0,0.0,0.0,0.0,0.0,0.0,0.0,0.0,0.0,0.0,0.0,1.6697,1.5508,0.0,0.0,1.3382,1.2224,1.1842,1.0496,0.9226,0.8765,0.7161,0.5237,0.3515,0.0,0.172,-0.1018,-0.2425,-0.3435,-0.453,-0.5614,-0.6799,0.0,0.0,0.0,-1.0181,-1.0433,-1.0562,-1.0863,-1.0874,-1.0744,0.0,0.0,-1.0496,-1.0496,-1.199,-1.2492,-1.1723,-1.3917,-1.5234,-1.5234,-1.5234,-1.5234,-1.5234,-1.466,-1.4229,-1.4082,-1.3506,-1.3153,-1.3009,-1.3009,-1.3009,-1.3009,-1.3009,-1.3009,-1.3009,-1.3009,-1.3009,-1.3009,-1.3009,-1.3009,-1.3009,-1.3009,-1.3009,-1.3009,0.0,0.0,0.0,0.0,0.0,0.7404,0.8281,0.8973,0.9666,1.0524,1.1901,1.2851,1.2851,1.3555,1.4001,1.3794,0.0,0.0,0.0,0.0,0.0,0.0,0.0,0.0,0.0,0.0,1.9748,2.059,2.1732,2.2384,0.0,0.0,2.5827,2.6733,0.0,0.0,0.0,0.0,0.0,0.0,0.0,0.0,0.0,0.0,0.0,0.0,0.0,0.0,0.0,0.0,0.0,0.0,0.0,0.0,0.0,0.0,1.3025,1.2305,1.2305,1.0801,0.9296,0.9296,0.7544,0.5315,0.0,0.0,0.1876,-0.1018,-0.2425,-0.3435,-0.453,-0.5653,-0.6725,0.0,0.0,-0.8184,-0.9312,-0.9488,-0.9547,-0.9809,0.0,-0.9677,-0.9546,-0.9346,-0.9296,-0.9296,-1.0576,-1.0801,-0.9372,-1.1944,-1.3476,-1.3476,-1.3476,-1.3476,-1.3476,-1.3004,-1.2684,-1.2438,-1.2327,-1.2134,-1.1888,-1.2143,-1.2274,-1.2274,-1.2274,-1.2274,-1.2274,-1.2274,-1.2274,-1.2274,-1.2274,-1.2274,-1.2274,-1.2274,-1.2274,-1.2274,0.0,0.0,0.0,0.0,0.0,0.0,0.0,0.9052,1.0611,1.0611,1.2607,1.4088,1.4088,1.4088,1.4088,1.4082,0.0,0.0,0.0,0.0,0.0,0.0,0.0,0.0,0.0,0.0,1.9748,2.059,2.059,2.0991,2.1711,2.2602,2.3754,2.5066,0.0,0.0,0.0,0.0,0.0,0.0,0.0,0.0,0.0,0.0,0.0,0.0,0.0,0.0,0.0,0.0,0.0,0.0,0.0,0.0,0.0,0.0,1.3025,1.2305,1.2305,1.0801,0.9296,0.9296,0.6992,0.4453,0.0,0.2347,0.1019,-0.1175,-0.2425,-0.3435,-0.453,-0.5653,-0.6522,-0.6671,-0.6827,0.0,-0.8686,-0.8886,-0.9243,0.0,-1.0193,-1.0018,-0.9577,-0.9346,-0.9296,-0.9296,-0.9296,-0.9296,-0.9296,-0.9372,-0.9372,-0.9372,-0.9372,-0.9372,-0.9372,-0.9059,-0.8764,-0.8694,-0.9282,-0.9443,-0.9338,-1.0238,-1.0624,-1.0624,-1.0624,-1.0624,-1.0624,-1.0624,-1.0624,-1.0624,-1.0624,-1.0624,-1.0624,-1.0624,-1.0624,-1.0624,0.0,0.0,0.0,0.0,0.0,0.0,0.0,0.9662,1.0869,1.1638,1.3124,1.4088,1.4088,1.4088,1.4088,1.4088,0.0,0.0,0.0,0.0,0.0,0.0,0.0,0.0,0.0,0.0,1.66,1.6927,1.814,1.8864,1.9117,2.064,2.1858,2.2765,2.3014,2.356,0.0,0.0,0.0,0.0,0.0,0.0,0.0,0.0,0.0,0.0,0.0,0.0,0.0,0.0,0.0,0.0,0.0,0.0,0.0,0.0,0.0,0.0,1.0421,0.9296,0.8313,0.8313,0.6461,0.4453,0.3357,0.1717,0.0078,-0.1331,-0.2971,-0.4318,-0.479,-0.5791,-0.6678,-0.6831,-0.6976,0.0,0.0,0.0,0.0,-0.8024,-0.7901,-0.7749,-0.7441,-0.7962,-0.8012,-0.7326,-0.8542,-0.8694,-0.7326,-0.7936,-0.8618,-0.9301,-0.9296,-0.9296,-0.9296,-0.9225,-0.8925,-0.8624,-0.8762,-0.8732,-0.842,-0.8678,-0.8807,-0.8807,-0.8807,-0.8807,-0.8807,-0.8807,-0.8807,-0.8807,-0.8807,-0.8807,-0.8807,-0.8807,-0.8807,-0.8807,0.0,0.0,0.0,0.0,0.0,0.0,0.0,0.9231,1.0351,1.1466,1.2681,1.3555,1.4082,1.373,1.3379,1.3379,0.0,0.0,0.0,0.0,0.0,0.0,0.0,0.0,0.0,1.5021,1.5234,1.5234,1.6314,1.6858,1.6945,1.8332,1.9272,1.9727,2.0048,2.0459,0.0,0.0,0.0,0.0,0.0,0.0,1.5996,0.0,0.0,0.0,0.0,0.0,0.0,0.0,0.0,0.0,0.0,0.0,0.0,0.0,0.8898,0.911,0.0,0.83,0.723,0.723,0.5375,0.0,0.2659,0.0937,-0.0937,-0.1956,-0.3544,-0.4933,-0.5408,-0.6229,-0.6817,-0.6912,-0.7048,-0.7139,0.0,0.0,0.0,-0.7139,-0.6932,0.0,-0.6573,-0.7055,-0.7009,-0.6342,-0.748,-0.7629,-0.6338,-0.6872,-0.7553,-0.8161,-0.8161,-0.8161,-0.8161,-0.8161,-0.8001,-0.761,-0.7886,-0.7886,-0.7621,-0.7867,-0.8027,-0.8027,-0.8027,-0.8027,0.0,-0.8027,-0.8027,-0.8027,-0.8027,-0.8027,-0.8027,-0.8027,-0.8027,-0.8027,0.0,0.0,0.0,0.0,0.0,0.0,0.0,0.0,0.9323,1.0351,1.1466,1.2595,1.3737,1.2857,1.2151,1.206,0.0,0.0,0.0,0.0,0.0,0.0,0.0,0.0,0.0,1.433,1.4816,1.4791,1.4863,1.4863,1.4934,1.5774,1.6243,1.6269,1.7039,1.7437,1.732,1.732,1.6779,1.5799,1.4965,1.4026,0.0,0.0,0.0,0.0,0.0,0.0,0.0,0.0,0.0,0.0,0.0,0.0,0.0,0.0,0.0,0.0,0.0,0.7439,0.5976,0.5976,0.0,0.0,0.1488,-0.0157,0.0,-0.3052,-0.4143,-0.5347,-0.6337,-0.6736,-0.6932,-0.6943,-0.7054,-0.7139,0.0,-0.7139,0.0,0.0,-0.7014,-0.6868,-0.6715,-0.6563,-0.6413,-0.6271,-0.6338,-0.6338,-0.6338,-0.6338,-0.6338,-0.6338,-0.6338,-0.6338,-0.6338,-0.6338,-0.6183,-0.6027,-0.6664,-0.6913,-0.6865,-0.7536,-0.7832,-0.7832,-0.7832,-0.7832,-0.7832,-0.7832,-0.7832,-0.7832,-0.7832,-0.7832,-0.7832,-0.7832,-0.7832,-0.7832,0.0,0.0,0.0,0.0,0.0,0.0,0.0,0.0,0.0,0.0,1.0265,1.1128,1.1391,1.1214,1.059,0.0,0.0,0.0,0.0,0.0,0.0,0.0,0.0,0.0,0.0,1.0747,1.0802,1.0697,1.1396,1.1752,1.1825,1.3467,1.4394,1.466,1.4783,1.4452,1.3831,1.3831,1.3224,1.2389,1.2183,1.1384,0.0,0.0,0.0,0.0,0.753,0.7095,0.0,0.0,0.0,0.0,0.0,0.0,0.0,0.0,0.4053,0.3973,0.4436,0.0,0.3818,0.3818,0.2734,0.1409,0.0,-0.1249,-0.3062,-0.4239,0.0,-0.6296,-0.6692,-0.6878,-0.6963,-0.7071,-0.7119,-0.7139,-0.7139,-0.7139,0.0,-0.7139,-0.7014,-0.6868,-0.6715,-0.6563,-0.6413,-0.6271,-0.6338,-0.6338,-0.6338,-0.6338,-0.6338,-0.6338,-0.6338,-0.6338,-0.6338,-0.6338,-0.6183,-0.6027,-0.6092,-0.6005,-0.592,-0.5959,-0.6017,-0.6017,-0.6017,-0.6017,-0.6017,-0.6017,-0.6017,-0.6017,-0.6017,-0.6017,-0.6017,-0.6017,-0.6017,-0.6017,0.0,0.0,0.0,0.0,0.0,0.0,0.0,0.0,0.0,0.0,0.0,0.0,0.0,0.0,0.0,0.0,0.0,0.0,0.0,0.0,0.0,0.0,0.0,0.0,0.8777,0.828,0.8233,0.8696,0.8654,0.8631,0.8631,0.9684,1.0275,1.0478,1.0406,1.0084,0.9647,0.9647,0.9096,0.815,0.815,0.0,0.0,0.0,0.0,0.0,0.4955,0.4809,0.0,0.4743,0.483,0.4766,0.0,0.0,0.0,0.0,0.2734,0.2425,0.2425,0.2425,0.2425,0.2425,0.1252,0.0,-0.0625,0.0,0.0,0.0,0.0,-0.6732,-0.6898,-0.6544,-0.6433,-0.7037,-0.6694,-0.6517,0.0,0.0,-0.7139,-0.7139,-0.7071,-0.6939,-0.6722,-0.6624,-0.6488,-0.6278,-0.6338,-0.6338,-0.6338,-0.6338,-0.6338,-0.6338,-0.6338,-0.6338,-0.6338,-0.6338,-0.6217,-0.6132,-0.5536,-0.5182,-0.5109,-0.443,-0.4151,-0.4151,-0.4553,-0.4553,-0.4217,-0.5024,-0.516,-0.4755,-0.4755,-0.4755,-0.4688,-0.4284,-0.4151,-0.4151,0.0,0.0,0.0,0.0,0.0,0.0,0.0,0.0,0.0,0.0,0.0,0.0,0.0,0.0,0.0,0.0,0.0,0.0,0.0,0.0,0.0,0.0,0.0,0.6457,0.7151,0.6236,0.6223,0.7193,0.6204,0.5706,0.5706,0.587,0.5961,0.5982,0.6083,0.593,0.5764,0.5764,0.5274,0.4453,0.4453,0.0,0.0,0.0,0.0,0.0,0.0,0.0,0.0,0.289,0.2968,0.3046,0.289,0.0,0.0,0.0,0.0,0.0,0.1333,0.1333,0.1333,0.1333,-0.0157,-0.1645,-0.1802,0.0,0.0,0.0,0.0,0.0,0.0,-0.6089,0.0,-0.6694,0.0,0.0,-0.6694,-0.6962,-0.6962,-0.6602,-0.6871,-0.6937,-0.6476,-0.6615,-0.6576,-0.6285,-0.6338,-0.6257,-0.6099,-0.6025,-0.5944,-0.5786,-0.5786,-0.5786,-0.5786,-0.5944,-0.5944,-0.5783,-0.4773,-0.4292,-0.4195,-0.317,-0.2688,-0.2744,-0.348,0.0,-0.2811,-0.435,-0.4553,-0.3816,-0.3816,-0.3816,-0.368,-0.2945,-0.2678,-0.2744,0.0,0.0,0.0,0.0,0.0,0.0,0.0,0.0,0.0,0.0,0.0,0.0,0.0,0.0,0.0,0.0,0.0,0.0,0.0,0.0,0.0,0.0,0.2928,0.4037,0.404,0.3867,0.3833,0.3841,0.3675,0.3591,0.3591,0.4408,0.4949,0.5129,0.5308,0.492,0.3969,0.3969,0.3882,0.3796,0.3796,0.0,0.0,0.0,0.0,0.0,0.0,0.0,0.0,0.1802,0.2425,0.2968,0.2113,0.0,0.0,0.0,0.0,0.0,0.0235,0.0235,0.0235,0.0235,-0.0706,-0.1802,-0.2657,0.0,0.0,0.0,0.0,0.0,0.0,-0.6325,-0.6605,0.0,0.0,-0.6605,0.0,0.0,-0.6334,-0.437,-0.5885,-0.6586,-0.5301,-0.6114,-0.6576,-0.6285,-0.6338,-0.5867,-0.5002,-0.4921,-0.453,-0.3593,-0.3593,-0.3593,-0.3593,-0.453,-0.4453,-0.3591,-0.3268,-0.3113,-0.3118,-0.2812,-0.2671,-0.2678,0.0,-0.2811,-0.2744,-0.3011,-0.3011,-0.2878,-0.2878,-0.2878,-0.2878,-0.2744,-0.2678,-0.2744,0.0,0.0,0.0,0.0,0.0,0.0,0.0,0.0,0.0,0.0,0.0,0.0,0.0,0.0,0.0,0.0,0.0,0.0,0.0,0.0,0.0,-0.1969,-0.0892,0.0621,0.2468,0.1853,0.1844,0.2431,0.1739,0.1393,0.1392,0.1909,0.2178,0.2289,0.2399,0.2144,0.1612,0.1612,0.1612,0.1612,0.0,0.0,0.0,0.0,0.0,0.0,0.0,0.0,0.0,0.0,0.1019,0.1331,0.0862,0.0,0.0,0.0,0.0,0.0,0.0,0.0,0.0,0.0,-0.0784,-0.173,-0.2148,0.0,0.0,0.0,0.0,0.0,0.0,0.0,-0.4819,-0.3662,0.0,-0.4996,-0.4463,-0.4907,-0.4816,-0.3748,-0.4594,-0.4942,-0.4118,-0.4554,-0.4781,-0.4621,-0.4608,-0.4373,-0.3826,-0.3826,-0.3593,-0.3124,-0.3124,-0.2812,-0.2268,-0.2815,-0.3049,-0.3122,-0.2518,-0.2235,-0.2178,-0.1557,-0.1241,-0.1276,0.0,-0.1676,-0.1343,-0.2277,-0.241,-0.1941,-0.1941,-0.1941,-0.1876,-0.141,-0.1208,-0.1276,0.0,0.0,0.0,0.0,0.0,0.0,0.0,0.0,0.0,0.0,0.0,0.0,0.0,0.0,0.0,0.0,0.0,0.0,0.0,0.0,-0.3746,-0.4009,-0.3746,-0.232,0.0447,-0.0358,-0.0358,0.0536,-0.0358,-0.0807,-0.0807,-0.0807,-0.0807,-0.0807,-0.0807,-0.0807,-0.0807,-0.0807,-0.0807,-0.0807,0.0,0.0,0.0,0.0,0.0,0.0,0.0,0.0,0.0,0.0,0.0,0.0,0.0,0.0,0.0,0.0,0.0,-0.0079,-0.0314,-0.0392,-0.0392,-0.0706,0.0,-0.1588,-0.1618,0.0,0.0,0.0,0.0,0.0,0.0,-0.4196,0.0,-0.2772,-0.3215,-0.3481,-0.3213,-0.3392,-0.3392,-0.286,-0.3246,-0.3435,-0.2938,-0.32,-0.3287,-0.3129,-0.3124,-0.2968,-0.2735,-0.2735,-0.2656,-0.2344,-0.2344,-0.2034,-0.1254,-0.1254,-0.1644,-0.2344,-0.1614,-0.12,-0.1163,-0.0357,0.0,-0.0067,-0.0739,-0.0605,-0.0135,-0.1476,-0.1676,-0.1006,-0.1006,-0.1006,-0.094,-0.0269,0.0,0.0,0.0,0.0,0.0,0.0,0.0,0.0,0.0,0.0,0.0,0.0,0.0,0.0,0.0,0.0,0.0,0.0,0.0,0.0,0.0,0.0,-0.4098,-0.5144,-0.4184,-0.3481,-0.3212,-0.3303,-0.3303,-0.3212,-0.3303,-0.3303,-0.3303,-0.3303,-0.3303,-0.3303,-0.3303,-0.3303,-0.3303,-0.3303,-0.3303,-0.3303,-0.3303,0.0,0.0,0.0,0.0,0.0,0.0,0.0,0.0,0.0,0.0,0.0,0.0,0.0,0.0,0.0,0.0,-0.0236,-0.1176,-0.1489,-0.1723,-0.2656,-0.2227,0.0,-0.1624,-0.335,0.0,-0.3635,0.0,0.0,0.0,-0.3659,-0.3927,-0.5001,-0.4285,-0.3213,-0.2057,-0.2858,-0.2769,-0.0539,-0.2197,-0.3091,-0.1848,-0.2707,-0.3285,-0.3129,-0.3124,-0.2657,-0.1723,-0.1724,-0.1254,-0.0235,-0.0235,-0.0157,-0.0079,-0.0079,-0.0157,-0.0235,-0.0157,-0.0153,-0.0146,0.0,0.0,0.0,-0.0067,-0.0067,0.0,-0.0135,-0.0135,-0.0067,-0.0067,-0.0067,-0.0067,0.0,0.0,0.0,0.0,0.0,0.0,0.0,0.0,0.0,0.0,0.0,0.0,0.0,0.0,0.0,0.0,0.0,0.0,0.0,0.0,0.0,0.0,0.0,-0.8142,-0.8574,-0.8138,-0.7967,-0.7967,-0.5766,-0.4968,-0.5744,-0.5744,-0.5744,-0.5744,-0.5744,-0.5744,-0.5657,-0.4968,-0.4621,-0.4621,-0.3922,-0.357,-0.3566,-0.3522,-0.3787,0.0,0.0,0.0,0.0,0.0,0.0,0.0,0.0,-0.2503,-0.2345,0.0,0.0,-0.0863,-0.0157,0.0,-0.0079,-0.0471,-0.0628,-0.0706,-0.1097,-0.0888,0.0,0.0,-0.3474,-0.4257,-0.4577,-0.444,0.0,0.0,0.0,-0.1523,-0.1971,-0.1701,-0.1165,-0.0718,-0.1076,-0.0981,-0.0088,-0.0777,-0.1181,-0.066,-0.0966,-0.1266,-0.1176,-0.1175,-0.1019,-0.0628,-0.0628,-0.0392,0.0,0.0,0.0,0.0,0.0,0.0,0.0,0.0,0.0,0.0,0.0,0.0,0.0,0.0,0.0,0.0,0.0,0.0,0.0,0.0,0.0,0.0,0.0,0.0,0.0,0.0,0.0,0.0,0.0,0.0,0.0,0.0,0.0,0.0,0.0,0.0,0.0,0.0,0.0,0.0,0.0,0.0,0.0,0.0,-1.0322,-1.095,-1.1621,-1.0945,-1.0956,-1.1649,-0.8909,-0.7672,-0.8099,-0.8099,-0.8099,-0.8099,-0.8099,-0.8099,-0.8103,-0.7334,-0.6987,-0.6903,-0.6119,-0.575,-0.5709,-0.5542,-0.5843,0.0,0.0,0.0,0.0,0.0,0.0,0.0,0.0,-0.3593,0.0,0.0,0.0,0.0,0.0,0.0,-0.0079,-0.0392,-0.0471,-0.0549,-0.0862,0.0,0.0,-0.2932,-0.3172,-0.3164,-0.3566,-0.3306,0.0,-0.1969,0.0,0.0,0.0,-0.0269,0.0,0.0,0.0,0.0,0.0,0.0,0.0,0.0,0.0,0.0,0.0,0.0,0.0,0.0,0.0,0.0,0.0,0.0,0.0,0.0,0.0,0.0,0.0,0.0,0.0,0.0,0.0,0.0,0.0,0.0,0.0,0.0,0.0,0.0,0.0,0.0,0.0,0.0,0.0,0.0,0.0,0.0,0.0,0.0,0.0,0.0,0.0,0.0,0.0,0.0,0.0,0.0,0.0,0.0,0.0,0.0,0.0,0.0,0.0,-1.2149,-1.1262,-1.1707,-1.3891,-1.1878,-1.1735,-1.4088,-1.2942,-1.1809,-1.0611,-1.0611,-1.0611,-1.0611,-1.0611,-1.0611,-1.0611,-1.0611,-1.0611,-1.0611,-1.0605,-1.0484,-1.0198,-1.0193,-0.9927,-0.9375,0.0,0.0,0.0,0.0,0.0,0.0,0.0,-0.4688,0.0,0.0,0.0,0.0,0.0,0.0,-0.0236,-0.1333,-0.1568,-0.1802,0.0,0.0,0.0,-0.3266,-0.2515,-0.1433,-0.0269,0.0,-0.179,-0.179,-0.179,0.0,-0.179,-0.0807,0.0,0.0,0.0,0.0,0.0,0.0,0.0,0.0,0.0,0.0,0.0,0.0,0.0,0.0,0.0,0.0,0.0,0.0,0.0,0.0,0.0,0.0,0.0,0.0,0.0,0.0,0.0,0.0,0.0,0.0,0.0,0.0,0.0,0.0,0.0,0.0,0.0,0.0,0.0,0.0,0.0067,0.0,0.0,0.0,0.0,0.0,0.0,0.0,0.0,0.0,0.0,0.0,0.0,0.0,0.0,0.0,0.0,0.0,0.0,-1.5793,-1.5479,-1.5569,-1.6332,-1.5651,-1.5666,-1.6363,-1.6011,-1.4935,-1.3039,-1.3039,-1.3039,-1.3039,-1.3039,-1.3039,-1.3039,-1.2163,-1.1809,-1.1712,-1.0699,-1.0258,-1.0173,-0.9857,-0.9652,-0.9438,0.0,0.0,0.0,0.0,0.0,0.0,0.0,0.0,0.0,0.0,0.0,0.0,-0.0549,0.0,-0.0079,-0.0392,-0.0471,0.0,-0.0862,0.0,0.0,0.0,-0.2082,0.0,0.0,-0.1522,-0.1522,-0.0718,-0.0539,0.0,-0.0539,-0.0266,0.0,0.0,0.0,0.0,0.0,0.0,0.0,0.0,0.0,0.0,0.0,0.0,0.0,0.0,0.0706,0.1098,0.1098,0.18,0.2189,0.2189,0.2189,0.2189,0.2188,0.21,0.1319,0.0,0.0,0.0,0.0,0.0,0.0,0.0067,0.0672,0.1275,0.1877,0.1407,0.0736,0.0,0.0,0.1605,0.3823,0.0,0.0,0.0,0.0,0.0,0.0,0.0,0.0,0.0,0.0,0.0,0.0,0.0,0.0,0.0,0.0,0.0,0.0,0.0,0.0,-1.8682,-1.9085,-1.8311,-1.7705,-1.7334,-1.7342,-1.669,-1.5387,-1.5387,-1.5144,-1.4734,-1.5144,-1.5387,-1.5304,-1.4462,-1.4062,-1.396,-1.292,-1.2413,-1.2288,-1.166,-1.1318,-1.1059,0.0,0.0,0.0,0.0,0.0,0.0,0.0,0.0,0.0,0.0,0.0,0.0,-0.0627,0.0,0.0,0.0,0.0,0.0,0.0,0.0,0.0,0.0,0.0,0.0,0.0,-0.1076,-0.0897,-0.009,0.0,0.0,0.0,0.0,0.0,0.0,0.0,0.0,0.0,0.0,0.0,0.0,0.0,0.0157,0.0628,0.0628,0.0784,0.1175,0.1878,0.219,0.219,0.2812,0.3124,0.3124,0.3124,0.3124,0.3122,0.2974,0.2252,0.1162,0.1121,0.1092,0.1075,0.1075,0.1075,0.1141,0.1609,0.221,0.2611,0.2006,0.1469,0.1,0.0267,0.227,0.5379,0.0,0.0,0.0,0.0,0.0,0.0,0.0,0.0,0.0,0.0,0.0,0.0,0.0,0.0,0.0,0.0,0.0,0.0,0.0,0.0,-2.0999,-2.203,-2.0111,-1.8602,-1.7658,-1.7577,-1.7577,-1.7423,-1.7342,-1.6764,-1.5861,-1.6846,-1.7317,-1.7195,-1.685,-1.6678,-1.662,-1.6182,-1.5839,-1.5544,-1.4641,-1.4088,-1.3665,-1.1742,0.0,0.0,0.0,0.0,0.0,0.0,0.0,0.0,0.0,-0.3124,-0.2656,-0.0627,0.0,0.0,0.0,0.0,0.0,0.0,0.0,0.0,0.0,0.0,0.0,0.0,0.0,0.0,0.0,0.0,0.0,0.0,0.0,0.0,0.0,0.0,0.0,0.0,0.0,0.0,0.0,0.0,0.0471,0.1489,0.1568,0.2035,0.3046,0.3202,0.3279,0.3279,0.3357,0.3357,0.3357,0.3357,0.3354,0.3344,0.3194,0.319,0.3107,0.2812,0.2678,0.2678,0.2678,0.2744,0.2811,0.2811,0.2878,0.2878,0.2339,0.2471,0.2734,0.1131,0.2598,0.5428,0.0,0.0,0.0,0.0,0.0,0.0,0.0,0.0,0.0,0.0,0.0,0.0,0.0,0.0,0.0,0.0,0.0,0.0,0.0,0.0,-2.2944,-2.3187,-2.1975,-2.0864,-1.9913,-1.9913,-1.952,-1.863,-1.7738,-1.7172,-1.6927,-1.7172,-1.7097,-1.6809,-1.6727,-1.6538,-1.6166,-1.5806,-1.5618,-1.5593,-1.5178,-1.4944,-1.4736,-1.3513,-1.2625,0.0,0.0,0.0,0.0,0.0,0.0,0.0,-0.3748,-0.3124,-0.2656,-0.0627,0.0,0.0,0.0,0.0,0.0,0.0,0.0,0.0,0.0,0.0,0.0,0.0,0.0,0.0,0.0,0.0,0.0,0.0,0.0,0.0,0.0,0.0,0.0,0.0,0.0,0.0,0.0,0.0,0.0471,0.1489,0.1568,0.2035,0.3046,0.3904,0.4373,0.4373,0.5157,0.5628,0.5628,0.5628,0.5496,0.5388,0.5225,0.5095,0.4996,0.3398,0.2678,0.2678,0.2678,0.3078,0.3747,0.3747,0.4151,0.4821,0.4686,0.4686,0.4752,0.4411,0.4749,0.5428,0.0,0.0,0.0,0.0,0.0,0.0,0.0,0.0,0.0,0.0,0.0,0.0,0.0,0.0,0.0,0.0,0.0,0.0,0.0,0.0,0.0,-2.4264,-2.3745,-2.2999,-2.2048,-2.1527,-2.0981,-2.042,-1.9413,-1.863,0.0,0.0,-1.8464,-1.824,-1.7787,-1.7436,-1.7213,-1.6902,-1.6741,-1.6723,-1.6087,-1.586,-1.579,-1.4807,-1.3787,-1.2691,-1.1211,0.0,0.0,0.0,0.0,0.0,0.0,0.0,-0.2812,-0.1254,-0.0392,0.0,0.0,0.0,0.0,0.0,0.0,0.0652,0.0083,0.0417,0.0761,0.0779,0.0345,0.0,0.0,0.0,0.0,0.0,0.0,0.0162,0.0721,0.0791,0.0941,0.1409,0.1488,0.1488,0.1488,0.1488,0.1956,0.2971,0.3051,0.3517,0.4608,0.5157,0.5473,0.5473,0.6022,0.6338,0.6338,0.6338,0.6183,0.6027,0.5874,0.5688,0.5477,0.4448,0.4015,0.4015,0.4015,0.4284,0.4686,0.4686,0.4957,0.5428,0.5428,0.5428,0.5428,0.5428,0.5428,0.5428,0.0,0.0,0.0,0.0,0.0,0.0,0.0,0.0,0.0,0.0,0.0,0.0,0.0,0.0,0.0,0.0,0.0,0.0,0.0,0.0,0.0,-2.5264,-2.5075,-2.442,-2.3294,-2.2403,-2.1886,-2.1735,-2.1011,0.0,0.0,0.0,0.0,-1.9658,-1.8945,-1.8523,-1.8506,-1.8154,-1.8008,-1.794,-1.7139,-1.6853,-1.6715,-1.579,-1.495,-1.4011,-1.2677,-1.1205,-0.9588,-0.8237,0.0,0.0,0.0,0.0,-0.3124,-0.1958,-0.0941,-0.0236,-0.0079,0.0,0.0314,0.0471,0.1193,0.0,0.0727,0.1228,0.1822,0.1822,0.0999,0.0335,0.0502,0.05,0.0496,0.0567,0.0566,0.0882,0.1728,0.188,0.219,0.2968,0.3124,0.3124,0.3124,0.3124,0.3513,0.4611,0.4688,0.5157,0.6257,0.6338,0.6338,0.6338,0.6338,0.6338,0.6338,0.6338,0.6169,0.5986,0.581,0.5596,0.5428,0.5428,0.5428,0.5428,0.5428,0.5428,0.5428,0.5428,0.5428,0.5428,0.5428,0.5422,0.5415,0.5415,0.5411,0.5408,0.0,0.0,0.0,0.0,0.0,0.0,0.0,0.0,0.0,0.0,0.0,0.0,0.0,0.0,0.0,0.0,0.0,0.0,-2.9002,0.0,0.0,-2.6152,-2.5392,-2.412,-2.2253,-2.2103,-2.1593,-2.0789,0.0,0.0,0.0,0.0,0.0,-1.8809,0.0,-1.8437,-1.8086,-1.8037,-1.8008,-1.8008,-1.7862,-1.7794,-1.7725,-1.6784,-1.6349,-1.5852,-1.3165,-1.2004,-1.1421,-0.8675,-0.7706,0.0,0.0,0.0,-0.4139,-0.2192,-0.1489,-0.1176,0.0,0.0,0.1567,0.0,0.282,0.2826,0.0,0.0,0.2917,0.0,0.2088,0.1631,0.2522,0.272,0.2679,0.2671,0.2669,0.2744,0.2891,0.289,0.2968,0.3046,0.3124,0.3124,0.3124,0.3124,0.3513,0.4611,0.4688,0.5157,0.6257,0.6338,0.6338,0.6338,0.6338,0.6338,0.6338,0.6338,0.6115,0.5827,0.5552,0.5466,0.5428,0.5428,0.5428,0.5428,0.5428,0.5428,0.5428,0.5428,0.5428,0.5428,0.5428,0.5404,0.5367,0.5367,0.5415,0.5387,0.0,0.0,0.0,0.0,0.0,0.0,0.0,0.0,0.0,0.0,0.0,0.0,0.0,0.0,0.0,-3.0389,-3.0389,-3.0208,-2.9766,-2.938,-2.8784,-2.7841,-2.695,-2.6133,-2.5238,-2.3627,-2.2627,-2.2188,0.0,0.0,0.0,-1.9307,-1.8994,0.0,0.0,0.0,0.0,-1.8008,-1.8008,-1.8008,-1.8008,-1.8008,-1.794,-1.7579,-1.707,-1.6419,-1.5114,-1.3598,-1.2004,-1.0673,-0.9195,-0.7629,-0.6696,0.0,0.0,0.0,-0.2035,-0.1254,0.047,0.1254,0.188,0.0,0.3513,0.3826,0.3202,0.3591,0.3982,0.3982,0.3626,0.3256,0.3094,0.3067,0.3124,0.3124,0.3124,0.3279,0.3904,0.3982,0.4217,0.4844,0.4921,0.4921,0.4921,0.4921,0.5079,0.555,0.5628,0.5786,0.6261,0.6338,0.6338,0.6338,0.6338,0.6338,0.6338,0.6338,0.6108,0.5796,0.5501,0.5428,0.5428,0.5428,0.5428,0.5428,0.5428,0.5428,0.5425,0.5401,0.5391,0.5387,0.5367,0.5415,0.5661,0.7577,0.8327,0.8306,0.0,0.0,0.0,0.0,0.0,0.0,0.0,0.0,0.0,0.0,0.0,0.0,0.0,0.0,0.0,0.0,-3.1482,-3.1219,-3.0644,-3.0389,-3.0011,-2.938,-2.8298,-2.7591,-2.7365,-2.5075,-2.3661,0.0,0.0,0.0,-1.9277,-1.8848,-1.8584,0.0,-1.8154,-1.8008,0.0,0.0,0.0,0.0,-1.8008,-1.8008,-1.8008,-1.8008,-1.7579,-1.6922,-1.6706,-1.5043,-1.2882,-1.2371,-1.0381,-0.8161,-0.7859,-0.6546,0.0,0.0,0.0,0.0,0.0,0.0,0.2192,0.3279,0.4295,0.4921,0.0,0.0,0.5079,0.0,0.5079,0.4844,0.4062,0.3904,0.3904,0.3904,0.3904,0.4217,0.5002,0.5079,0.5395,0.6183,0.6338,0.6338,0.6338,0.6338,0.6338,0.6338,0.6338,0.6338,0.6338,0.6338,0.6338,0.6338,0.6338,0.6338,0.6338,0.6183,0.603,0.5796,0.5501,0.5491,0.5752,0.5752,0.5752,0.5752,0.5752,0.5885,0.6079,0.604,0.6086,0.6086,0.6055,0.6306,0.7044,0.9627,1.0619,1.0599,0.0,0.0,0.0,0.0,0.0,0.0,0.0,0.0,0.0,0.0,0.0,0.0,-3.1482,-3.1482,-3.1482,-3.1482,-3.1482,-3.1467,-3.1409,-3.0718,-3.0269,-3.0208,-2.862,0.0,-2.6413,-2.5451,0.0,0.0,0.0,0.0,-1.9277,-1.8848,-1.8428,-1.8047,-1.8018,-1.8008,-1.8008,0.0,0.0,0.0,0.0,-1.8008,0.0,-1.8008,-1.794,-1.7794,-1.6922,-1.593,-1.472,-1.2809,-1.0834,-0.9074,-0.8084,-0.7099,-0.6022,0.0,0.0,0.0,0.0,0.2268,0.0,0.4373,0.5392,0.0,0.0,0.0,0.6183,0.6183,0.6183,0.6183,0.618,0.6103,0.6103,0.6103,0.6103,0.618,0.6183,0.6183,0.6257,0.6261,0.6338,0.6338,0.6338,0.6338,0.6338,0.6338,0.6338,0.6338,0.6338,0.6338,0.6338,0.6338,0.6338,0.6338,0.6338,0.5973,0.5817,0.5796,0.5501,0.5815,0.6654,0.6654,0.6654,0.6654,0.6654,0.7111,0.7897,0.7892,0.7892,0.7892,0.7887,0.8899,1.0348,1.056,1.0578,1.0575,0.0,0.0,0.0,0.0,0.0,0.0,0.0,0.0,0.0,0.0,0.0,0.0,0.0,-3.1482,-3.1697,-3.216,-3.2231,-3.2231,-3.2231,-3.148,-3.1087,-3.1087,-2.995,-2.8975,-2.805,-2.6574,0.0,0.0,0.0,-2.0552,-1.9675,-1.8706,-1.8154,-1.8008,-1.8008,-1.8008,-1.8008,-1.8008,0.0,0.0,0.0,0.0,0.0,0.0,0.0,-1.7862,-1.6922,-1.6,-1.5021,-1.3643,-1.1883,-1.0115,-0.9069,-0.8089,-0.678,-0.4368,-0.2659,0.0,0.0,0.0,0.0,0.4453,0.5473,0.6338,0.6338,0.6338,0.649,0.7099,0.7249,0.748,0.8084,0.7176,0.6338,0.6338,0.6338,0.649,0.7176,0.7249,0.748,0.8161,0.8237,0.8237,0.8237,0.7629,0.7249,0.7249,0.6641,0.6338,0.6338,0.6949,0.7249,0.7249,0.7859,0.8237,0.8237,0.7838,0.7566,0.7562,0.7239,0.7246,0.7502,0.7502,0.7832,0.835,0.835,0.7897,0.7242,0.814,0.8323,0.8109,0.9244,1.006,1.0608,1.0608,1.0588,1.0624,0.0,0.0,0.0,0.0,0.0,0.0,0.0,0.0,0.0,0.0,0.0,0.0,0.0,0.0,-3.1796,-3.2547,-3.2788,-3.2841,-3.2586,-3.212,-3.1739,-3.1539,-3.0718,-2.9889,-2.9002,-2.7341,0.0,0.0,0.0,0.0,0.0,-1.8594,-1.8008,-1.8008,-1.8008,-1.8008,0.0,0.0,0.0,-1.8008,0.0,0.0,-1.8008,0.0,0.0,-1.7862,-1.6922,-1.6,-1.5021,-1.4027,-1.2191,-1.0265,-0.9895,-0.8912,-0.7157,-0.4053,0.0,0.0,0.047,0.0,0.0,0.0,0.4999,0.5867,0.6183,0.6338,0.649,0.7176,0.7553,0.8012,0.8694,0.8008,0.7326,0.7326,0.7326,0.7557,0.8237,0.8313,0.8542,0.9221,0.9296,0.9296,0.9296,0.8694,0.8313,0.8313,0.7706,0.7326,0.7326,0.7936,0.8313,0.8313,0.8917,0.9296,0.9296,0.8851,0.8624,0.8619,0.8174,0.8156,0.842,0.842,0.8748,0.9338,0.9594,0.9064,0.8081,0.9052,0.9227,0.9012,1.0155,1.0624,1.0624,1.0624,1.0624,1.0624,0.0,0.0,0.0,0.0,0.0,0.0,0.0,0.0,0.0,0.0,0.0,0.0,0.0,0.0,0.0,-3.2586,-3.3235,-3.3339,-3.2695,-3.2641,-3.2272,-3.1582,-3.0763,-2.995,-2.9066,-2.7669,0.0,0.0,0.0,0.0,0.0,0.0,-1.8008,-1.8008,-1.8008,-1.8008,-1.8008,0.0,-1.8008,-1.8008,0.0,-1.8008,-1.8008,0.0,-1.8008,-1.7862,-1.6922,-1.6,-1.5021,-1.4027,-1.1749,-0.9523,0.0,0.0,0.0,0.0,0.0,0.0,0.0,0.0,0.0,0.0,0.0,0.0,0.6099,0.0,0.6338,0.6416,0.7176,0.7859,0.7931,0.8765,0.9372,0.9372,0.9372,0.9296,0.9372,0.9372,0.9372,0.9372,0.9372,0.9372,0.9372,0.9372,0.9372,0.9372,0.9296,0.9296,0.9296,0.9296,0.9372,0.9372,0.9372,0.9372,0.9372,0.8923,0.8699,0.8689,0.8241,0.8549,0.9338,0.9338,0.9338,0.9402,1.0238,1.0624,1.0624,1.0624,1.0624,1.0624,1.0624,1.0624,1.0624,1.0624,1.0624,1.0624,0.0,0.0,0.0,0.0,0.0,0.0,0.0,0.0,0.0,0.0,0.0,0.0,-3.2971,-3.3463,-3.382,-3.4037,-3.4235,-3.4235,-3.4087,-3.3145,-3.2492,-3.2327,-3.1552,-3.0777,-2.995,-2.8532,-2.7082,0.0,0.0,0.0,0.0,0.0,0.0,0.0,-1.8008,-1.8008,-1.8008,-1.8008,0.0,-1.8008,-1.8008,-1.8008,0.0,0.0,-1.8008,-1.7862,-1.6922,-1.6,-1.5021,-1.4027,-1.2718,-1.1248,0.0,0.0,0.0,0.0,0.0,0.0,-0.1488,0.0,0.0,0.0,0.0,0.0,0.6257,0.6338,0.6718,0.8161,0.8689,0.9296,1.0795,1.1248,1.1477,1.1477,1.0276,0.9523,1.0265,1.0415,1.064,1.1397,1.1477,1.1477,1.1477,1.0789,1.0415,0.0,0.9744,0.9296,0.9296,0.9965,1.0714,1.1477,1.1477,1.1477,1.1477,1.0929,1.0654,1.0648,1.0105,1.004,1.0238,1.0238,1.0238,1.0238,1.0498,1.0624,1.0624,1.0624,1.0624,1.0624,1.0624,1.0624,1.0624,1.0624,1.0624,1.0624,0.0,0.0,0.0,0.0,0.0,0.0,0.0,0.0,0.0,0.0,0.0,0.0,0.0,-3.4186,-3.4576,-3.4576,-3.4847,-3.4894,-3.4624,-3.3582,-3.2895,-3.2586,-3.1894,-3.1087,-3.0329,-2.8693,-2.7236,0.0,0.0,0.0,0.0,0.0,0.0,0.0,0.0,0.0,0.0,0.0,0.0,0.0,-1.8008,0.0,0.0,-1.8008,-1.8008,-1.7862,-1.6922,-1.6219,-1.5579,-1.4171,-1.3098,-1.1929,-0.99,0.0,0.0,0.0,0.0,0.0,0.0,0.0,0.0,0.0,0.0,0.0,0.6103,0.6641,0.7249,0.8466,0.9367,1.0265,1.1465,1.2003,1.2305,1.2305,1.1329,1.0726,1.1316,1.1465,1.162,1.2224,1.2305,1.2305,1.2305,1.1768,1.1465,1.1465,1.087,1.0571,1.0571,1.1093,1.1694,1.2298,1.2305,1.2305,1.2305,1.1717,1.1423,1.1416,1.0835,1.0624,1.0624,1.0624,1.0624,1.0624,1.0624,1.0624,1.0624,1.0624,1.0624,1.0624,1.0624,1.0624,1.0624,1.0624,1.0624,1.0624,0.0,0.0,0.0,0.0,0.0,0.0,0.0,0.0,0.0,0.0,0.0,0.0,0.0,0.0,0.0,-3.4736,-3.5253,-3.5362,-3.4736,-3.4087,-3.3443,-3.2841,-3.2064,-3.1218,-3.0453,-2.8477,-2.7019,0.0,0.0,0.0,0.0,0.0,0.0,0.0,0.0,0.0,0.0,0.0,0.0,-1.7862,-1.794,-1.8008,0.0,0.0,-1.8008,-1.7872,-1.707,-1.6636,-1.614,-1.4235,-1.3025,-1.2003,-1.0051,-0.9372,0.0,0.0,-0.49,0.0,0.0,0.0,0.0,0.0,0.3124,0.0,0.5709,0.6945,0.7629,0.7783,0.9286,1.0634,1.0783,1.162,1.2305,1.2305,1.2305,1.2305,1.2305,1.2305,1.2305,1.2305,1.2305,1.2305,1.2305,1.2305,1.2305,1.2305,1.2305,1.2305,1.2305,1.2305,1.2305,1.2305,1.2305,1.2305,1.2305,1.1717,1.1423,1.1416,1.0835,1.0624,1.0624,1.0624,1.0624,1.0744,1.0624,1.0618,1.0744,1.0744,1.0681,1.0624,1.0624,1.0624,1.0624,1.0624,1.0624,1.0624,-3.3928,0.0,0.0,0.0,0.0,0.0,0.0,0.0,0.0,0.0,0.0,0.0,0.0,0.0,0.0,0.0,-3.5515,-3.5515,-3.5407,-3.48,-3.4333,-3.4235,-3.3039,-3.2066,-3.1335,-2.9281,-2.7583,0.0,0.0,0.0,0.0,0.0,0.0,0.0,0.0,0.0,0.0,0.0,0.0,-1.6922,-1.7716,-1.8008,-1.8008,-1.8008,-1.8008,-1.8008,-1.7794,-1.6793,-1.5163,-1.323,-1.2445,-1.2077,-1.0864,-0.9965,-0.9069,-0.7846,0.0,0.0,0.0,0.0,0.0,0.0,0.3127,0.0,0.4924,0.586,0.6795,0.7629,0.8765,0.982,1.0634,1.162,1.2305,1.2305,1.2305,1.2305,1.2305,1.2305,1.2305,1.2305,1.2305,1.2305,1.2305,1.2305,1.2305,1.2305,1.2305,1.2305,1.2305,1.2305,1.2305,1.2305,1.2305,1.2305,1.2305,1.1717,1.1423,1.1416,1.0835,1.0624,1.0624,1.0624,1.0926,1.1531,1.0863,1.0989,1.1593,1.1593,1.1163,1.0624,1.0624,1.0624,1.0624,1.0624,1.0624,1.0624,-3.3532,0.0,0.0,0.0,0.0,0.0,0.0,0.0,0.0,0.0,0.0,0.0,0.0,0.0,0.0,0.0,0.0,0.0,-3.5622,-3.4988,-3.4576,-3.4576,-3.3339,-3.2276,-3.1595,-2.95,-2.7924,0.0,0.0,0.0,0.0,0.0,0.0,0.0,0.0,0.0,0.0,0.0,-1.7725,-1.7354,-1.7794,0.0,-1.7354,-1.7794,-1.8008,-1.8008,-1.8008,-1.6793,-1.495,-1.352,-1.3025,-1.2806,-1.1835,-1.0852,-0.9788,-0.8836,-0.6689,-0.4608,0.0,0.0,0.0,0.0547,0.2341,0.0,0.0,0.5931,0.7173,0.7706,0.8618,0.9599,1.0634,1.1236,1.1694,1.2224,1.2305,1.2305,1.2305,1.2305,1.2305,1.2305,1.2305,1.2305,1.2305,1.2305,1.2305,1.2305,1.2305,1.2305,1.2305,1.2305,1.2305,1.2305,1.2305,1.2305,1.2305,1.1717,1.1423,1.1416,1.0835,1.0624,1.0624,1.0624,1.0807,1.1226,1.1226,1.1406,1.1834,1.2205,1.2151,1.1717,1.092,1.0622,1.0574,1.0573,1.0615,1.0567,-3.3266,0.0,0.0,0.0,0.0,0.0,0.0,0.0,0.0,0.0,0.0,0.0,0.0,0.0,0.0,0.0,0.0,0.0,-3.5622,-3.5098,-3.4717,-3.4584,-3.3441,-3.2369,-3.1384,-2.9574,-2.8196,0.0,0.0,0.0,0.0,0.0,0.0,0.0,0.0,0.0,0.0,0.0,0.0,-1.751,0.0,-1.7354,-1.6922,-1.7716,-1.8008,-1.794,-1.7579,-1.6515,-1.5021,-1.4027,-1.3673,-1.36,-1.2806,-1.1729,-1.0582,-0.9804,-0.7375,-0.4999,-0.4993,-0.3437,-0.1643,-0.0546,0.1248,0.3125,0.0,0.0,0.0,0.7476,0.8313,0.9296,1.034,1.0634,1.1162,1.215,1.2305,1.2305,1.2305,1.2305,1.2372,1.2519,1.2445,1.2372,1.2519,1.2592,1.2519,1.2298,1.2445,1.2519,1.2305,1.2305,1.2305,1.2305,1.2305,1.2305,1.2305,1.1717,1.1423,1.1416,1.0835,1.0624,1.0624,1.0624,1.0744,1.1052,1.1406,1.1772,1.2081,1.2757,1.3078,1.3025,1.1606,1.0875,1.0655,1.1316,1.1507,1.1487,-3.4145,-3.36,0.0,0.0,0.0,0.0,0.0,0.0,0.0,0.0,0.0,0.0,0.0,0.0,0.0,0.0,0.0,0.0,-3.5622,-3.5515,-3.5211,-3.4553,-3.3793,-3.2528,-3.0655,-2.979,-2.8484,0.0,0.0,0.0,0.0,0.0,0.0,0.0,-1.9166,0.0,0.0,0.0,-1.701,0.0,-1.6428,-1.7217,0.0,-1.794,-1.8008,-1.7794,-1.6088,-1.5376,-1.5021,0.0,-1.3673,-1.3673,-1.36,-1.2231,-1.0724,-1.0622,-0.8523,-0.6096,-0.6063,-0.4513,-0.2657,-0.1644,0.0157,0.2035,0.3047,0.0,0.5309,0.6254,0.0,0.8313,0.9296,0.0,0.0,1.215,1.2305,1.2305,1.2305,1.2305,1.2592,1.3455,1.2806,1.2666,1.3455,1.3528,1.3171,1.2372,1.3098,1.3164,1.2372,1.2305,1.2305,1.2305,1.2305,1.2305,1.2305,1.1717,1.1423,1.1416,1.0835,1.0624,1.0624,1.0624,1.1358,1.2642,1.1296,1.1538,1.2879,1.2948,1.3302,1.3613,1.2956,1.1859,1.0927,1.3787,1.4854,1.4836,-3.3973,-3.3612,0.0,0.0,0.0,0.0,0.0,0.0,0.0,0.0,0.0,0.0,0.0,0.0,0.0,0.0,0.0,-3.4776,-3.437,-3.4336,0.0,-3.388,-3.32,-3.2282,-3.1055,-3.0022,-2.8897,-2.7665,-2.6133,0.0,0.0,0.0,0.0,0.0,-1.9278,0.0,-1.6446,0.0,-1.7226,0.0,0.0,-1.6853,0.0,-1.7217,-1.7217,-1.7001,-1.5658,-1.4807,-1.4171,0.0,-1.3665,0.0,0.0,0.0,0.0,-1.1137,-0.9059,-0.7173,-0.7153,-0.5137,-0.2968,-0.2579,-0.0391,0.0,0.2113,0.0,0.4844,0.5315,0.0,0.0,0.0,0.0,0.0,0.0,1.2305,1.2305,1.2305,1.2732,1.3237,1.3673,1.3382,1.3244,1.3673,1.3673,1.331,1.2372,1.3171,1.3317,1.2378,1.2305,1.2305,1.2305,1.2305,1.2305,1.2305,1.1717,1.1423,1.1416,1.1332,1.1288,1.1288,1.1787,1.2336,1.3009,1.2757,1.3061,1.3726,1.4213,1.4538,1.4693,1.4469,1.4004,1.3569,1.4911,1.5415,1.5388,-3.4006,0.0,0.0,0.0,0.0,0.0,0.0,0.0,0.0,0.0,0.0,0.0,-3.5622,-3.5436,0.0,0.0,-3.432,-3.3964,-3.344,-3.3406,-3.3322,-3.3102,-3.2627,-3.1957,-3.1127,-3.0019,-2.9136,-2.8511,0.0,0.0,0.0,0.0,0.0,0.0,0.0,-1.8247,-1.5974,0.0,-1.6932,-1.579,-1.579,-1.579,-1.586,-1.614,-1.621,-1.607,-1.5155,-1.4314,-1.36,-1.2879,-1.3593,0.0,-1.2785,-1.2524,-1.2469,0.0,0.0,-0.7161,-0.8008,0.0,0.0,0.0,0.0,0.0,0.0,0.0,0.0,0.0,0.5315,0.0,0.0,0.0,0.0,0.0,0.0,1.2305,1.2305,1.3091,1.381,1.4099,1.4307,1.4378,0.0,1.4314,1.3954,1.2813,1.36,1.3593,1.2372,1.2305,1.2305,1.2305,1.2305,1.2305,1.2305,1.1717,1.1423,1.1416,1.1461,1.1593,1.1834,1.2389,1.2879,1.3373,1.3726,1.4025,1.4273,1.4805,1.505,1.5108,1.5294,1.541,1.543,1.538,1.54,1.541,-3.4674,-3.388,0.0,0.0,0.0,0.0,0.0,0.0,0.0,0.0,0.0,0.0,0.0,0.0,0.0,0.0,0.0,-3.344,-3.3406,-3.3406,-3.3085,-3.2381,-3.2307,-3.1691,-3.0342,-2.9705,-2.912,-2.8511,0.0,0.0,0.0,0.0,0.0,0.0,0.0,-1.9564,-1.7794,-1.6954,-1.5508,-1.3818,-1.3818,-1.3818,-1.389,0.0,-1.5234,-1.5092,-1.4099,0.0,0.0,-1.3673,-1.3673,0.0,0.0,0.0,0.0,0.0,0.0,0.0,0.0,0.0,0.0,-0.5591,0.0,0.0,0.0,0.0,0.2271,0.0,0.0,0.0,0.0,0.0,0.0,0.0,0.0,0.0,0.0,1.3091,1.4027,1.5021,1.593,1.614,1.5234,1.5956,1.5675,1.381,1.4593,1.4307,1.2372,1.2305,1.2305,1.2305,1.2305,1.2305,1.2305,1.1717,1.1423,1.1416,1.09,1.1045,1.1834,1.1834,1.2679,1.4145,1.3373,1.3485,1.4213,1.4213,1.4273,1.4332,1.5108,1.541,1.541,1.542,1.542,1.541,0.0,0.0,0.0,0.0,0.0,0.0,0.0,-3.4404,0.0,-3.3667,-3.432,-3.4543,0.0,-3.3681,-3.3575,-3.3068,-3.2814,-3.2459,-3.1985,-3.1935,-3.1833,-3.1562,-3.1562,-3.1365,-3.0895,-2.9892,-2.9316,0.0,0.0,0.0,0.0,0.0,0.0,0.0,0.0,-1.9204,0.0,0.0,0.0,0.0,0.0,-1.3673,-1.3745,0.0,-1.4243,-1.4171,-1.381,-1.331,0.0,-1.2732,-1.3171,-1.352,-1.2572,-1.2024,-1.1483,-1.0553,-0.8595,-0.6846,0.0,0.0,-0.3278,-0.3973,0.0,0.0,0.0,0.0,0.0,0.0,0.0,0.0,0.0,0.0,0.0,0.0,0.0,0.0,0.0,1.4601,1.5956,1.6941,1.6784,1.6498,1.614,1.5869,1.51,1.381,1.4027,1.3665,1.2372,1.2305,1.2305,1.2305,1.2305,1.2305,1.2305,1.1717,1.1423,1.1416,1.1396,1.1531,1.1826,1.2923,1.3666,1.4204,1.451,1.4746,1.4991,1.4991,1.4991,1.4991,1.5294,1.541,1.541,1.541,1.541,1.541,-3.4714,0.0,0.0,0.0,0.0,0.0,0.0,0.0,0.0,-3.2999,-3.3389,-3.3384,-3.2318,0.0,-3.2197,-3.1715,-3.1633,-3.1381,-3.0912,-3.0878,-3.0975,-3.119,-3.0797,-3.0658,-3.0878,-2.9717,-2.9088,-2.9088,0.0,-2.6602,0.0,0.0,0.0,0.0,0.0,-1.9183,-1.6825,-1.6305,-1.5013,0.0,0.0,-1.3164,0.0,0.0,-1.3382,-1.3673,0.0,-1.2806,-1.2305,-1.2305,-1.2739,-1.2945,-1.162,-1.123,-1.0908,-0.9578,-0.799,-0.6615,-0.6287,-0.4665,0.0,-0.3583,-0.2577,0.0,-0.2425,0.0,0.0234,0.0,0.0,0.0,0.0,0.0,0.0,0.0,0.0,0.0,0.0,1.5313,1.6594,1.7872,1.7501,1.6991,1.6636,1.6358,1.5517,1.3818,1.4027,1.3665,1.2372,1.2305,1.2305,1.2305,1.2305,1.2305,1.2305,1.1717,1.156,1.1894,1.1838,1.2074,1.2679,1.3726,1.4392,1.4688,1.5167,1.541,1.541,1.541,1.541,1.541,1.541,1.541,1.541,1.541,1.541,1.541,-3.4754,-3.4423,0.0,0.0,-3.307,0.0,0.0,0.0,-3.3352,0.0,-3.2859,-3.2142,-3.1533,-3.0829,-3.0475,-3.0475,-3.0326,-3.0251,-3.0251,-3.0251,-3.0518,-3.1095,-3.0038,-2.9673,-3.0251,-2.9088,-2.8511,-2.8511,0.0,0.0,0.0,0.0,0.0,0.0,-2.1353,0.0,-1.759,-1.5939,-1.4091,-1.2305,-1.2305,-1.2305,-1.2298,-1.2224,-1.2806,-1.3448,-1.2512,-1.2224,-1.2298,-1.2224,-1.215,-1.1848,-0.9895,-0.9296,-0.8841,-0.6945,-0.555,-0.4916,-0.5825,-0.459,-0.3276,-0.419,-0.3037,0.0,0.0,0.0,0.0549,0.0,0.0,0.0,0.0,0.0,0.0,0.0,0.0,0.0,0.0,0.0,1.5948,1.7725,1.794,1.7579,1.6775,1.7354,1.6724,1.3954,1.4593,1.4307,0.0,1.2372,1.2378,1.2305,1.2305,1.2305,1.2305,1.1717,1.1833,1.2639,1.2093,1.2618,1.4085,1.4154,1.4628,1.5352,1.5352,1.541,1.541,1.541,1.541,1.541,1.541,1.541,1.541,1.541,1.541,1.541,-3.4754,-3.426,-3.3652,0.0,-3.2862,-3.3035,0.0,0.0,0.0,0.0,-3.114,-3.0541,-2.9406,-2.9515,-2.9662,-2.9662,-2.9637,0.0,0.0,0.0,0.0,-2.9848,-2.9585,-2.9451,-2.9629,-2.8873,-2.8511,-2.8511,0.0,0.0,-2.6229,0.0,0.0,0.0,0.0,0.0,-1.759,-1.5939,-1.4091,-1.2305,-1.2305,-1.2278,-1.2171,0.0,-1.1286,-1.1476,-1.1224,-1.1694,-1.2077,-1.0576,-1.0571,-1.0938,-0.9669,-0.877,-0.8084,-0.7553,-0.616,-0.4608,-0.4053,-0.2968,-0.2034,-0.2344,-0.1956,-0.1566,0.0,0.0,0.0,0.0,0.0,0.0,0.0,0.0,0.0,0.0,0.0,0.0,0.0,1.5296,1.6428,1.6922,1.6922,1.7139,1.7579,1.6585,1.5587,1.4879,1.4378,1.3528,1.2372,1.2952,1.3025,1.2298,1.2305,1.2305,1.2305,1.1717,1.1491,1.1758,1.1774,1.2012,1.2443,1.3657,1.4323,1.4569,1.5108,1.541,1.541,1.541,1.541,1.541,1.541,1.541,1.541,1.541,1.541,1.541,-3.4793,-3.4208,0.0,-3.3148,0.0,0.0,-3.2389,-3.2085,0.0,-3.0631,-3.022,0.0,-2.8605,-2.8543,-2.8622,-2.8622,-2.8857,0.0,-2.9012,0.0,0.0,-2.9406,-2.8904,-2.8732,-2.9012,-2.8415,-2.8091,-2.8091,0.0,0.0,-2.6014,0.0,0.0,0.0,0.0,-1.9782,-1.8155,-1.566,-1.3433,-1.162,-1.162,-1.1378,0.0,-1.0335,-1.0099,-1.0007,-0.9653,-1.0115,-1.0801,-0.9674,-0.9669,-0.9965,-0.8993,-0.8237,-0.7629,-0.67,-0.5616,-0.4375,-0.2891,-0.2035,-0.1489,-0.102,-0.0863,-0.0784,-0.0312,0.0234,0.1092,0.0,0.39,0.5148,0.0,0.0,0.0,0.0,0.0,0.0,0.0,1.4665,1.5649,1.6498,1.621,1.6507,1.7872,1.6298,1.5021,1.4593,1.4458,1.3738,0.0,1.3171,1.3237,1.2305,1.2739,1.2732,1.2305,1.2137,1.2037,1.1962,1.1838,1.2197,1.287,1.3786,1.4392,1.4756,1.5167,1.541,1.541,1.541,1.541,1.541,1.541,1.541,1.541,1.541,1.541,1.541,-3.4754,-3.4184,0.0,0.0,0.0,0.0,0.0,-3.1141,0.0,-3.0534,0.0,-2.895,-2.8463,-2.7894,-2.7625,-2.7625,-2.8091,-2.8367,-2.8367,-2.8367,-2.8606,-2.9134,-2.8174,-2.7795,-2.8222,-2.7745,-2.7473,0.0,0.0,0.0,0.0,0.0,0.0,0.0,0.0,0.0,0.0,-1.4947,-1.2405,-1.0565,-1.0565,-0.9965,-0.9069,-0.9069,-0.8993,-0.877,-0.7936,-0.8313,-0.9296,-0.8993,-0.8993,-0.8917,-0.7774,-0.7395,-0.7007,-0.5074,-0.4375,-0.3908,-0.2115,-0.1489,-0.1176,-0.0236,0.0079,0.0471,0.1567,0.188,0.2582,0.453,0.4921,0.5693,0.838,0.0,0.0,0.0,0.0,0.0,0.0,1.36,1.4307,1.6,1.5508,0.0,1.7442,1.6018,1.4736,1.4099,1.4665,1.4235,0.0,0.0,1.3237,1.2305,1.3098,1.3098,1.2305,1.2556,1.2646,1.2504,1.203,1.2565,1.4034,1.4145,1.4628,1.541,1.541,1.541,1.541,1.541,1.541,1.541,1.541,1.541,1.541,1.541,1.541,1.541,-3.4405,0.0,0.0,0.0,0.0,-3.2018,-3.0038,-3.0238,-3.0606,-3.0507,-2.8995,-2.7894,-2.776,-2.766,-2.7625,-2.7625,-2.771,0.0,0.0,0.0,0.0,-2.7894,-2.771,-2.7342,-2.6864,-2.6774,-2.6669,0.0,0.0,0.0,0.0,0.0,0.0,0.0,0.0,0.0,-1.4521,-1.3078,0.0,-0.9593,-0.9593,-0.8993,-0.8084,-0.8084,-0.7557,-0.6795,-0.6641,-0.7706,-0.9069,-0.7403,-0.7403,-0.7702,-0.5844,-0.5229,-0.4993,-0.3746,-0.2813,-0.2036,-0.1724,-0.0941,-0.0236,-0.0079,0.0628,0.1567,0.2579,0.3515,0.4533,0.5786,0.6025,0.6177,0.6718,0.0,0.0,0.0,0.0,0.0,0.0,1.3237,1.3818,1.4163,1.4027,1.4386,1.5587,1.4665,1.4522,1.6,1.4807,1.381,0.0,0.0,1.3237,0.0,1.2445,1.2445,0.0,0.0,1.1628,1.1621,1.1774,1.2328,1.3243,1.3906,1.4628,1.541,1.541,1.541,1.541,1.541,1.541,1.541,1.541,1.541,1.541,1.541,1.541,1.541,-3.4529,0.0,0.0,0.0,0.0,0.0,0.0,-2.9585,-2.9438,-2.9438,-2.8664,-2.8042,-2.8042,-2.7444,-2.7188,-2.7575,-2.6916,-2.6602,-2.6982,-2.6654,-2.6481,-2.6481,-2.6481,-2.6269,-2.596,-2.5494,-2.5494,-2.596,0.0,0.0,0.0,0.0,0.0,0.0,0.0,-1.6207,0.0,0.0,0.0,-0.8542,-0.8542,-0.7936,-0.7022,-0.7022,-0.6402,-0.5473,-0.5473,-0.5767,-0.6056,-0.5619,-0.5777,-0.5922,-0.437,-0.3904,-0.3671,-0.2657,-0.1957,-0.1489,-0.0941,-0.0392,0.0157,0.0706,0.1254,0.2036,0.3593,0.4295,0.5002,0.6103,0.6338,0.649,0.6945,0.8313,0.0,0.0,0.0,0.0,0.0,1.2659,1.3164,1.3673,1.3237,1.3593,1.5092,1.3882,1.3593,1.5013,1.4235,1.3455,0.0,0.0,1.3237,0.0,0.0,0.0,1.2305,0.0,1.2261,1.2098,1.2006,1.2554,1.3666,1.4025,1.4628,1.541,1.541,1.541,1.541,1.541,1.541,1.541,1.541,1.541,1.541,1.541,1.541,1.5439,-3.4423,-3.3732,0.0,0.0,-3.1489,-3.0683,-2.9995,-2.8948,-2.8288,-2.8288,-2.8158,-2.8012,-2.7849,-2.6886,-2.6428,-2.682,-2.5972,-2.555,-2.5957,-2.5605,-2.5329,-2.5134,-2.5134,-2.4953,-2.46,-2.3948,-2.3806,0.0,0.0,0.0,0.0,0.0,0.0,0.0,0.0,0.0,0.0,0.0,-0.9246,-0.748,-0.7242,-0.663,-0.5944,-0.5709,-0.5079,-0.4373,-0.4373,-0.3826,-0.3202,-0.3828,-0.4217,-0.4139,-0.3125,-0.2812,-0.2579,-0.1567,-0.1097,-0.0705,0.0078,0.0471,0.0862,0.1723,0.2115,0.266,0.4297,0.4844,0.5315,0.6103,0.6338,0.6644,0.7629,0.8618,0.0,0.0,0.0,0.0,0.0,1.215,1.2592,1.331,1.2732,1.2872,1.445,1.3237,1.2592,1.3382,1.3382,1.3171,1.2666,0.0,0.0,0.0,0.0,1.3025,1.2305,0.0,1.2826,1.2436,1.2291,1.2838,1.3965,1.4145,1.4628,1.541,1.541,1.541,1.541,1.541,1.541,1.541,1.541,1.541,1.541,1.541,1.5469,1.5615,0.0,0.0,0.0,0.0,0.0,-3.058,-2.9581,-2.834,-2.751,-2.751,-2.7027,-2.6428,-2.5769,-2.5563,-2.519,-2.4506,-2.4995,-2.5065,-2.4349,-2.5009,-2.5065,-2.4235,-2.4235,-2.3573,-2.2079,-2.1945,-2.1578,0.0,0.0,-2.1611,0.0,0.0,0.0,0.0,0.0,0.0,0.0,-0.944,-0.8192,-0.6335,-0.5389,-0.4921,-0.4766,-0.3748,-0.3357,-0.3279,-0.3279,-0.3202,-0.2968,-0.2192,-0.2503,-0.3046,-0.2035,-0.1723,-0.1568,-0.0471,0.0549,0.1332,0.1411,0.2112,0.2812,0.2968,0.3671,0.4453,0.4686,0.547,0.618,0.6261,0.6338,0.6644,0.7629,0.8618,0.9296,0.0,0.0,0.0,0.0,1.1694,1.2305,1.2445,1.2378,1.2372,1.2519,1.2445,1.2372,1.2445,1.2445,1.2732,0.0,0.0,0.0,1.2305,1.2372,1.2372,1.2305,1.2155,1.1857,1.156,1.1963,1.2522,1.313,1.3855,1.4628,1.541,1.541,1.541,1.541,1.541,1.541,1.541,1.541,1.541,1.541,1.541,1.5664,1.6064,0.0,0.0,0.0,0.0,0.0,0.0,0.0,-2.7217,-2.6342,-2.4942,-2.537,-2.5728,-2.5453,-2.4557,-2.3987,-2.4107,-2.3141,-2.2554,-2.266,-2.2541,-2.2384,-2.2005,-2.1478,-2.1116,-2.1032,-1.9371,-1.8871,0.0,0.0,0.0,0.0,0.0,0.0,0.0,0.0,-1.0319,-0.9065,-0.7263,-0.6063,-0.5237,-0.4139,-0.3748,-0.3671,-0.3279,-0.2735,-0.219,-0.219,-0.1407,-0.0235,0.0157,-0.0782,-0.2035,-0.0941,-0.0235,0.0392,0.0862,0.1722,0.2501,0.2501,0.2812,0.3279,0.3904,0.4373,0.4844,0.555,0.6022,0.6338,0.6338,0.6795,0.748,0.8542,0.8993,0.9674,1.0875,0.0,0.0,0.0,0.0,1.2305,1.2305,1.2305,1.2305,1.2305,1.2305,1.2305,1.2305,1.2305,1.2445,0.0,0.0,0.0,1.2305,0.0,1.2305,1.2305,1.2184,1.2175,1.2173,1.289,1.3435,1.3734,1.4569,1.5108,1.541,1.541,1.541,1.541,1.541,1.541,1.541,1.541,1.541,1.541,1.541,1.5693,1.6133,-3.1387,0.0,-3.0387,0.0,-2.8714,-2.7829,-2.6468,-2.5564,-2.4381,-2.2435,-2.2796,-2.3467,-2.3916,-2.2987,-2.2372,-2.2673,-2.1174,-2.032,-2.0561,-2.0083,-1.9662,-1.9401,-1.8757,0.0,-1.9027,-1.7086,-1.6528,-1.7591,-1.7484,0.0,0.0,0.0,0.0,0.0,-0.9468,-0.8165,-0.7715,-0.5286,-0.4217,-0.4139,-0.3047,-0.2657,-0.2657,-0.2345,-0.1564,-0.0627,-0.0627,0.047,0.2035,0.2035,0.1017,-0.0078,0.0705,0.141,0.2035,0.2035,0.2735,0.3591,0.3591,0.3956,0.4471,0.4944,0.5222,0.55,0.6046,0.6384,0.6736,0.7088,0.7783,0.8537,0.9518,0.9744,1.0196,1.162,0.0,0.0,0.0,1.2077,1.2305,1.2305,1.2305,1.2305,1.2305,1.2305,1.2305,1.2305,1.2305,1.2305,0.0,0.0,0.0,0.0,0.0,0.0,1.2305,1.2305,1.2476,1.2855,1.3549,1.4081,1.4445,1.5107,1.541,1.541,1.541,1.541,1.541,1.541,1.541,1.541,1.541,1.541,1.543,1.5557,1.5879,1.6328,-2.9007,-2.8485,-2.797,-2.751,-2.6432,-2.5619,-2.5619,-2.332,-2.1249,-2.0419,-1.9098,-1.8794,-2.0467,-2.0655,-2.0268,-1.9431,-1.9259,-1.8889,-1.7986,-1.7831,-1.734,0.0,0.0,-1.6061,-1.5296,-1.5234,-1.4736,-1.3738,0.0,0.0,-1.2291,0.0,-1.0261,-0.914,-0.711,-0.5678,-0.4686,-0.3593,-0.3124,-0.3046,-0.2035,-0.1646,-0.1489,-0.0471,0.0628,0.1568,0.1568,0.219,0.3046,0.3046,0.3046,0.3044,0.3046,0.3046,0.3046,0.3046,0.3826,0.4686,0.4686,0.5967,0.7048,0.6176,0.6496,0.6873,0.6022,0.6641,0.7847,0.9025,0.9296,0.9593,1.0565,1.0783,1.0783,1.0783,0.0,0.0,0.0,1.1694,0.0,1.2305,1.2305,1.2305,1.2305,1.2305,1.2305,1.2305,1.2305,0.0,0.0,0.0,0.0,1.2305,1.2305,0.0,1.2305,1.2305,1.2652,1.3322,1.3727,1.4216,1.4914,1.5241,1.541,1.541,1.541,1.541,1.541,1.541,1.541,1.541,1.541,1.541,1.5469,1.5898,1.6338,1.6787,-2.803,-2.7459,-2.6841,-2.6253,-2.5483,-2.4442,-2.3035,-2.1588,-2.0046,-1.8147,-1.701,-1.6344,-1.6337,-1.6864,-1.7154,0.0,-1.6492,-1.6079,0.0,-1.532,-1.4795,-1.4466,-1.3237,-1.2659,-1.31,-1.1838,-1.1347,-1.1624,0.0,0.0,0.0,-0.8711,-0.7295,-0.5038,-0.4353,-0.3898,-0.3515,-0.2503,-0.2113,-0.1957,-0.0941,-0.0078,0.0627,0.0941,0.1722,0.2657,0.2657,0.3281,0.4217,0.4217,0.501,0.5989,0.5989,0.5089,0.4185,0.4782,0.5625,0.6438,0.7082,0.7194,0.7233,0.7583,0.733,0.7149,0.7491,0.7819,0.8241,0.86,0.9389,1.0166,1.0452,1.1267,1.1848,1.1848,1.2077,0.0,1.1848,0.0,1.2305,1.2305,1.2305,1.2305,1.2305,1.2305,1.2305,1.2305,1.2305,0.0,0.0,0.0,0.0,0.0,1.2305,0.0,1.2305,1.2305,1.2652,1.3329,1.3727,1.4345,1.525,1.5352,1.541,1.541,1.541,1.541,1.541,1.541,1.541,1.541,1.541,1.5596,1.5879,1.6066,1.6533,1.7197,-2.5766,-2.5087,-2.4266,-2.3087,-2.2314,-2.1263,-1.9333,-1.8125,-1.6729,-1.4604,-1.3702,-1.2844,-1.2007,-1.2417,0.0,-1.472,-1.3723,-1.3164,-1.3374,-1.2478,-1.1886,-1.1886,-1.0831,-1.0439,-1.107,-0.9466,0.0,-0.959,-0.882,-0.7748,-0.6449,-0.6076,-0.4873,-0.3046,-0.2735,-0.2503,-0.2501,-0.141,-0.0784,-0.0313,0.0314,0.1254,0.219,0.219,0.2815,0.3671,0.3671,0.4349,0.5163,0.5163,0.6125,0.724,0.724,0.6607,0.5985,0.6619,0.7144,0.7708,0.8263,0.8209,0.8082,0.829,0.8093,0.8128,0.8753,0.8912,0.9002,0.9436,1.0219,1.0762,1.0762,1.1501,1.2138,1.2138,1.2231,1.2305,1.2305,1.2305,1.2305,1.2305,1.2305,1.2305,1.2305,1.2305,1.2305,0.0,0.0,0.0,0.0,0.0,1.2305,1.2305,1.2305,1.2305,1.2305,1.2305,1.2853,1.3995,1.4664,1.5114,1.541,1.541,1.541,1.541,1.541,1.541,1.541,1.541,1.541,1.543,1.5586,1.582,1.6164,1.6498,1.6904,1.7402,-2.2585,-2.1797,-2.0726,-1.8606,-1.7706,-1.6754,-1.5005,-1.362,-1.2109,-1.0327,-0.9448,-0.8745,-0.7882,-0.7757,-0.8935,-1.2028,0.0,0.0,-1.0099,-0.9367,-0.886,-0.8782,-0.8846,-0.8888,-0.8888,-0.7875,-0.7407,-0.7407,-0.5413,-0.4493,-0.4342,-0.3428,-0.2968,-0.2812,-0.1879,-0.1411,-0.1332,-0.0314,0.0706,0.1724,0.1724,0.2347,0.3202,0.3202,0.3904,0.4841,0.4833,0.5375,0.6101,0.6165,0.6634,0.727,0.727,0.7762,0.8383,0.8458,0.8439,0.8499,0.8568,0.9037,0.9275,0.8544,0.8849,0.9467,0.9706,0.9759,1.0031,1.1106,1.1383,1.1396,1.1396,1.1637,1.1844,1.1864,1.2098,1.2278,1.2298,1.2305,1.2305,1.2305,0.0,0.0,1.2305,1.2305,1.2305,0.0,0.0,0.0,0.0,0.0,1.2305,1.2305,1.2305,1.2305,1.2305,1.2305,1.3281,1.5151,1.6169,1.6269,1.541,1.541,1.541,1.541,1.541,1.541,1.541,1.541,1.541,1.5459,1.5889,1.6145,1.6211,1.707,1.7402,1.748,0.0,0.0,-1.8943,-1.7794,-1.7038,-1.5869,-1.3614,-1.2462,-1.102,-0.8719,-0.7678,-0.6923,-0.6005,-0.5363,-0.4982,-0.5061,-0.7377,-0.8685,-0.82,-0.7283,-0.6384,-0.5663,-0.4927,-0.4548,-0.4548,-0.4318,-0.4201,-0.4201,-0.3661,-0.3042,-0.2344,-0.2034,-0.1488,-0.0706,-0.0471,0.0078,0.0862,0.1097,0.1801,0.2735,0.2735,0.3359,0.4295,0.4295,0.5002,0.6005,0.6479,0.6779,0.7102,0.761,0.8339,0.891,0.891,0.9423,0.9928,0.9382,0.9192,0.9248,0.99,0.9728,0.9485,0.9943,1.0155,1.0321,1.0386,1.0405,1.0483,1.0748,1.0942,1.1096,1.1096,1.1336,1.1603,1.183,1.1924,1.2051,1.2271,1.2305,1.2305,0.0,1.2305,1.2305,1.2305,1.2305,1.2305,0.0,0.0,1.2305,1.2305,1.2305,1.2305,1.2305,1.2305,1.2305,1.2305,1.2305,1.2921,1.4212,1.5891,1.6269,1.541,1.541,1.541,1.541,1.541,1.541,1.541,1.541,1.541,1.5459,1.5889,1.6279,1.6641,1.7187,1.7588,1.7871,-1.8152,-1.7046,-1.5894,-1.4514,-1.3617,-1.2229,-0.9756,-0.9029,-0.7761,-0.5182,-0.4418,-0.3833,-0.2967,-0.2447,-0.1988,-0.1455,-0.3685,-0.4824,-0.4127,-0.3633,-0.3102,-0.2613,-0.2105,-0.2066,-0.2513,-0.2046,-0.1777,-0.1721,-0.1721,-0.1409,-0.0863,-0.0392,0.0157,0.0784,0.1175,0.1721,0.2268,0.2268,0.2891,0.3826,0.3826,0.4758,0.6073,0.5924,0.6507,0.7472,0.7715,0.7731,0.7783,0.8166,0.8799,0.9402,0.9402,1.0206,1.1073,1.0637,1.0271,1.0104,1.0919,1.078,1.0591,1.1038,1.0863,1.0624,1.0624,1.0624,1.0624,1.0624,1.0752,1.0795,1.0795,1.1035,1.1283,1.1443,1.1577,1.177,1.2064,1.2104,1.2151,1.2285,1.2305,1.2305,1.2305,1.2305,1.2305,1.2305,1.2305,0.0,1.2305,1.2305,1.2305,1.2305,1.2305,1.2305,1.2305,1.3157,1.3964,1.4541,1.6,1.6269,1.541,1.541,1.541,1.541,1.541,1.541,1.543,1.5625,1.5703,1.5771,1.6416,1.6816,1.708,1.751,1.7812,1.8008,-1.4554,-1.3593,-1.2416,-1.0428,-0.9364,-0.794,-0.5304,-0.4916,-0.3919,-0.1263,-0.0932,-0.0599,0.0332,0.0398,0.0465,0.0597,-0.0066,-0.0333,0.0133,0.0068,0.0069,0.0206,0.0141,-0.0286,-0.1075,-0.0221,0.0304,0.0468,0.0468,0.0469,0.0471,0.141,0.1802,0.188,0.2735,0.3202,0.3357,0.3357,0.4057,0.5151,0.5151,0.6294,0.7942,0.762,0.8047,0.8717,0.8644,0.8516,0.8425,0.8529,0.9046,0.9646,0.9646,1.0773,1.195,1.195,1.1476,1.1115,1.1779,1.195,1.195,1.195,1.1476,1.0989,1.0989,1.0989,1.0989,1.0989,1.0989,1.0989,1.0989,1.1077,1.1132,1.1172,1.1263,1.1463,1.1764,0.0,1.1957,1.2204,1.2278,1.2305,1.2305,1.2305,1.2305,1.2305,1.2305,1.2305,1.2305,1.2305,1.2305,1.2305,1.2305,1.2372,1.2519,1.4307,1.5239,1.5411,1.6294,1.6299,1.5508,1.5439,1.541,1.541,1.541,1.5449,1.5537,1.5908,1.6164,1.624,1.707,1.7383,1.7432,1.7852,1.8008,1.8008,-1.138,-1.0431,-0.9482,-0.8419,-0.7511,-0.6012,-0.3431,-0.3041,-0.205,0.0532,0.0865,0.1266,0.2204,0.2272,0.2606,0.3338,0.3272,0.2601,0.1198,0.1069,0.1408,0.222,0.221,0.2171,0.2031,0.216,0.2293,0.2429,0.2429,0.253,0.2656,0.2812,0.289,0.289,0.3046,0.3593,0.4453,0.4453,0.5535,0.7318,0.7318,0.7824,0.8626,0.8588,0.8538,0.8564,0.91,0.9332,0.9403,1.0051,1.0758,1.1399,1.1399,1.2081,1.2826,1.2826,1.2704,1.2642,1.2757,1.2826,1.2826,1.2826,1.2704,1.2642,1.2642,1.2642,1.2642,1.2642,1.2642,1.2642,1.2642,1.2127,1.1748,1.1955,1.1469,1.1162,1.145,0.0,1.1891,1.1931,1.2151,1.2305,1.2305,1.2305,1.2305,1.2305,1.2305,1.2305,1.2305,1.2305,1.2305,1.2305,1.2305,1.2666,1.3455,1.4593,1.5367,1.5806,1.6427,1.6465,1.5947,1.5576,1.541,1.541,1.541,1.5615,1.6027,1.6096,1.6289,1.668,1.7187,1.7383,1.7432,1.7852,1.8008,1.8008,-0.7756,-0.6523,-0.5481,-0.5045,-0.3866,-0.243,-0.0728,-0.053,0.0265,0.2466,0.2736,0.3268,0.4728,0.4863,0.5193,0.6052,0.6187,0.5585,0.4315,0.3796,0.3934,0.4797,0.4397,0.3917,0.3418,0.3381,0.3444,0.3463,0.3027,0.3043,0.3595,0.3802,0.3827,0.3906,0.5112,0.5918,0.6388,0.6919,0.7626,0.8361,0.8361,0.8748,0.939,0.9265,0.9427,0.9846,0.9993,1.0095,1.0206,1.0961,1.1469,1.1896,1.2328,1.3,1.3674,1.3674,1.3674,1.3674,1.3674,1.3674,1.3674,1.3674,1.3312,1.3009,1.3009,1.3009,1.3009,1.3009,1.3009,1.3009,1.3009,1.2704,1.2498,1.2594,1.194,1.1546,1.1793,1.1573,1.1516,1.183,1.1991,1.2131,1.2285,1.2305,1.2305,1.2305,1.2305,1.2305,1.2305,1.2305,1.2305,1.2305,1.2806,1.3528,1.453,1.5438,1.624,1.6741,1.6963,1.6855,1.6416,1.6211,1.6123,1.6123,1.6123,1.624,1.6445,1.668,1.6894,1.7129,1.7549,1.7715,1.7744,1.7939,1.8008,1.8008,-0.411,-0.2623,-0.1452,-0.1652,-0.0265,0.1194,0.2127,0.2261,0.286,0.4668,0.4935,0.5463,0.685,0.6981,0.7242,0.7962,0.8027,0.7832,0.7307,0.647,0.6207,0.6654,0.6272,0.5666,0.4956,0.4944,0.4933,0.4995,0.4082,0.4025,0.469,0.5017,0.5067,0.522,0.7127,0.7948,0.8023,0.8767,0.9107,0.9083,0.9083,0.9515,1.0113,0.9916,1.0403,1.1173,1.0946,1.0989,1.1233,1.1903,1.2197,1.2443,1.3061,1.3846,1.451,1.451,1.451,1.451,1.451,1.451,1.451,1.451,1.4025,1.3545,1.3545,1.3545,1.3545,1.3545,1.3545,1.3545,1.3545,1.3433,1.3312,1.3312,0.0,1.2166,1.2363,1.1768,1.151,1.2054,1.1972,1.1984,1.2271,1.2305,1.2305,1.2305,1.2305,1.2305,1.2305,1.2519,1.2732,1.2945,1.3455,1.4171,1.5163,1.614,1.6912,1.7529,1.7432,1.7207,1.6885,1.6777,1.6665,1.6665,1.6665,1.6787,1.6914,1.7246,1.7441,1.7559,1.7881,1.8008,1.8008,1.8008,1.8008,1.8008,-0.0573,0.0908,0.1984,0.113,0.2525,0.3987,0.4857,0.4989,0.565,0.7497,0.7697,0.7762,0.7892,0.7897,0.7962,0.8027,0.8027,0.8291,0.9075,0.8291,0.7507,0.6719,0.7437,0.7772,0.7717,0.7717,0.7758,0.7909,0.7018,0.6696,0.6861,0.6877,0.6885,0.6956,0.7952,0.8382,0.8382,0.8453,0.9006,0.9834,0.9834,1.0238,1.0956,1.0929,1.1254,1.174,1.1717,1.2205,1.2826,1.2887,1.3425,1.4025,1.4085,1.4688,1.5294,1.5294,1.5294,1.5294,1.5294,1.5294,1.5294,1.5294,1.5294,1.5235,1.5235,1.5235,1.5235,1.5235,1.5235,1.5235,1.5235,1.4628,1.4085,1.4085,0.0,0.0,1.292,1.2444,1.2262,1.2579,1.2193,1.1984,1.2271,1.2305,1.2305,1.2305,1.2305,1.2305,1.2305,1.3098,1.4027,1.495,1.4171,1.4171,1.5163,1.614,1.7051,1.7959,1.7568,1.7363,1.7324,1.6914,1.6665,1.6665,1.6665,1.6963,1.7334,1.7373,1.7607,1.7969,1.7998,1.8008,1.8008,1.8008,1.8008,1.8008,0.2646,0.3841,0.4759,0.4379,0.5499,0.6567,0.6902,0.6967,0.7233,0.7897,0.8027,0.8221,0.8748,0.8812,0.9005,0.9582,0.9582,0.9518,0.9338,0.9524,0.8994,0.7567,0.8355,0.8549,0.8027,0.8549,0.8857,0.8887,0.8022,0.7863,0.8425,0.802,0.7808,0.7812,0.8837,0.9313,0.9383,1.0014,1.0411,1.0606,1.1116,1.14,1.1524,1.2029,1.2383,1.2512,1.2512,1.2757,1.307,1.3606,1.3974,1.4273,1.4815,1.5167,1.541,1.541,1.541,1.541,1.541,1.541,1.541,1.541,1.541,1.541,1.541,1.541,1.541,1.541,1.541,1.541,1.541,1.5167,1.4932,1.4932,0.0,1.3726,1.3726,1.2861,1.232,1.2676,1.2727,1.2899,1.3135,1.3738,1.3803,1.3244,1.3171,1.3171,1.3171,1.4099,1.4807,1.5163,1.5367,1.5649,1.607,1.7001,1.7647,1.8008,1.7852,1.7773,1.7764,1.7598,1.7519,1.7519,1.7519,1.7617,1.7773,1.7773,1.7871,1.8008,1.8008,1.8008,1.8008,1.8008,1.8008,1.8008,0.5526,0.64,0.7162,0.7147,0.8156,0.8908,0.8604,0.8914,0.9093,0.8865,0.9233,0.9679,1.0021,1.0085,1.0345,1.0919,1.0744,1.0364,0.9722,1.0301,1.0104,0.8871,0.9396,0.946,0.8807,0.9396,0.9722,0.9722,0.8812,0.8683,0.928,0.8788,0.8533,0.8604,0.9635,1.0123,1.019,1.1136,1.1418,1.1295,1.2108,1.2343,1.2266,1.2765,1.3191,1.3364,1.3364,1.3545,1.3846,1.4392,1.4569,1.4688,1.5235,1.541,1.541,1.541,1.541,1.541,1.541,1.541,1.541,1.541,1.541,1.541,1.541,1.541,1.541,1.541,1.541,1.541,1.541,1.541,1.541,1.541,1.4932,1.4616,1.4805,1.3808,1.3195,1.3672,1.3737,1.3871,1.4132,1.4522,1.445,1.3745,1.3673,1.3954,1.4593,1.5021,1.5446,1.6088,1.6428,1.6706,1.707,1.7647,1.8008,1.8008,1.8008,1.8008,1.8008,1.8008,1.8008,1.8008,1.8008,1.8008,1.8008,1.8008,1.8008,1.8008,1.8008,1.8008,1.8008,1.8008,1.8008,1.8008,0.7912,0.8707,0.9362,0.9125,1.0196,1.0797,0.9926,1.088,1.1465,1.0737,1.2027,1.2696,1.1888,1.1834,1.1834,1.1834,1.1108,1.0624,1.0624,1.0624,1.0624,1.0624,1.0624,1.0624,1.0624,1.0624,1.0624,1.0624,0.9722,0.9338,0.9338,0.9338,0.9338,0.9338,1.0238,1.0624,1.0688,1.1469,1.1834,1.1896,1.2696,1.3009,1.3009,1.3009,1.3485,1.4213,1.4213,1.4746,1.541,1.541,1.541,1.541,1.541,1.541,1.541,1.541,1.541,1.541,1.541,1.541,1.541,1.541,1.541,1.541,1.541,1.541,1.541,1.541,1.541,1.541,1.541,1.541,1.541,1.541,1.541,1.5566,1.6006,1.5444,1.5169,1.5806,1.5222,1.4836,1.5201,1.4314,1.3745,1.3745,1.3745,1.4585,1.6498,1.572,1.6088,1.794,1.707,1.707,1.8008,1.8008,1.8008,1.8008,1.8008,1.8008,1.8008,1.8008,1.8008,1.8008,1.8008,1.8008,1.8008,1.8008,1.8008,1.8008,1.8008,1.8008,1.8008,1.8008,1.8008,1.8008,0.9956,1.0394,1.0685,1.0662,1.1121,1.1563,1.1588,1.1949,1.2226,1.2304,1.2704,1.2696,1.1888,1.2328,1.2389,1.1834,1.2081,1.2027,1.1469,1.1469,1.1163,1.0624,1.0624,1.0624,1.0624,1.0624,1.0624,1.0624,1.0912,1.078,1.0238,1.078,1.1024,1.108,1.1344,1.1779,1.2274,1.2512,1.2634,1.2696,1.3545,1.3846,1.3906,1.4451,1.4805,1.505,1.505,1.5167,1.541,1.541,1.541,1.541,1.541,1.541,1.541,1.541,1.541,1.541,1.541,1.541,1.541,1.541,1.541,1.541,1.541,1.541,1.541,1.541,1.541,1.541,1.541,1.541,1.541,1.541,1.5664,1.5918,1.6105,1.5797,1.5701,1.5869,1.6011,1.6086,1.6201,1.593,1.572,1.572,1.572,1.6,1.6558,1.6932,1.7442,1.8008,1.7725,1.7716,1.8008,1.8008,1.8008,1.8008,1.8008,1.8008,1.8008,1.8008,1.8008,1.8008,1.8008,1.8008,1.8008,1.8008,1.8008,1.8008,1.8008,1.8008,1.8008,1.8008,1.8008,1.8008,1.1216,1.1345,1.161,1.1885,1.2202,1.2382,1.2346,1.2919,1.3197,1.2829,1.3459,1.3657,1.287,1.3174,1.3304,1.281,1.2879,1.2765,1.2328,1.2266,1.2089,1.1538,1.1538,1.1421,1.1108,1.1421,1.1538,1.1538,1.2027,1.2027,1.1545,1.2027,1.2266,1.2266,1.2266,1.2512,1.3009,1.3373,1.3485,1.3545,1.4323,1.4688,1.4756,1.5225,1.541,1.541,1.541,1.541,1.541,1.541,1.541,1.541,1.541,1.541,1.541,1.541,1.541,1.541,1.541,1.541,1.541,1.541,1.541,1.541,1.541,1.541,1.541,1.541,1.541,1.541,1.541,1.541,1.5469,1.5644,1.5889,1.6243,1.6596,1.655,1.6522,1.668,1.6989,1.7139,1.7139,1.6853,1.6636,1.6636,1.6636,1.6775,1.7139,1.7716,1.8008,1.8008,1.8008,1.8008,1.8008,1.8008,1.8008,1.8008,1.8008,1.8008,1.8008,1.8008,1.8008,1.8008,1.8008,1.8008,1.8008,1.8008,1.8008,1.8008,1.8008,1.8008,1.8008,1.8008,1.8008,1.8008,1.1963,1.1913,1.2129,1.2861,1.3243,1.3253,1.2593,1.372,1.4185,1.2813,1.4234,1.507,1.4264,1.4273,1.4273,1.4213,1.3606,1.3191,1.313,1.313,1.307,1.3009,1.307,1.2757,1.2012,1.2634,1.3009,1.3009,1.307,1.307,1.3009,1.307,1.313,1.313,1.313,1.313,1.3252,1.4025,1.4332,1.4382,1.5108,1.541,1.541,1.541,1.541,1.541,1.541,1.541,1.541,1.541,1.541,1.541,1.541,1.541,1.541,1.541,1.541,1.541,1.541,1.541,1.541,1.541,1.541,1.541,1.541,1.541,1.541,1.541,1.541,1.541,1.541,1.5439,1.5596,1.6056,1.6194,1.6465,1.7266,1.7422,1.7578,1.7969,1.8008,1.8008,1.8008,1.7217,1.6706,1.6636,1.6706,1.707,1.794,1.8008,1.8008,1.8008,1.8008,1.8008,1.8008,1.8008,1.8008,1.8008,1.8008,1.8008,1.8008,1.8008,1.8008,1.8008,1.8008,1.8008,1.8008,1.8008,1.8008,1.8008,1.8008,1.8008,1.8008,1.8008,1.8008,1.8008,1.3379,1.2977,1.2852,1.3505,1.327,1.3264,1.3851,1.3838,1.3917,1.4241,1.4638,1.4754,1.4236,1.4746,1.4874,1.4264,1.4628,1.4628,1.3965,1.3965,1.3666,1.3009,1.3606,1.3846,1.3657,1.3243,1.3009,1.3009,1.3606,1.3606,1.3009,1.3666,1.3965,1.3965,1.3965,1.4273,1.4864,1.505,1.5108,1.5167,1.5352,1.541,1.541,1.541,1.541,1.541,1.541,1.541,1.541,1.541,1.541,1.541,1.541,1.541,1.541,1.541,1.541,1.541,1.541,1.541,1.541,1.541,1.541,1.541,1.541,1.541,1.541,1.541,1.541,1.541,1.541,1.5693,1.5947,1.6105,1.6641,1.7168,1.7353,1.7666,1.791,1.7998,1.8008,1.8008,1.8008,1.7794,1.7354,1.6636,1.7285,1.7794,1.8008,1.8008,1.8008,1.8008,1.8008,1.8008,1.8008,1.8008,1.8008,1.8008,1.8008,1.8008,1.8008,1.8008,1.8008,1.8008,1.8008,1.8008,1.8008,1.8008,1.8008,1.8008,1.8008,1.8008,1.8008,1.8008,1.8008,1.8008,1.3862,1.3552,1.342,1.3721,1.3286,1.3183,1.3997,1.3751,1.3765,1.4506,1.473,1.4694,1.4495,1.5052,1.5225,1.4815,1.5167,1.5235,1.4805,1.4746,1.4569,1.4154,1.4569,1.4746,1.4746,1.4392,1.4145,1.4145,1.4569,1.4569,1.4145,1.4569,1.4746,1.4746,1.4746,1.4991,1.541,1.541,1.541,1.541,1.541,1.541,1.541,1.541,1.541,1.541,1.541,1.541,1.541,1.541,1.541,1.541,1.541,1.541,1.541,1.541,1.541,1.541,1.541,1.541,1.541,1.541,1.541,1.541,1.541,1.541,1.541,1.541,1.541,1.5478,1.5684,1.5908,1.6262,1.6621,1.708,1.7451,1.7656,1.7871,1.8008,1.8008,1.8008,1.8008,1.8008,1.8008,1.7794,1.7285,1.7716,1.8008,1.8008,1.8008,1.8008,1.8008,1.8008,1.8008,1.8008,1.8008,1.8008,1.8008,1.8008,1.8008,1.8008,1.8008,1.8008,1.8008,1.8008,1.8008,1.8008,1.8008,1.8008,1.8008,1.8008,1.8008,1.8008,1.8008,1.8008,1.8037,1.405,1.3862,1.3815,1.3956,1.3467,1.3238,1.3873,1.3726,1.3711,1.4202,1.442,1.4619,1.4766,1.5156,1.541,1.541,1.541,1.541,1.541,1.541,1.541,1.541,1.541,1.541,1.541,1.541,1.541,1.541,1.541,1.541,1.541,1.541,1.541,1.541,1.541,1.541,1.541,1.541,1.541,1.541,1.541,1.541,1.541,1.541,1.541,1.541,1.541,1.541,1.541,1.541,1.541,1.541,1.541,1.5469,1.5527,1.5527,1.5576,1.5635,1.5635,1.5635,1.5635,1.5635,1.5635,1.5635,1.5635,1.5576,1.5527,1.5527,1.5586,1.5752,1.6113,1.624,1.6596,1.7266,1.7451,1.7607,1.7959,1.8008,1.8008,1.8008,1.8008,1.8008,1.8008,1.8008,1.8008,1.8008,1.8008,1.8008,1.8008,1.8008,1.8008,1.8008,1.8008,1.8008,1.8008,1.8008,1.8008,1.8008,1.8008,1.8008,1.8008,1.8008,1.8008,1.8008,1.8008,1.8008,1.8008,1.8008,1.8008,1.8008,1.8008,1.8008,1.8008,1.8008,1.8057,1.8164,1.4698,1.4143,1.3956,1.4468,1.4097,1.3873,1.4468,1.4114,1.3731,1.365,1.3655,1.3965,1.4707,1.5156,1.541,1.541,1.541,1.541,1.541,1.541,1.541,1.541,1.541,1.541,1.541,1.541,1.541,1.541,1.541,1.541,1.541,1.541,1.541,1.541,1.541,1.541,1.541,1.541,1.541,1.541,1.541,1.541,1.541,1.541,1.541,1.541,1.541,1.541,1.541,1.541,1.541,1.541,1.541,1.5674,1.6037,1.6037,1.625,1.649,1.649,1.649,1.649,1.649,1.649,1.649,1.649,1.625,1.6037,1.6037,1.6279,1.6572,1.6631,1.6953,1.7246,1.7363,1.7686,1.7949,1.8008,1.8008,1.8008,1.8008,1.8008,1.8008,1.8008,1.8008,1.8008,1.8008,1.8008,1.8008,1.8008,1.8008,1.8008,1.8008,1.8008,1.8008,1.8008,1.8008,1.8008,1.8008,1.8008,1.8008,1.8008,1.8008,1.8008,1.8008,1.8008,1.8008,1.8008,1.8008,1.8008,1.8008,1.8008,1.8008,1.8008,1.8008,1.8242,1.8564,1.532,1.5005,1.4915,1.5141,1.4411,1.4003,1.4606,1.4464,1.4327,1.4588,1.5126,1.5605,1.5966,1.6042,1.5864,1.541,1.541,1.541,1.541,1.541,1.541,1.541,1.541,1.541,1.541,1.541,1.541,1.541,1.541,1.541,1.541,1.541,1.541,1.541,1.541,1.541,1.541,1.541,1.541,1.541,1.541,1.541,1.541,1.541,1.541,1.541,1.541,1.5566,1.5771,1.5771,1.5937,1.6152,1.6152,1.6279,1.6436,1.6436,1.6572,1.6665,1.6665,1.6665,1.6665,1.6665,1.6665,1.6665,1.6665,1.6768,1.6728,1.6494,1.6592,1.6807,1.7051,1.7256,1.7461,1.7695,1.7891,1.8008,1.8008,1.8008,1.8008,1.8008,1.8008,1.8008,1.8008,1.8008,1.8008,1.8008,1.8008,1.8008,1.8008,1.8008,1.8008,1.8008,1.8008,1.8008,1.8008,1.8008,1.8008,1.8008,1.8008,1.8008,1.8008,1.8008,1.8008,1.8008,1.8008,1.8008,1.8008,1.8008,1.8008,1.8008,1.8008,1.8154,1.8359,1.8359,1.8633,1.9033]},{"header":{"parameterUnit":"m.s-1","parameterCategory":1,"la1":30.6,"la2":28.766,"lo1":-90.7593,"lo2":-88.6598,"dy":0.0162,"dx":0.0183,"nx":116,"ny":114,"refTime":"2023-08-14T06:00:00:Z","depth":0,"parameterNumber":3,"parameterNumberName":"V-component_of_WINDS"},"data":[0.0,0.0,0.0,0.0,0.0,0.0,0.0,0.0,0.0,0.0,0.0,0.0,0.0,0.0,0.0,0.0,0.0,0.0,0.0,0.0,0.0,0.0,0.0,0.0,0.0,0.0,0.0,0.0,0.0,0.0,0.0,0.0,0.0,0.0,0.0,0.0,0.0,0.0,0.0,0.0,0.0,0.0,0.0,0.0,0.0,0.0,0.0,0.0,0.0,0.0,0.0,0.0,0.0,0.0,0.0,0.0,0.0,0.0,0.0,0.0,0.0,0.0,0.0,0.0,0.0,0.0,0.0,0.0,0.0,0.0,0.0,0.0,0.0,0.0,0.0,0.0,0.0,0.0,0.0,0.0,0.0,0.0,0.0,0.0,0.0,0.0,0.0,0.0,0.0,0.0,0.0,0.0,0.0,0.0,0.0,0.0,0.0,0.0,0.0,0.0,0.0,0.0,0.0,0.0,0.0,0.0,0.0,0.0,0.0,0.0,0.0,0.0,0.0,0.0,0.0,0.0,0.0,0.0,0.0,0.0,0.0,0.0,0.0,0.0,0.0,0.0,0.0,0.0,0.0,0.0,0.0,0.0,0.0,0.0,0.0,0.0,0.0,0.0,0.0,0.0,0.0,0.0,0.0,0.0,0.0,0.0,0.0,0.0,0.0,0.0,0.0,0.0,0.0,0.0,0.0,0.0,0.0,0.0,0.0,0.0,0.0,0.0,0.0,0.0,0.0,0.0,0.0,0.0,0.0,0.0,0.0,0.0,0.0,0.0,0.0,0.0,0.0,0.0,0.0,0.0,0.0,0.0,0.0,0.0,0.0,0.0,0.0,0.0,0.0,0.0,0.0,0.0,0.0,0.0,0.0,0.0,0.0,0.0,0.0,0.0,0.0,0.0,0.0,0.0,0.0,0.0,0.0,0.0,0.0,0.0,0.0,0.0,0.0,0.0,0.0,0.0,0.0,0.0,0.0,0.0,0.0,0.0,0.0,0.0,0.0,0.0,0.0,0.0,0.0,0.0,0.0,0.0,0.0,0.0,0.0,0.0,0.0,0.0,0.0,0.0,0.0,0.0,0.0,0.0,0.0,0.0,0.0,0.0,0.0,0.0,0.0,0.0,0.0,0.0,0.0,0.0,0.0,0.0,0.0,0.0,0.0,0.0,0.0,0.0,0.0,0.0,0.0,0.0,0.0,0.0,0.0,0.0,0.0,0.0,0.0,0.0,0.0,0.0,0.0,0.0,0.0,0.0,0.0,0.0,0.0,0.0,0.0,0.0,0.0,0.0,0.0,0.0,0.0,0.0,0.0,0.0,0.0,0.0,0.0,0.0,0.0,0.0,0.0,0.0,0.0,0.0,0.0,0.0,0.0,0.0,0.0,0.0,0.0,0.0,0.0,0.0,0.0,0.0,0.0,0.0,0.0,0.0,0.0,0.0,0.0,0.0,0.0,0.0,0.0,0.0,0.0,0.0,0.0,0.0,0.0,0.0,0.0,0.0,0.0,0.0,0.0,0.0,0.0,0.0,0.0,0.0,0.0,0.0,0.0,0.0,0.0,0.0,0.0,0.0,0.0,0.0,0.0,0.0,0.0,0.0,0.0,0.0,0.0,0.0,0.0,0.0,0.0,0.0,0.0,0.0,0.0,0.0,0.0,0.0,0.0,0.0,0.0,0.0,0.0,0.0,0.0,0.0,0.0,0.0,0.0,0.0,0.0,0.0,0.0,0.0,0.0,0.0,0.0,0.0,0.0,0.0,0.0,0.0,0.0,0.0,0.0,0.0,0.0,0.0,0.0,0.0,0.0,0.0,0.0,0.0,0.0,0.0,0.0,0.0,0.0,0.0,0.0,0.0,0.0,0.0,0.0,0.0,0.0,0.0,0.0,0.0,0.0,0.0,0.0,0.0,0.0,0.0,0.0,0.0,0.0,0.0,0.0,0.0,0.0,0.0,0.0,0.0,0.0,0.0,0.0,0.0,0.0,0.0,0.0,0.0,0.0,0.0,0.0,0.0,0.0,0.0,0.0,0.0,0.0,0.0,0.0,0.0,0.0,0.0,0.0,0.0,0.0,0.0,0.0,0.0,0.0,0.0,0.0,0.0,0.0,0.0,0.0,0.0,0.0,0.0,0.0,0.0,0.0,0.0,0.0,0.0,0.0,0.0,0.0,0.0,0.0,0.0,0.0,0.0,0.0,0.0,0.0,0.0,0.0,0.0,0.0,0.0,0.0,0.0,0.0,0.0,0.0,0.0,0.0,0.0,0.0,0.0,0.0,0.0,0.0,0.0,0.0,0.0,0.0,0.0,0.0,0.0,0.0,0.0,0.0,0.0,0.0,0.0,0.0,0.0,0.0,0.0,0.0,0.0,0.0,0.0,0.0,0.0,0.0,0.0,0.0,0.0,0.0,0.0,0.0,0.0,0.0,0.0,0.0,0.0,0.0,0.0,0.0,0.0,0.0,0.0,0.0,0.0,0.0,0.0,0.0,0.0,0.0,0.0,0.0,0.0,0.0,0.0,0.0,0.0,0.0,0.0,0.0,0.0,0.0,0.0,0.0,0.0,0.0,0.0,0.0,0.0,0.0,0.0,0.0,0.0,0.0,0.0,0.0,0.0,0.0,0.0,0.0,0.0,0.0,0.0,0.0,0.0,0.0,0.0,0.0,0.0,0.0,0.0,0.0,0.0,0.0,0.0,0.0,0.0,0.0,0.0,0.0,0.0,0.0,0.0,0.0,0.0,0.0,0.0,0.0,0.0,0.0,0.0,0.0,0.0,0.0,0.0,0.0,0.0,0.0,0.0,0.0,0.0,0.0,0.0,0.0,0.0,0.0,0.0,0.0,0.0,0.0,0.0,0.0,0.0,0.0,0.0,0.0,0.0,0.0,0.0,0.0,0.0,0.0,0.0,0.0,0.0,0.0,0.0,0.0,0.0,0.0,0.0,0.0,0.0,0.0,0.0,0.0,0.0,0.0,0.0,0.0,0.0,0.0,0.0,0.0,0.0,0.0,0.0,0.0,0.0,0.0,0.0,0.0,0.0,0.0,0.0,0.0,0.0,0.0,0.0,0.0,0.0,0.0,0.0,0.0,0.0,0.0,0.0,0.0,0.0,0.0,0.0,0.0,0.0,0.0,0.0,0.0,0.0,0.0,0.0,0.0,0.0,0.0,0.0,0.0,0.0,0.0,0.0,0.0,0.0,0.0,0.0,0.0,0.0,0.0,0.0,0.0,0.0,0.0,0.0,0.0,0.0,0.0,0.0,0.0,0.0,0.0,0.0,0.0,0.0,0.0,0.0,0.0,0.0,0.0,0.0,0.0,0.0,0.0,0.0,0.0,0.0,0.0,0.0,0.0,0.0,0.0,0.0,0.0,0.0,0.0,0.0,0.0,0.0,0.0,0.0,0.0,0.0,0.0,0.0,0.0,0.0,0.0,0.0,0.0,0.0,0.0,0.0,0.0,0.0,0.0,0.0,0.0,0.0,0.0,0.0,0.0,0.0,0.0,0.0,0.0,0.0,0.0,0.0,0.0,0.0,0.0,0.0,0.0,0.0,0.0,0.0,0.0,0.0,0.0,0.0,0.0,0.0,0.0,0.0,0.0,0.0,0.0,0.0,0.0,0.0,0.0,0.0,0.0,0.0,0.0,0.0,0.0,0.0,0.0,0.0,0.0,0.0,0.0,0.0,0.0,0.0,0.0,0.0,0.0,0.0,0.0,0.0,0.0,0.0,0.0,0.0,0.0,0.0,0.0,0.0,0.0,0.0,0.0,0.0,0.0,0.0,0.0,0.0,0.0,0.0,0.0,0.0,0.0,0.0,0.0,0.0,0.0,0.0,0.0,0.0,0.0,0.0,0.0,0.0,0.0,0.0,0.0,0.0,0.0,0.0,0.0,0.0,0.0,0.0,0.0,0.0,0.0,0.0,0.0,0.0,0.0,0.0,0.0,0.0,0.0,0.0,0.0,0.0,0.0,0.0,0.0,0.0,0.0,0.0,0.0,0.0,0.0,0.0,0.0,0.0,0.0,0.0,0.0,0.0,0.0,0.0,0.0,0.0,0.0,0.0,0.0,0.0,0.0,0.0,0.0,0.0,0.0,0.0,0.0,0.0,0.0,0.0,0.0,0.0,0.0,0.0,0.0,0.0,0.0,0.0,0.0,0.0,0.0,0.0,0.0,0.0,0.0,0.0,0.0,0.0,0.0,0.0,0.0,0.0,0.0,0.0,0.0,0.0,0.0,0.0,0.0,0.0,0.0,0.0,0.0,0.0,0.0,0.0,0.0,0.0,0.0,0.0,0.0,0.0,0.0,0.0,0.0,0.0,0.0,0.0,0.0,0.0,0.0,0.0,0.0,0.0,0.0,0.0,0.0,0.0,0.0,0.0,0.0,0.0,0.0,0.0,0.0,0.0,0.0,0.0,0.0,0.0,0.0,0.0,0.0,0.0,0.0,0.0,0.0,0.0,0.0,0.0,0.0,0.0,0.0,0.0,0.0,0.0,0.0,0.0,0.0,0.0,0.0,0.0,0.0,0.0,0.0,0.0,0.0,0.0,0.0,0.0,0.0,0.0,0.0,0.0,0.0,0.0,0.0,0.0,0.0,0.0,0.0,0.0,0.0,0.0,0.0,0.0,0.0,0.0,0.0,0.0,0.0,0.0,0.0,0.0,0.0,0.0,0.0,0.0,0.0,0.0,0.0,0.0,0.0,0.0,0.0,0.0,0.0,0.0,0.0,0.0,0.0,0.0,0.0,0.0,0.0,0.0,0.0,0.0,0.0,0.0,0.0,0.0,0.0,0.0,0.0,0.0,0.0,0.0,0.0,0.0,0.0,0.0,0.0,0.0,0.0,0.0,0.0,0.0,0.0,0.0,0.0,0.0,0.0,0.0,0.0,0.0,0.0,0.0,0.0,0.0,0.0,0.0,0.0,0.0,0.0,0.0,0.0,0.0,0.0,0.0,0.0,0.0,0.0,0.0,0.0,0.0,0.0,0.0,0.0,0.0,0.0,0.0,0.0,0.0,0.0,0.0,0.0,0.0,0.0,0.0,0.0,0.0,0.0,0.0,0.0,0.0,0.0,0.0,0.0,0.0,0.0,0.0,0.0,0.0,0.0,0.0,0.0,0.0,0.0,0.0,0.0,0.0,0.0,0.0,0.0,0.0,0.0,0.0,0.0,0.0,0.0,0.0,0.0,0.0,0.0,0.0,0.0,0.0,0.0,0.0,0.0,0.0,0.0,0.0,0.0,0.0,0.0,0.0,0.0,0.0,0.0,0.0,0.0,0.0,0.0,0.0,0.0,0.0,0.0,0.0,0.0,0.0,0.0,0.0,0.0,0.0,0.0,0.0,0.0,0.0,0.0,0.0,0.0,0.0,0.0,0.0,0.0,0.0,0.0,0.0,0.0,0.0,0.0,0.0,0.0,0.0,0.0,0.0,0.0,0.0,0.0,0.0,0.0,0.0,0.0,0.0,0.0,0.0,0.0,0.0,0.0,0.0,0.0,0.0,0.0,0.0,0.0,0.0,0.0,0.0,0.0,0.0,0.0,0.0,0.0,0.0,0.0,0.0,0.0,0.0,0.0,0.0,0.0,0.0,0.0,0.0,0.0,0.0,0.0,0.0,0.0,0.0,0.0,0.0,0.0,0.0,0.0,0.0,0.0,0.0,0.0,0.0,0.0,0.0,0.0,0.0,0.0,0.0,0.0,0.0,0.0,0.0,0.0,0.0,0.0,0.0,0.0,0.0,0.0,0.0,0.0,0.0,0.0,0.0,0.0,0.0,0.0,0.0,0.0,0.0,0.0,0.0,0.0,0.0,0.0,0.0,0.0,0.0,0.0,0.0,0.0,0.0,0.0,0.0,0.0,0.0,0.0,0.0,0.0,0.0,0.0,0.0,0.0,0.0,0.0,0.0,0.0,0.0,0.0,0.0,0.0,0.0,0.0,0.0,0.0,0.0,0.0,0.0,0.0,0.0,0.0,0.0,0.0,0.0,0.0,0.0,0.0,0.0,0.0,0.0,0.0,0.0,0.0,0.0,0.0,0.0,0.0,0.0,0.0,0.0,0.0,0.0,0.0,0.0,0.0,0.0,0.0,0.0,0.0,0.0,0.7665,0.7139,0.0,0.0,0.0,0.0,0.0,0.0,0.0,0.0,0.0,0.0,0.0,0.0,0.0,0.0,0.0,0.0,0.0,0.0,0.0,0.0,0.0,0.0,0.0,0.0,0.0,0.0,0.0,0.0,0.0,0.0,0.0,0.0,0.0,0.0,0.0,0.0,0.0,0.0,0.0,0.0,0.0,0.0,0.0,0.0,0.0,0.0,0.0,0.0,0.0,0.0,0.0,0.0,0.0,0.0,0.0,0.0,0.0,0.0,0.0,0.0,0.0,0.0,0.0,0.0,0.0,0.0,0.0,0.0,0.0,0.0,0.0,0.0,0.0,0.0,0.0,0.0,0.0,0.0,0.0,0.0,0.0,0.0,0.0,0.0,0.0,0.0,0.0,0.0,0.0,0.0,0.0,0.0,0.0,0.0,0.0,0.0,0.0,0.0,0.0,0.0,0.0,0.0,0.0,0.0,0.0,0.0,0.0,0.0,0.0,0.0,0.0,0.0,0.0,0.0,0.7404,0.7139,0.0,0.0,0.0,0.0,0.0,0.0,0.0,0.0,0.0,0.0,0.0,0.0,0.0,0.0,0.0,0.0,0.0,0.0,0.0,0.0,0.0,0.0,0.0,0.0,0.0,0.0,0.0,0.0,0.0,0.0,0.0,0.0,0.0,0.0,0.0,0.0,0.0,0.0,0.0,0.0,0.0,0.0,0.0,0.0,0.0,0.0,0.0,0.0,0.0,0.0,0.0,0.0,0.0,0.0,0.0,0.0,0.0,0.0,0.0,0.0,0.0,0.0,0.0,0.0,0.0,0.0,0.0,0.0,0.0,0.0,0.0,0.0,0.0,0.0,0.0,0.0,0.0,0.0,0.0,0.0,0.0,0.0,0.0,0.0,0.0,0.0,0.0,0.0,0.0,0.0,0.0,0.0,0.0,0.0,0.0,0.0,0.0,0.0,0.0,0.0,0.0,0.0,0.0,0.0,0.0,0.0,0.0,0.0,0.7316,0.7316,0.7139,0.7139,0.7139,0.7139,0.7139,0.7139,0.7139,0.7139,0.0,0.0,0.0,0.0,0.0,0.0,0.0,0.0,0.0,0.0,0.0,0.0,0.0,0.0,0.0,0.0,0.0,0.0,0.0,0.0,0.0,0.0,0.0,0.0,0.0,0.0,0.0,0.0,0.0,0.0,0.0,0.0,0.0,0.0,0.0,0.0,0.0,0.0,0.7305,0.4295,0.171,-0.0542,0.0,0.0,0.0,0.0,0.0,0.0,0.0,0.0,0.0,0.0,0.0,0.0,0.0,0.0,0.0,0.0,0.0,0.0,0.0,0.0,0.0,0.0,0.0,0.0,0.0,0.0,0.0,0.0,0.0,0.0,0.0,0.0,0.0,0.0,0.0,0.0,0.0,0.0,0.0,0.0,0.0,0.0,0.0,0.0,2.0246,1.9329,0.0,0.0,0.0,0.0,0.0,0.0,0.0,0.0,0.0,0.0,0.0,0.0,0.0,0.7401,0.7573,0.8277,0.8101,0.7139,0.8189,0.8101,0.7139,0.7139,0.7139,0.7139,0.7139,0.0,0.7139,0.7139,0.0,0.0,0.0,0.0,0.0,0.0,0.0,0.0,0.0,0.0,0.0,0.0,0.0,0.0,0.0,0.0,0.0,0.0,0.0,0.0,0.0,0.0,0.0,0.0,0.0,0.0,0.0,0.0,0.0,0.0,0.0,0.0,0.0,0.0,0.0,0.0,1.0215,0.9195,0.8579,0.6644,0.3975,0.0776,-0.1163,-0.4693,-0.9425,-1.0787,0.0,0.0,0.0,0.0,0.0,0.0,0.0,0.0,0.0,0.0,0.0,0.0,0.0,0.0,0.0,0.0,0.0,0.0,0.0,0.0,0.0,0.0,0.0,0.0,0.0,0.0,0.0,0.0,0.0,0.0,0.0,0.0,0.0,0.0,0.0,0.0,0.0,0.0,0.0,2.0566,2.0216,1.9131,1.7993,1.6892,0.0,0.0,0.0,0.0,0.0,0.0,0.0,0.0,0.0,1.0611,0.8969,0.8105,0.8105,0.7929,0.7665,0.7139,0.7665,0.7577,0.7139,0.7139,0.7139,0.7139,0.7139,0.7139,0.7139,0.7139,0.6157,0.4641,0.0,0.0,0.0,0.0,0.3927,0.4552,0.0,0.0,0.0,0.0,0.0,0.0,0.0,0.0,0.0,0.0,0.0,0.0,0.0,0.0,0.0,2.9014,0.0,0.0,0.0,0.0,0.0,0.0,0.0,0.0,0.0,0.0,0.0,0.0,1.2198,1.0742,1.0034,0.8187,0.5455,0.1938,0.031,-0.3548,-0.8974,-1.0261,-1.2483,0.0,0.0,0.0,0.0,0.0,0.0,0.0,0.0,0.0,0.0,0.0,0.0,0.0,0.0,0.0,0.0,0.0,0.0,0.0,0.0,0.0,0.0,0.0,0.0,0.0,0.0,0.0,0.0,0.0,0.0,0.0,0.0,0.0,0.0,0.0,0.0,0.0,0.0,2.0566,2.0186,1.9127,1.8027,1.6868,0.0,0.0,0.0,0.0,0.0,0.0,1.2766,1.1643,1.1037,1.1037,0.9666,0.889,0.889,0.7665,0.7139,0.7139,0.7139,0.7139,0.7139,0.7139,0.7139,0.7139,0.7139,0.7139,0.7139,0.7139,0.6428,0.5359,0.5359,0.4643,0.3659,0.3927,0.4105,0.4194,0.0,0.0,0.0,0.0,0.0,0.0,0.0,0.0,0.0,0.0,0.0,0.0,0.0,0.0,3.1557,3.0649,3.0566,3.0021,0.0,0.0,0.0,0.0,0.0,0.0,0.0,0.0,0.0,1.6234,1.3489,1.2078,1.2004,0.8098,0.5106,0.2927,-0.0155,-0.3866,-0.7942,-0.9894,-1.2471,-1.532,0.0,0.0,0.0,0.0,0.0,0.0,0.0,0.0,0.0,0.0,0.0,0.0,0.0,0.0,0.0,0.0,0.0,0.0,0.0,0.0,0.0,0.0,0.0,0.0,0.0,0.0,0.0,0.0,0.0,0.0,0.0,0.0,0.0,0.0,0.0,0.0,0.0,0.0,0.0,1.9125,1.7989,0.0,0.0,0.0,0.0,1.4088,1.3997,1.3997,1.3997,1.2857,1.2242,1.2242,1.0096,0.889,0.889,0.7665,0.7139,0.7139,0.7139,0.7139,0.7139,0.7139,0.7139,0.7139,0.7139,0.7139,0.7139,0.7139,0.6428,0.5359,0.5359,0.4643,0.3748,0.491,0.527,0.5447,0.0,0.0,0.0,0.0,0.0,0.0,0.0,0.0,0.0,0.0,0.0,0.0,0.0,3.2972,3.2709,3.1917,3.1865,3.1382,3.0268,0.0,0.0,0.0,0.0,0.0,0.0,0.0,1.9034,1.7358,1.5739,1.3984,1.2151,0.9482,0.6729,0.394,0.0851,-0.2855,-0.6855,-0.8939,-1.1877,-1.5292,-1.6495,-1.7909,0.0,0.0,0.0,0.0,0.0,0.0,0.0,0.0,0.0,0.0,0.0,0.0,0.0,0.0,0.0,0.0,0.0,0.0,0.0,0.0,0.0,0.0,0.0,0.0,0.0,0.0,0.0,0.0,0.0,0.0,0.0,0.0,0.0,0.0,0.0,0.0,0.0,1.9125,1.798,0.0,1.5779,1.4734,1.4088,1.4088,1.4088,1.4088,1.4088,1.373,1.2772,1.1209,1.0438,0.9226,0.7753,0.7316,0.7139,0.7139,0.7139,0.7139,0.7136,0.7044,0.7004,0.7,0.6898,0.6858,0.6858,0.6858,0.6708,0.6517,0.6517,0.6248,0.5877,0.6246,0.6393,0.6378,0.0,0.0,0.0,0.0,0.0,0.0,0.0,0.0,0.0,0.0,0.0,3.4405,3.377,3.3862,3.3736,3.3135,3.2991,3.2595,3.1741,0.0,0.0,0.0,0.0,0.0,0.0,2.3039,2.1504,1.9587,0.0,0.0,0.0,0.0,0.0,0.0,0.0,0.0,-0.5831,-0.8618,-1.1851,-1.5367,-1.7086,-1.8598,-1.9879,0.0,0.0,0.0,0.0,0.0,0.0,0.0,0.0,0.0,0.0,0.0,0.0,0.0,0.0,0.0,0.0,0.0,0.0,0.0,0.0,0.0,0.0,0.0,0.0,0.0,0.0,0.0,0.0,0.0,0.0,0.0,0.0,0.0,0.0,2.0566,2.0167,1.9125,1.831,1.7334,1.5861,1.5054,1.4496,1.4173,1.4088,1.4088,1.4088,1.3988,1.3245,1.1697,1.0763,0.962,0.8096,0.7329,0.6993,0.6993,0.6993,0.6993,0.699,0.6895,0.6851,0.6848,0.6746,0.6702,0.6702,0.6702,0.6814,0.6993,0.6993,0.6993,0.698,0.6888,0.6851,0.6837,0.0,0.0,0.0,0.0,0.0,0.0,0.0,0.0,0.0,0.0,3.5325,3.5302,3.4751,3.4694,3.4572,3.4246,3.3961,3.3634,3.3243,3.2241,0.0,0.0,0.0,0.0,2.6385,2.4847,2.3702,0.0,0.0,0.0,0.0,0.0,0.0,0.0,0.0,0.0,0.0,0.0,-1.2476,-1.5562,-1.9149,-2.0643,-2.0899,0.0,0.0,0.0,0.0,0.0,0.0,0.0,0.0,0.0,0.0,0.0,0.0,0.0,0.0,0.0,0.0,0.0,0.0,0.0,0.0,0.0,0.0,0.0,0.0,0.0,0.0,0.0,0.0,0.0,0.0,0.0,0.0,0.0,2.0566,2.0566,2.0235,1.9195,1.9036,1.8141,1.6026,1.5688,1.5282,1.4237,1.4062,1.4062,1.4062,1.3788,1.3546,1.3546,1.1201,0.9938,0.9857,0.7757,0.6698,0.6702,0.6702,0.6702,0.6785,0.6695,0.6692,0.6774,0.6688,0.6685,0.6685,0.6685,0.6685,0.6688,0.6698,0.6702,0.6702,0.6695,0.6692,0.6685,0.0,0.0,0.0,0.0,0.0,0.0,0.0,0.0,0.0,0.0,3.517,3.5083,3.4734,3.487,3.487,3.4593,3.4265,3.3931,3.3534,0.0,0.0,0.0,0.0,0.0,2.8186,2.7036,0.0,0.0,0.0,0.0,0.0,0.0,0.0,0.0,0.0,0.0,0.0,0.0,0.0,-1.607,-1.9157,-2.1504,-2.3187,0.0,0.0,0.0,0.0,0.0,0.0,0.0,0.0,0.0,0.0,0.0,0.0,0.0,0.0,0.0,0.0,0.0,0.0,0.0,0.0,0.0,0.0,0.0,0.0,0.0,0.0,0.0,0.0,0.0,0.0,0.0,2.0566,2.0566,2.0566,2.0566,2.0479,2.0167,1.9441,1.8798,1.8141,1.6452,1.5271,1.4954,1.404,1.3454,1.3454,1.3373,1.2914,1.2085,1.1439,1.0267,0.8651,0.8086,0.7435,0.6702,0.6702,0.7109,0.7757,0.6905,0.6932,0.756,0.6741,0.6383,0.6383,0.6383,0.6383,0.6403,0.6617,0.6702,0.6685,0.6576,0.6471,0.6383,0.0,0.0,0.0,0.0,0.0,0.0,0.0,0.0,0.0,0.0,3.5329,3.5295,3.5144,3.5149,3.5109,3.4937,3.4623,3.4336,3.4078,0.0,0.0,0.0,0.0,3.0819,3.0078,2.8978,0.0,0.0,0.0,0.0,0.0,0.0,0.0,0.0,0.0,0.0,0.0,0.0,0.0,0.0,-2.1965,-2.3449,-2.4165,-2.457,-2.4738,-2.4553,-2.293,-2.1806,-2.0749,-1.8893,0.0,0.0,0.0,0.0,0.0,0.0,0.0,0.0,0.0,0.0,0.0,0.0,0.0,0.0,0.0,0.0,0.0,0.0,0.0,0.0,0.0,0.0,0.0,0.0,2.0867,2.0712,2.1155,2.0857,2.0566,2.0566,1.9849,1.9182,1.8792,1.725,1.5944,1.5087,1.4223,1.3588,1.3206,1.3086,1.2694,1.2041,1.1534,1.0606,0.9271,0.8885,0.8334,0.7784,0.7784,0.81,0.8648,0.7985,0.8013,0.8471,0.737,0.7176,0.748,0.6644,0.6795,0.75,0.0,0.0,0.0,0.0,0.6332,0.6338,0.0,0.0,0.0,0.0,0.0,0.0,0.0,0.0,0.0,0.0,0.0,3.5699,3.5691,3.5491,3.5319,3.5258,3.5009,3.4821,0.0,0.0,0.0,3.313,3.3073,3.2655,3.1881,0.0,0.0,0.0,0.0,0.0,0.0,0.0,0.0,0.0,0.0,0.0,0.0,0.0,0.0,0.0,0.0,-2.6001,-2.486,-2.552,-2.5767,-2.5508,-2.3916,-2.2685,-2.1416,-1.8858,0.0,0.0,0.0,0.0,0.0,0.0,0.0,0.0,0.0,0.0,0.0,0.0,0.0,0.0,0.0,0.0,0.0,0.0,0.0,0.0,0.0,0.0,0.0,0.0,2.1375,2.1211,2.1964,2.138,2.0797,2.0566,2.0107,1.9458,1.8528,1.7947,1.6874,1.505,1.4635,1.4164,1.3342,1.2923,0.0,0.0,0.0,1.0938,1.0783,0.9895,0.9448,0.9296,0.9296,0.9372,0.9448,0.9372,0.9372,0.9448,0.8389,0.8466,0.915,0.7403,0.7706,0.9145,0.7176,0.6412,0.6338,0.6338,0.6338,0.6338,0.0,0.0,0.0,0.0,0.0,0.0,0.0,0.0,0.0,3.5675,3.5689,3.5697,3.5703,3.5651,3.5609,3.5593,3.5359,3.5116,0.0,0.0,3.4645,3.4434,3.4083,3.3757,0.0,0.0,0.0,0.0,0.0,0.0,0.0,0.0,0.0,0.0,0.0,0.0,0.0,0.0,0.0,0.0,0.0,0.0,-2.9193,-2.8476,-2.7997,-2.7554,-2.616,-2.4276,-2.2066,-1.9468,-1.6766,-1.4067,-1.2082,0.0,0.0,0.0,0.0,0.0,0.0,0.0,0.0,0.0,0.0,0.0,0.0,0.0,0.0,0.0,0.0,0.0,0.0,0.0,0.0,2.1952,2.2553,2.2867,2.2617,2.2429,2.1702,2.018,1.9668,1.9331,1.911,1.7981,1.7152,1.6706,1.4959,1.3785,1.3645,1.2857,1.2385,1.2385,1.2177,1.162,1.0783,1.0634,1.0115,0.9296,0.9296,0.0,1.049,0.9669,0.9744,1.0484,0.9442,0.9145,0.9296,0.8841,0.8917,0.9145,0.8008,0.7022,0.6338,0.6338,0.6338,0.6416,0.0,0.0,0.0,0.0,0.0,0.0,0.0,0.0,0.0,0.0,3.5798,3.5845,3.5845,3.5845,3.5834,3.5807,3.5612,0.0,0.0,3.5301,3.5237,3.5059,3.4827,0.0,0.0,0.0,0.0,0.0,0.0,0.0,0.0,0.0,0.0,0.0,0.0,0.0,0.0,0.0,0.0,0.0,0.0,0.0,-2.7557,-2.9402,-3.009,-2.983,-2.8094,-2.5863,-2.3244,-1.9931,-1.6255,-1.2553,-0.9646,-0.6667,-0.3736,0.0,0.0,0.0,0.0,0.0,0.0,0.0,0.0,0.0,0.0,0.0,0.0,0.0,0.0,2.0566,0.0,0.0,2.2104,2.2315,2.2783,2.3048,2.3041,2.2411,2.1721,2.0978,2.0114,1.9576,1.9576,1.8405,1.7385,1.6944,1.5831,1.4942,1.4458,1.4019,1.373,1.373,1.3237,1.2792,1.2265,1.1761,1.1316,1.0801,1.0801,1.1093,1.1545,1.1019,1.1099,1.1465,1.049,1.0346,1.0801,1.0801,1.0201,0.9296,0.9286,0.8685,0.7783,0.7783,0.7783,0.7859,0.0,0.0,0.0,0.0,0.0,0.0,0.0,0.0,0.0,0.0,0.0,3.5975,3.5975,3.5954,3.5917,0.0,0.0,0.0,0.0,3.5693,3.5607,3.5371,3.5364,0.0,0.0,0.0,0.0,0.0,0.0,0.0,0.0,0.0,0.0,0.0,0.0,0.0,0.0,0.0,0.0,0.0,0.0,0.0,-2.4857,-2.8685,-3.0283,-3.0221,-2.8613,-2.7044,-2.4971,-1.9837,-1.4723,-0.9904,-0.6218,-0.2994,0.0,0.3313,0.4644,0.0,0.0,0.0,0.0,0.0,0.0,0.0,0.0,0.0,1.9502,1.9362,2.0294,2.1058,2.0748,2.1686,2.2483,2.279,2.2992,2.3167,2.3418,2.243,2.1818,2.207,2.0871,2.0037,2.0037,1.8924,1.791,1.7179,1.6766,1.6289,1.5508,1.5305,1.5234,1.5234,1.4386,1.3954,1.3954,1.3237,1.2879,1.2879,1.2879,1.2879,1.2879,1.2659,1.2659,1.2799,1.2044,1.1903,1.2305,1.2732,1.1755,1.026,1.1292,1.1143,1.0329,0.9593,0.9296,0.9296,0.0,0.0,0.0,0.0,0.0,0.0,0.0,0.0,0.0,0.0,0.0,0.0,0.0,0.0,0.0,0.0,0.0,0.0,0.0,3.5699,3.5669,3.5574,3.5574,0.0,0.0,0.0,0.0,0.0,0.0,0.0,0.0,0.0,0.0,0.0,0.0,0.0,0.0,0.0,0.0,0.0,0.0,0.0,-2.5315,-2.5848,-2.5899,-2.5699,-2.5873,-2.7213,-2.7537,-1.8597,-1.0891,-0.4486,-0.1673,0.3603,0.8722,0.8585,0.0,1.2593,1.3431,1.441,1.5111,1.451,1.6199,1.802,0.0,0.0,2.1431,2.0624,2.1886,2.2794,2.1355,2.265,2.378,2.3309,2.3996,2.4384,2.3966,2.3766,2.3492,2.3046,2.1533,2.054,2.054,1.9715,1.91,1.9023,1.7522,1.6558,1.6428,1.5649,1.5234,1.5234,1.5092,1.5021,1.5021,1.495,1.4879,1.4879,1.4879,1.4879,1.4879,1.3954,1.4027,1.4879,1.4728,1.3795,1.2445,1.4163,1.4227,1.3295,1.4299,1.4649,1.4132,1.0622,0.9296,0.9448,0.0,0.0,0.0,0.0,0.0,0.0,0.0,0.0,0.0,0.0,0.0,0.0,0.0,0.0,0.0,0.0,0.0,0.0,3.5463,3.5311,3.5213,3.5185,3.5194,3.5174,0.0,0.0,0.0,0.0,0.0,0.0,0.0,0.0,0.0,0.0,0.0,0.0,0.0,0.0,0.417,-0.6663,-1.0493,-1.288,-1.3934,-1.2402,-1.1712,-1.2419,-1.886,-1.8846,0.0,0.0,-0.1562,0.41,0.7445,1.1489,1.5107,1.5387,1.616,0.0,1.7647,1.8109,1.8445,1.8323,1.935,2.0411,2.0411,2.1216,2.1808,2.1458,2.2023,2.2395,2.1762,2.2777,2.351,0.0,2.3655,2.4142,2.3577,2.3502,2.3401,2.3103,2.2494,2.1865,2.1428,2.059,2.0074,2.0074,1.9388,1.8726,1.821,1.7784,1.7385,1.6862,1.6289,1.6,1.6,1.5438,1.5234,1.5234,1.5234,1.5234,1.5163,1.4736,1.4807,1.5234,1.5234,1.4736,1.4019,1.4879,1.495,1.4593,1.5021,1.5234,1.5013,1.3324,1.2743,1.2816,0.0,0.0,0.0,0.0,0.0,0.0,0.0,0.0,0.0,0.0,0.0,0.0,0.0,0.0,0.0,0.0,0.0,0.0,0.0,3.4942,3.4833,3.4833,3.4833,0.0,3.4639,3.4658,0.0,0.0,0.0,0.0,0.0,0.0,0.0,0.0,0.0,0.0,0.0,1.3707,0.6456,-0.1742,-0.4915,-0.5126,-0.3315,-0.1127,0.0303,-0.0222,-1.0455,-0.8846,0.0,0.0,0.7859,1.3114,1.5495,1.8345,2.0927,2.1654,2.1548,2.1237,2.1415,2.14,2.1393,2.1583,2.1993,2.2306,2.2306,2.2622,2.2861,2.258,2.2916,2.3148,2.2741,2.3453,2.3887,2.3418,2.3923,2.4245,2.3819,2.3754,2.3754,2.3754,2.3754,2.3458,2.2665,2.1604,2.0974,2.0974,2.0719,2.0333,1.9694,1.9694,1.9365,1.8721,1.8065,1.7707,1.7707,1.6817,1.6332,1.6341,1.6079,1.5948,1.5948,1.6201,1.5922,1.5234,1.5992,1.5922,1.5234,1.5728,1.5738,1.5426,1.5713,1.5722,1.5627,1.5627,1.535,1.5014,0.0,0.0,0.0,0.0,0.0,0.0,0.0,0.0,0.0,0.0,0.0,0.0,0.0,0.0,0.0,0.0,0.0,0.0,0.0,3.4695,3.4714,3.4714,3.4714,3.4478,3.4023,3.4023,3.3807,0.0,0.0,0.0,0.0,0.0,0.0,0.0,0.0,0.0,0.0,1.2913,0.8221,0.1941,0.1787,0.2168,0.2852,0.3621,0.6023,0.7799,-0.1119,0.0,0.0,0.0,1.5876,2.1768,2.0522,2.3217,0.0,2.655,2.6285,2.5834,2.4605,2.4272,2.4054,2.303,2.3056,2.3319,2.3319,2.4429,2.5239,2.4201,2.5537,2.6397,2.4891,2.5472,2.5958,2.541,2.5314,2.537,2.5342,2.5342,2.5342,2.5342,2.5342,2.5063,2.4292,2.2786,2.1877,2.1877,2.1112,2.059,2.059,2.059,2.0526,2.0526,2.0462,2.0451,2.0451,1.9617,1.9166,1.9166,1.8327,1.794,1.794,1.8777,1.7716,1.5376,1.7988,1.7648,1.5376,1.7157,1.7118,1.599,1.6978,1.7074,1.6641,1.6641,1.5749,1.4498,0.0,0.0,0.0,0.0,0.0,0.0,0.0,0.0,0.0,0.0,0.0,0.0,0.0,0.0,0.0,0.0,0.0,0.0,0.0,3.3938,3.3705,3.3705,3.3423,3.3158,3.3003,3.2616,3.2214,0.0,0.0,0.0,0.0,0.0,0.0,0.0,0.0,0.0,0.0,1.2065,0.9045,0.603,0.3732,0.4278,0.6531,0.6765,0.7923,0.8978,0.0,0.0,0.0,0.0,2.226,2.4431,2.6639,2.8778,3.0446,3.0273,2.9671,2.8921,2.852,2.7875,2.7313,2.6934,2.6609,2.6329,2.6329,2.652,2.6554,2.6212,2.6662,2.6982,2.6443,2.6315,2.6221,2.6023,2.5672,2.5398,2.5398,2.5398,2.5398,2.5398,2.5398,0.0,0.0,2.4092,2.328,2.2763,2.2433,2.2051,2.1491,2.1491,2.1175,2.059,2.059,2.059,2.059,2.0333,2.0139,2.0139,1.989,1.9759,1.9738,1.9597,1.9041,1.8216,1.8785,1.8521,1.7724,1.8344,1.8312,1.7906,1.8247,1.8286,1.8148,1.8148,1.7655,1.693,0.0,0.0,0.0,0.0,0.0,0.0,0.0,0.0,0.0,0.0,0.0,0.0,0.0,0.0,0.0,0.0,0.0,0.0,0.0,0.0,3.2952,3.2952,3.2446,3.2091,3.1917,3.1325,3.083,3.0443,0.0,0.0,0.0,0.0,0.0,0.0,0.0,0.0,1.4474,1.1965,0.96,0.7435,0.5896,0.6769,0.9062,0.9185,0.9911,0.0,0.0,0.0,0.0,2.1682,2.3939,2.5548,2.8932,3.1177,3.2549,3.2704,3.2359,3.1864,3.15,3.0928,3.0312,2.9969,2.9443,2.8984,2.8984,2.871,2.8463,2.8463,2.8326,2.8186,2.8186,2.7753,2.7385,2.7385,2.7077,2.685,2.685,2.685,2.685,2.685,2.685,2.6747,0.0,0.0,2.5009,2.3975,2.393,2.3564,2.2786,2.3002,2.2628,2.1542,2.1768,2.1768,2.1479,2.1227,2.091,2.059,2.04,2.0322,2.031,1.998,1.9682,1.9427,1.9355,1.9208,1.891,1.891,1.8811,1.8666,1.8666,1.8555,1.8458,1.8458,1.8258,1.7955,0.0,0.0,0.0,0.0,0.0,0.0,0.0,0.0,0.0,0.0,0.0,0.0,0.0,0.0,0.0,0.0,0.0,0.0,0.0,0.0,0.0,3.24,3.1847,3.1325,3.0842,3.0228,2.9729,2.93,0.0,0.0,0.0,0.0,0.0,0.0,0.0,0.0,1.3561,1.2576,0.99,0.6594,0.8523,0.9711,1.0296,1.0738,0.0,0.0,0.0,0.0,0.0,0.0,0.0,2.5558,2.7812,3.0633,3.3222,3.3867,3.4378,3.4485,3.3554,3.3242,3.2955,3.2096,3.1569,3.1237,3.1237,3.1039,3.084,3.0819,3.0459,3.0137,0.0,0.0,2.9508,2.948,2.9435,2.9435,2.9406,2.9406,2.9406,0.0,0.0,0.0,0.0,0.0,0.0,2.57,2.5508,2.5063,2.4408,2.5007,2.4724,2.3245,2.3943,2.4002,2.3245,2.2433,2.1655,2.079,2.0228,1.993,1.9968,2.0241,1.9878,1.9163,1.9912,1.9831,1.9059,1.9059,1.88,1.8487,1.8487,1.8204,1.7829,1.7829,1.7829,1.7843,0.0,0.0,0.0,0.0,0.0,0.0,0.0,0.0,0.0,0.0,0.0,0.0,0.0,0.0,0.0,0.0,0.0,0.0,0.0,0.0,0.0,0.0,0.0,0.0,0.0,0.0,0.0,0.0,0.0,0.0,0.0,0.0,0.0,0.0,0.0,0.0,1.3563,1.1877,1.0173,0.8599,0.0,0.9382,0.9695,0.0,0.0,0.0,0.0,0.0,0.0,0.0,0.0,0.0,0.0,3.1549,3.3054,3.3579,3.42,3.469,3.4623,3.4452,3.4296,3.4318,3.383,3.3335,3.3338,3.3048,3.2739,3.2665,3.238,3.2181,0.0,0.0,0.0,3.058,3.0153,0.0,2.9435,2.9406,0.0,2.9406,0.0,2.9345,2.9132,2.8995,0.0,2.8403,2.65,2.5342,2.5119,2.5287,2.5231,2.4838,2.5007,2.5007,2.4838,2.4584,2.416,2.3401,2.3257,2.2968,2.2481,2.2128,2.1863,2.1655,2.1438,2.1189,2.1011,2.1011,2.0933,2.0851,2.0851,2.0759,2.0627,2.0627,2.0627,2.0654,0.0,0.0,0.0,0.0,0.0,0.0,0.0,0.0,0.0,0.0,0.0,0.0,0.0,0.0,0.0,0.0,0.0,0.0,0.0,0.0,0.0,0.0,0.0,0.0,0.0,0.0,0.0,0.0,0.0,0.0,0.0,0.0,0.0,0.0,0.0,1.4665,1.36,0.0,0.0,0.0,0.0,0.0,0.0,0.0,0.0,0.0,0.0,0.0,0.0,0.0,0.0,2.8247,3.0303,3.1581,3.2509,3.3359,0.0,3.4539,3.487,3.4921,3.4928,3.5172,3.4919,3.4596,3.4625,3.435,3.4073,3.3974,3.3677,3.3372,3.3231,3.2634,3.2036,0.0,0.0,0.0,3.0796,3.0774,3.0774,0.0,3.059,0.0,3.0443,3.0074,2.9805,2.9805,2.8148,2.699,2.6718,2.699,2.6872,2.6218,2.6222,2.6011,2.5398,2.5122,2.475,2.4391,2.3854,2.3427,2.3032,2.2462,2.2187,2.2208,2.2091,2.1937,2.1744,2.2218,2.2249,2.2062,2.2295,2.2417,2.2417,2.2417,2.2417,2.2372,0.0,0.0,0.0,0.0,0.0,0.0,0.0,0.0,0.0,0.0,0.0,0.0,0.0,0.0,0.0,0.0,0.0,0.0,0.0,0.0,0.0,0.0,0.0,0.0,0.0,0.0,0.0,0.0,0.0,0.0,0.0,0.0,0.0,0.0,0.0,0.0,0.0,0.0,0.0,0.0,0.0,0.0,0.0,0.0,0.0,0.0,0.0,0.0,0.0,0.0,2.744,2.7941,3.0203,3.1285,3.1951,3.3114,3.3773,3.4232,3.4661,3.4904,3.5097,3.5285,3.5292,3.5279,3.5333,3.5203,3.5008,3.491,0.0,3.4144,3.3846,3.3433,3.302,3.2692,0.0,3.2631,3.2517,3.2484,3.2484,3.2484,3.2127,3.188,3.188,3.1077,3.0592,3.0592,3.0031,2.9371,2.8498,2.9071,2.8794,2.7512,2.7584,2.7107,2.5957,2.5254,2.4888,2.4751,2.3597,2.3005,2.2907,2.239,2.2183,2.2168,2.2656,2.2611,2.2215,2.3169,2.3283,2.2878,2.3353,2.3549,2.3549,2.3549,2.3549,2.348,0.0,0.0,0.0,0.0,0.0,0.0,0.0,0.0,0.0,0.0,3.8697,3.7638,0.0,0.0,0.0,0.0,0.0,0.0,0.0,0.0,0.0,0.0,0.0,0.0,0.0,0.0,0.0,0.0,0.0,0.0,0.0,0.0,0.0,0.0,0.0,0.0,0.0,0.0,0.0,0.0,0.0,0.0,0.0,0.0,0.0,0.0,0.0,0.0,0.0,0.0,2.8136,2.8498,3.0517,3.1716,3.2398,3.2627,3.3248,3.3986,3.4555,3.4737,3.4878,3.5424,3.5567,3.5611,3.5623,3.5685,0.0,0.0,3.522,3.4967,3.485,3.4598,3.4172,3.3506,3.3396,3.3187,3.2598,3.2484,3.2484,0.0,3.2417,3.2384,3.2384,3.223,0.0,3.2109,3.1664,3.0767,2.9268,2.9345,2.93,2.9025,2.9041,2.8949,2.8701,2.8013,2.7326,2.6808,2.5967,2.5295,2.4742,2.4617,2.461,2.461,2.4689,2.4689,2.461,2.4808,2.4808,2.4729,2.4847,2.4886,2.4886,2.4886,2.4886,2.4847,0.0,0.0,0.0,0.0,0.0,0.0,0.0,0.0,4.0336,3.9922,3.9372,3.8501,3.7069,3.6541,0.0,0.0,0.0,0.0,0.0,0.0,0.0,0.0,0.0,0.0,0.0,0.0,0.0,0.0,0.0,0.0,0.0,0.0,0.0,0.0,0.0,0.0,0.0,0.0,0.0,0.0,0.0,0.0,0.0,0.0,0.0,0.0,0.0,0.0,0.0,0.0,2.8746,2.9632,3.1346,3.2316,3.2921,3.3136,3.3476,3.3868,3.416,3.4461,3.4775,3.51,3.5422,3.5682,3.5776,0.0,0.0,0.0,3.5543,3.54,3.5149,3.4999,0.0,3.4024,3.3901,3.3721,3.3237,3.3196,3.3196,3.3196,3.2996,3.284,3.284,3.2648,3.2484,3.2484,3.2282,3.17,3.0687,3.0468,3.0208,2.9892,2.9848,2.9717,2.9406,2.8334,2.763,2.7278,2.6206,2.5518,2.5221,2.5221,2.5221,2.5221,2.5503,2.5465,2.5259,2.5746,2.5835,2.5652,2.5908,2.598,2.598,2.598,2.598,2.5944,0.0,0.0,0.0,0.0,0.0,0.0,0.0,4.0457,4.0302,4.0022,3.969,3.9058,3.7879,3.7588,3.6964,0.0,0.0,0.0,0.0,0.0,0.0,0.0,0.0,0.0,0.0,0.0,0.0,2.6721,0.0,0.0,0.0,0.0,0.0,0.0,0.0,0.0,0.0,0.0,0.0,0.0,0.0,0.0,0.0,0.0,0.0,0.0,0.0,0.0,0.0,0.0,2.9367,3.064,3.1933,3.2681,3.3105,3.3419,3.3634,3.3815,3.385,3.4284,3.4735,3.4843,3.5238,3.565,3.5821,3.5877,0.0,3.5753,3.5717,3.5607,3.5283,3.5203,3.5073,0.0,3.4648,3.4605,3.4434,3.4437,3.431,0.0,3.3777,0.0,3.335,3.2996,0.0,3.2777,3.2713,3.2451,3.2004,3.164,3.1278,3.0778,3.0778,3.0558,3.0067,2.864,2.7919,2.7902,2.6442,2.579,2.579,2.579,2.579,2.579,2.623,2.616,2.5826,2.6623,2.6757,2.6454,2.6824,2.6971,2.6971,2.6971,2.6971,2.6889,0.0,0.0,0.0,0.0,0.0,0.0,0.0,4.0285,4.0022,3.969,3.9339,3.899,3.864,3.7936,3.7452,0.0,0.0,0.0,0.0,0.0,0.0,0.0,0.0,0.0,0.0,0.0,0.0,2.7509,2.6774,0.0,0.0,0.0,0.0,0.0,0.0,1.7269,0.0,0.0,0.0,0.0,0.0,0.0,0.0,0.0,0.0,0.0,0.0,0.0,0.0,0.0,0.0,3.0954,3.1645,3.2196,3.2583,3.2616,0.0,0.0,3.4117,3.4442,3.4754,3.4997,3.5334,3.5631,3.5696,0.0,3.5906,3.5876,3.5772,3.5667,3.5562,3.5509,3.5599,0.0,0.0,3.6178,3.6391,3.6428,3.604,3.5009,0.0,0.0,3.3808,3.3707,3.368,3.368,3.3332,3.2952,3.2451,3.2417,3.235,3.2298,3.2298,3.2264,3.2213,3.0685,2.9913,2.9927,2.8398,2.766,2.766,2.766,2.766,2.766,2.7689,2.7707,2.766,2.7736,2.7765,2.7736,2.7765,2.7783,2.7783,2.7783,2.7783,2.7765,0.0,0.0,0.0,0.0,0.0,0.0,4.0267,4.0158,3.9982,3.9645,3.9314,3.9044,3.8961,3.8508,3.8028,0.0,0.0,0.0,0.0,0.0,0.0,0.0,0.0,0.0,0.0,0.0,0.0,2.867,2.7555,0.0,0.0,0.0,0.0,0.0,0.0,1.9403,1.8111,0.0,0.0,0.0,0.0,0.0,0.0,0.0,0.0,0.0,0.0,0.0,0.0,0.0,0.0,0.0,3.1735,3.2332,0.0,0.0,3.3332,3.3815,3.391,3.433,3.4733,3.4832,3.5197,3.5574,3.5687,0.0,3.5798,3.5884,3.5797,3.5675,3.5611,3.5951,3.6243,0.0,0.0,0.0,3.7024,3.6994,3.6836,3.6381,3.5848,3.5418,0.0,0.0,3.433,3.433,3.3858,3.3634,3.3806,3.2985,3.2484,3.2484,3.2484,3.2484,3.2484,3.1437,3.069,3.0198,2.913,2.8369,2.7897,2.7897,2.7897,2.7897,2.7897,2.7897,2.7897,2.7897,2.7897,2.7897,2.7897,2.7897,2.7897,2.7897,2.7897,2.7897,0.0,0.0,0.0,0.0,0.0,4.0441,4.0251,4.0062,3.988,3.9622,3.9231,3.8971,3.8971,3.8815,3.8469,3.79,0.0,0.0,0.0,0.0,0.0,0.0,0.0,0.0,0.0,0.0,2.9978,2.9406,2.845,2.789,0.0,0.0,2.4509,2.3548,0.0,0.0,0.0,0.0,0.0,0.0,0.0,0.0,0.0,0.0,0.0,0.0,0.0,0.0,0.0,0.0,0.0,0.0,0.0,0.0,0.0,0.0,3.3494,3.3807,3.3807,3.4255,3.4694,3.4694,3.5117,3.5562,0.0,0.0,3.5791,3.5884,3.5797,3.5675,3.5611,3.6202,3.6733,0.0,0.0,3.8096,3.8057,3.8054,3.7938,3.7589,0.0,3.6432,3.5941,3.5186,3.4694,3.4694,3.4325,3.4255,3.4674,3.3729,3.3146,3.3146,3.3146,3.3146,3.3146,3.2389,3.1592,3.0785,2.9945,2.9115,2.835,2.8264,2.8228,2.8228,2.8228,2.8228,2.8228,2.8228,2.8228,2.8228,2.8228,2.8228,2.8228,2.8228,2.8228,2.8228,0.0,0.0,0.0,0.0,0.0,0.0,0.0,4.0004,3.9599,3.9599,3.9091,3.8707,3.8707,3.8707,3.8707,3.8689,0.0,0.0,0.0,0.0,0.0,0.0,0.0,0.0,0.0,0.0,2.9978,2.9406,2.9406,2.9025,2.8294,2.7663,2.6497,2.4956,0.0,0.0,0.0,0.0,0.0,0.0,0.0,0.0,0.0,0.0,0.0,0.0,0.0,0.0,0.0,0.0,0.0,0.0,0.0,0.0,0.0,0.0,3.3494,3.3807,3.3807,3.4255,3.4694,3.4694,3.5151,3.5621,0.0,3.5802,3.5903,3.5899,3.5797,3.5675,3.5611,3.6202,3.6988,3.7834,3.8719,0.0,4.0005,4.0081,3.964,0.0,3.8376,3.7716,3.6054,3.5186,3.4694,3.4694,3.4694,3.4694,3.4694,3.4674,3.4674,3.4674,3.4674,3.4674,3.4674,3.3807,3.2996,3.2166,3.1085,3.0178,2.9392,2.9112,2.8994,2.8994,2.8994,2.8994,2.8994,2.8994,2.8994,2.8994,2.8994,2.8994,2.8994,2.8994,2.8994,2.8994,0.0,0.0,0.0,0.0,0.0,0.0,0.0,3.9861,3.9529,3.9289,3.8942,3.8707,3.8707,3.8707,3.8707,3.8707,0.0,0.0,0.0,0.0,0.0,0.0,0.0,0.0,0.0,0.0,3.1719,3.1502,3.0796,3.0336,3.0153,2.9204,2.823,2.725,2.7065,2.6513,0.0,0.0,0.0,0.0,0.0,0.0,0.0,0.0,0.0,0.0,0.0,0.0,0.0,0.0,0.0,0.0,0.0,0.0,0.0,0.0,0.0,0.0,3.4353,3.4694,3.4963,3.4963,3.5292,3.5621,3.5682,3.574,3.5781,3.5874,3.5756,3.5815,3.6385,3.709,3.7873,3.8738,3.9565,0.0,0.0,0.0,0.0,3.9884,3.8833,3.7668,3.6575,3.5545,3.5053,3.5223,3.4908,3.487,3.5223,3.507,3.4889,3.4713,3.4694,3.4694,3.4694,3.443,3.36,3.2185,3.1864,3.096,2.9607,2.9533,2.9494,2.9494,2.9494,2.9494,2.9494,2.9494,2.9494,2.9494,2.9494,2.9494,2.9494,2.9494,2.9494,2.9494,0.0,0.0,0.0,0.0,0.0,0.0,0.0,3.9983,3.9668,3.9339,3.9027,3.8815,3.8689,3.8773,3.8855,3.8855,0.0,0.0,0.0,0.0,0.0,0.0,0.0,0.0,0.0,3.2583,3.2484,3.2484,3.1846,3.1539,3.1537,3.066,2.9962,2.9524,2.9307,2.8949,0.0,0.0,0.0,0.0,0.0,0.0,3.1394,0.0,0.0,0.0,0.0,0.0,0.0,0.0,0.0,0.0,0.0,0.0,0.0,0.0,3.4718,3.4602,0.0,3.4906,3.5143,3.5143,3.5434,0.0,3.578,3.5788,3.5788,3.5825,3.5978,3.6248,3.6733,3.7731,3.8661,3.92,3.9969,4.0489,0.0,0.0,0.0,4.0489,3.9315,0.0,3.7276,3.6293,3.5645,3.5512,3.519,3.5138,3.5493,3.5354,3.5155,3.4999,3.4999,3.4999,3.4999,3.4999,3.4314,3.2961,3.2534,3.1629,3.0286,2.988,2.9696,2.9696,2.9696,2.9696,0.0,2.9696,2.9696,2.9696,2.9696,2.9696,2.9696,2.9696,2.9696,2.9696,0.0,0.0,0.0,0.0,0.0,0.0,0.0,0.0,3.9982,3.9668,3.9339,3.9054,3.8792,3.899,3.9133,3.9141,0.0,0.0,0.0,0.0,0.0,0.0,0.0,0.0,0.0,3.2957,3.2699,3.2645,3.2613,3.2613,3.258,3.1986,3.1707,3.1759,3.1219,3.0976,3.1086,3.1086,3.1227,3.1515,3.2092,3.245,0.0,0.0,0.0,0.0,0.0,0.0,0.0,0.0,0.0,0.0,0.0,0.0,0.0,0.0,0.0,0.0,0.0,3.4999,3.5239,3.5239,0.0,0.0,3.5887,3.5898,0.0,3.5788,3.6366,3.688,3.6881,3.82,3.9315,3.9373,4.0008,4.0489,0.0,4.0489,0.0,0.0,3.9777,3.895,3.8084,3.7219,3.6372,3.5565,3.5493,3.5493,3.5493,3.5493,3.5493,3.5493,3.5493,3.5493,3.5493,3.5493,3.5064,3.418,3.3125,3.2176,3.1287,3.0227,2.9748,2.9748,2.9748,2.9748,2.9748,2.9748,2.9748,2.9748,2.9748,2.9748,2.9748,2.9748,2.9748,2.9748,0.0,0.0,0.0,0.0,0.0,0.0,0.0,0.0,0.0,0.0,3.969,3.9457,3.9402,3.9432,3.9524,0.0,0.0,0.0,0.0,0.0,0.0,0.0,0.0,0.0,0.0,3.5152,3.4787,3.4186,3.3815,3.3652,3.3626,3.2918,3.2908,3.3516,3.3398,3.384,3.4667,3.4667,3.4903,3.5229,3.5383,3.5299,0.0,0.0,0.0,0.0,3.468,3.4871,0.0,0.0,0.0,0.0,0.0,0.0,0.0,0.0,3.5571,3.556,3.5485,0.0,3.5577,3.5577,3.5735,3.5871,0.0,3.5759,3.5905,3.6493,0.0,3.7126,3.8445,3.9008,3.9488,4.0104,4.0373,4.0489,4.0489,4.0489,0.0,4.0489,3.9777,3.895,3.8084,3.7219,3.6372,3.5565,3.5493,3.5493,3.5493,3.5493,3.5493,3.5493,3.5493,3.5493,3.5493,3.5493,3.5064,3.418,3.3275,3.2397,3.1559,3.0657,3.0247,3.0247,3.0247,3.0247,3.0247,3.0247,3.0247,3.0247,3.0247,3.0247,3.0247,3.0247,3.0247,3.0247,0.0,0.0,0.0,0.0,0.0,0.0,0.0,0.0,0.0,0.0,0.0,0.0,0.0,0.0,0.0,0.0,0.0,0.0,0.0,0.0,0.0,0.0,0.0,0.0,3.6559,3.6594,3.6385,3.5875,3.5704,3.5609,3.5609,3.5216,3.5252,3.566,3.5702,3.6058,3.6642,3.6642,3.6823,3.7144,3.7144,0.0,0.0,0.0,0.0,0.0,3.5259,3.5338,0.0,3.5426,3.5493,3.56,0.0,0.0,0.0,0.0,3.5735,3.5797,3.5797,3.5797,3.5797,3.5797,3.5857,3.5879,3.5815,0.0,0.0,0.0,0.0,3.818,3.9123,3.9639,4.0053,4.0427,4.0545,4.0574,0.0,0.0,4.0489,4.0489,4.0104,3.9354,3.8123,3.7565,3.6796,3.5603,3.5493,3.5493,3.5493,3.5493,3.5493,3.5493,3.5493,3.5493,3.5493,3.5493,3.5257,3.4776,3.353,3.2717,3.2254,3.1033,3.05,3.05,3.0462,3.0462,3.0491,3.0428,3.0425,3.0451,3.0451,3.0451,3.0462,3.0482,3.05,3.05,0.0,0.0,0.0,0.0,0.0,0.0,0.0,0.0,0.0,0.0,0.0,0.0,0.0,0.0,0.0,0.0,0.0,0.0,0.0,0.0,0.0,0.0,0.0,3.8584,3.7667,3.777,3.7693,3.744,3.7577,3.7617,3.7617,3.7591,3.7636,3.7771,3.7874,3.7977,3.8003,3.8003,3.8133,3.8336,3.8336,0.0,0.0,0.0,0.0,0.0,0.0,0.0,0.0,3.5723,3.5717,3.571,3.5723,0.0,0.0,0.0,0.0,0.0,3.5913,3.5913,3.5913,3.5913,3.5918,3.588,3.5873,0.0,0.0,0.0,0.0,0.0,0.0,4.0146,0.0,4.0545,0.0,0.0,4.0545,4.0519,4.0519,4.054,4.0515,3.985,3.8185,3.8003,3.7296,3.5641,3.5493,3.5488,3.5495,3.5528,3.5522,3.5528,3.5528,3.5528,3.5528,3.5522,3.5522,3.5509,3.3963,3.3161,3.2976,3.1481,3.0722,3.06,3.0545,0.0,3.0594,3.0472,3.0462,3.0524,3.0524,3.0524,3.0521,3.0581,3.0606,3.06,0.0,0.0,0.0,0.0,0.0,0.0,0.0,0.0,0.0,0.0,0.0,0.0,0.0,0.0,0.0,0.0,0.0,0.0,0.0,0.0,0.0,0.0,4.0598,4.009,3.9265,3.9263,3.8913,3.8147,3.8163,3.8171,3.8171,3.7948,3.8236,3.8961,3.9646,4.007,4.0293,4.0293,4.0321,4.0349,4.0349,0.0,0.0,0.0,0.0,0.0,0.0,0.0,0.0,3.5873,3.5797,3.5717,3.5836,0.0,0.0,0.0,0.0,0.0,3.5976,3.5976,3.5976,3.5976,3.593,3.5873,3.5761,0.0,0.0,0.0,0.0,0.0,0.0,4.0505,4.0559,0.0,0.0,4.0559,0.0,0.0,4.0563,4.0723,4.0591,3.989,3.8326,3.8067,3.7296,3.5641,3.5493,3.5534,3.5588,3.5579,3.5611,3.5679,3.5679,3.5679,3.5679,3.5611,3.5621,3.5659,3.4729,3.3881,3.3135,3.2143,3.1312,3.0606,0.0,3.0594,3.06,3.0575,3.0575,3.0587,3.0587,3.0587,3.0587,3.06,3.0606,3.06,0.0,0.0,0.0,0.0,0.0,0.0,0.0,0.0,0.0,0.0,0.0,0.0,0.0,0.0,0.0,0.0,0.0,0.0,0.0,0.0,0.0,4.0988,4.0869,4.0659,4.0354,4.0426,4.0231,3.975,3.9825,3.9878,3.9858,3.9739,3.9901,4.0306,4.0671,4.0901,4.1023,4.1023,4.1023,4.1023,0.0,0.0,0.0,0.0,0.0,0.0,0.0,0.0,0.0,0.0,3.5903,3.5874,3.5927,0.0,0.0,0.0,0.0,0.0,3.5996,3.5996,3.5996,3.5996,3.5948,3.6013,3.6421,0.0,0.0,0.0,0.0,0.0,0.0,0.0,4.0712,4.0832,0.0,4.069,4.0752,4.0701,4.0692,4.0785,4.0325,3.9536,3.8373,3.7773,3.6938,3.5698,3.5601,3.5611,3.5655,3.5655,3.5679,3.5703,3.5703,3.5729,3.5807,3.5768,3.5749,3.5684,3.4909,3.4106,3.3229,3.2423,3.1597,3.0755,0.0,3.0696,3.0752,3.0638,3.0628,3.0642,3.0642,3.0642,3.0665,3.0749,3.0757,3.0755,0.0,0.0,0.0,0.0,0.0,0.0,0.0,0.0,0.0,0.0,0.0,0.0,0.0,0.0,0.0,0.0,0.0,0.0,0.0,0.0,4.0766,4.0701,4.0766,4.0852,4.0954,4.1053,4.1053,4.0953,4.1053,4.1105,4.1105,4.1105,4.1105,4.1105,4.1105,4.1105,4.1105,4.1105,4.1105,4.1105,0.0,0.0,0.0,0.0,0.0,0.0,0.0,0.0,0.0,0.0,0.0,0.0,0.0,0.0,0.0,3.5996,3.5996,3.5996,3.5975,3.5974,3.5974,3.593,0.0,3.6372,3.7054,0.0,0.0,0.0,0.0,0.0,0.0,4.0781,0.0,4.0922,4.085,4.0809,4.0831,4.0816,4.0816,4.0896,4.0123,3.9264,3.8403,3.752,3.665,3.5762,3.5703,3.5717,3.5755,3.5755,3.5741,3.5763,3.5763,3.5821,3.5916,3.5916,3.5861,3.5763,3.5197,3.4354,3.33,3.2732,3.1894,3.0898,3.0792,3.0814,3.0898,3.0726,3.0696,3.0745,3.0745,3.0745,3.0767,3.0858,3.0898,3.0898,0.0,0.0,0.0,0.0,0.0,0.0,0.0,0.0,0.0,0.0,0.0,0.0,0.0,0.0,0.0,0.0,0.0,0.0,0.0,0.0,4.0693,4.0436,4.0664,4.0809,4.0811,4.0824,4.0824,4.0811,4.0824,4.0824,4.0824,4.0824,4.0824,4.0824,4.0824,4.0824,4.0824,4.0824,4.0824,4.0824,4.0824,0.0,0.0,0.0,0.0,0.0,0.0,0.0,0.0,0.0,0.0,0.0,0.0,0.0,3.5996,3.5996,3.5996,3.5995,3.5918,3.5907,3.5877,3.5741,3.6416,0.0,3.7191,3.8291,0.0,3.956,0.0,0.0,0.0,4.0793,4.0788,4.0729,4.0771,4.0831,4.0964,4.0877,4.0883,4.1149,4.0233,3.9273,3.8471,3.7539,3.663,3.5762,3.5703,3.5761,3.5877,3.5896,3.5916,3.5976,3.5976,3.5976,3.5996,3.5996,3.5996,3.5976,3.5918,3.5019,3.3398,3.334,3.2422,3.0898,3.0898,3.0898,3.0898,3.0879,3.0879,3.0898,3.0898,3.0898,3.0898,3.0898,3.0898,3.0898,0.0,0.0,0.0,0.0,0.0,0.0,0.0,0.0,0.0,0.0,0.0,0.0,0.0,0.0,0.0,0.0,0.0,0.0,0.0,0.0,4.002,3.991,4.0001,4.0055,4.0055,4.0391,4.0458,4.0236,4.0236,4.0236,4.0236,4.0236,4.0236,4.0249,4.0458,4.0558,4.0558,4.0729,4.0801,4.0762,4.0256,3.933,0.0,0.0,0.0,0.0,0.0,0.0,0.0,0.0,3.5791,3.5783,0.0,0.0,3.5947,3.5996,3.5996,3.5996,3.5973,3.5951,3.595,3.5901,3.6981,0.0,0.0,3.8731,3.9674,4.017,4.0539,0.0,0.0,0.0,4.1046,4.1027,4.1019,4.1077,4.1126,4.108,4.0887,4.0449,3.9563,3.8654,3.7807,3.6901,3.6247,3.5918,3.5899,3.5903,3.5951,3.5951,3.5974,3.5996,3.5996,3.5996,3.5996,3.5996,3.5996,3.5996,3.5996,3.5098,3.3398,3.3398,3.248,3.0898,3.0898,3.0898,3.0898,3.0898,3.0898,3.0898,3.0898,3.0898,3.0898,3.0898,3.0898,3.0898,0.0,0.0,0.0,0.0,0.0,0.0,0.0,0.0,0.0,0.0,0.0,0.0,0.0,0.0,0.0,0.0,0.0,0.0,0.0,3.9554,3.9486,3.9233,3.9467,3.9505,3.9327,3.9776,3.9934,3.9809,3.9809,3.9809,3.9809,3.9809,3.9809,3.9828,4.0057,4.0138,4.0173,4.0339,4.0275,3.9985,3.9437,3.8524,0.0,0.0,0.0,0.0,0.0,0.0,0.0,0.0,3.5679,0.0,0.0,0.0,0.0,0.0,3.5996,3.5996,3.5974,3.5973,3.5953,3.5927,0.0,0.0,3.8325,3.9208,4.0208,4.0762,4.0863,0.0,4.0988,0.0,0.0,0.0,4.1171,4.1191,4.1191,4.0957,4.0566,3.9961,3.8887,3.7969,3.7363,3.6504,3.5996,3.5996,3.5996,3.5996,3.5996,3.5996,3.5996,3.5996,3.5996,3.5996,3.5996,3.5996,3.5996,3.5996,3.5723,3.4824,3.3398,3.3144,3.2246,3.0898,3.0898,3.0898,3.0898,3.0898,3.0898,3.0898,3.0898,3.0879,3.084,3.084,3.082,3.0781,0.0,0.0,0.0,0.0,0.0,0.0,0.0,0.0,0.0,0.0,0.0,0.0,0.0,0.0,0.0,0.0,0.0,0.0,3.8827,3.9276,3.9207,3.8426,3.9156,3.9301,3.8707,3.8961,3.9238,3.9599,3.9599,3.9599,3.9599,3.9599,3.9599,3.9599,3.9599,3.9599,3.9599,3.958,3.9127,3.8395,3.8376,3.7376,3.5926,0.0,0.0,0.0,0.0,0.0,0.0,0.0,3.5611,0.0,0.0,0.0,0.0,0.0,3.5996,3.5995,3.5913,3.5903,3.5873,0.0,0.0,0.0,3.8298,3.9705,4.1049,4.1171,0.0,4.0996,4.0996,4.0996,0.0,4.0996,4.1105,4.1191,4.1191,4.0449,3.9883,3.9883,3.8359,3.7305,3.7285,3.6504,3.5996,3.5996,3.5996,3.5996,3.5996,3.5996,3.5996,3.5996,3.5996,3.5996,3.5996,3.5996,3.5996,3.5996,3.5117,3.4238,3.3379,3.2578,3.1719,3.0898,3.0898,3.0898,3.0898,3.0898,3.0898,3.0898,3.0898,3.082,3.0703,3.0703,3.0664,3.0605,0.0,0.0,0.0,0.0,0.0,0.0,0.0,0.0,0.0,0.0,0.0,0.0,0.0,0.0,0.0,0.0,0.0,0.0,3.7662,3.7835,3.7819,3.756,3.7785,3.7821,3.7632,3.7719,3.8158,3.897,3.897,3.897,3.897,3.897,3.897,3.897,3.9171,3.9238,3.9226,3.8907,3.8622,3.8301,3.7112,3.6338,3.5849,0.0,0.0,0.0,0.0,0.0,0.0,0.0,0.0,0.0,0.0,0.0,0.0,3.5953,3.5996,3.5996,3.5974,3.5973,0.0,3.5927,0.0,0.0,0.0,3.9731,0.0,0.0,4.1026,4.1026,4.1126,4.1149,0.0,4.1149,4.0663,4.0293,4.0293,3.9531,3.8769,3.8144,3.7617,3.7051,3.6445,3.6152,3.5996,3.5996,3.5996,3.5996,3.5996,3.597,3.594,3.594,3.5834,3.5792,3.5792,3.5792,3.5792,3.5773,3.433,3.3568,3.3379,3.2578,3.1719,3.0898,3.0898,3.0898,3.0898,3.0793,3.0735,3.0685,3.069,3.0655,3.0625,3.0625,3.0622,3.0582,0.0,0.0,0.0,0.0,0.0,0.0,0.0,0.0,0.0,0.0,0.0,0.0,0.0,0.0,0.0,0.0,0.0,0.0,0.0,0.0,3.6273,3.6084,3.6527,3.6911,3.7173,3.719,3.7487,3.8083,3.8083,3.8201,3.8382,3.8201,3.8083,3.8117,3.7922,3.7863,3.7839,3.7257,3.6832,3.6461,3.5621,3.5095,3.4809,0.0,0.0,0.0,0.0,0.0,0.0,0.0,0.0,0.0,0.0,0.0,0.0,3.5932,3.5996,3.5996,3.5996,3.5996,0.0,3.5996,3.7051,3.8262,3.8965,0.0,0.0,0.0,4.108,4.1103,4.1191,4.1191,0.0,4.0742,4.0234,3.9785,3.9434,3.8633,3.7891,3.7363,3.6992,3.6582,3.6055,3.5996,3.5996,3.5951,3.5951,3.5948,3.5879,3.583,3.5812,3.5812,3.5729,3.5703,3.5703,3.5703,3.5703,3.5684,3.3991,3.3244,3.328,3.209,3.127,3.0782,3.0782,3.0782,3.076,3.07,3.0643,3.0611,3.0598,3.059,3.055,3.0565,3.0541,3.0506,0.0,0.0,0.0,0.0,0.0,0.0,0.0,0.0,0.0,0.0,0.0,0.0,0.0,0.0,0.0,0.0,0.0,0.0,0.0,0.0,3.4777,3.4249,3.5365,3.6313,3.702,3.7058,3.7058,3.7152,3.719,3.7433,3.7825,3.7396,3.7137,3.7086,3.6342,3.597,3.5846,3.5102,3.4357,3.3718,3.4078,3.3803,3.3196,3.3862,0.0,0.0,0.0,0.0,0.0,0.0,0.0,0.0,0.0,3.5703,3.5741,3.5932,3.5996,3.5996,3.5996,3.5996,0.0,3.5996,3.666,0.0,3.9394,4.0391,4.1016,4.1172,0.0,4.1074,4.1074,4.1016,4.0703,3.9902,3.9707,3.9394,3.8594,3.7734,3.7187,3.7187,3.6484,3.5996,3.5996,3.5996,3.5973,3.5907,3.5903,3.5841,3.571,3.5696,3.5689,3.5689,3.5682,3.5682,3.5682,3.5682,3.5643,3.5546,3.3952,3.3128,3.3018,3.1358,3.0606,3.0606,3.0606,3.06,3.0594,3.0594,3.0587,3.0587,3.0575,3.0545,3.0483,3.0487,3.0456,3.0398,0.0,0.0,0.0,0.0,0.0,0.0,0.0,0.0,0.0,0.0,0.0,0.0,0.0,0.0,0.0,0.0,0.0,0.0,0.0,0.0,3.3856,3.3738,3.4493,3.5244,3.5924,3.5924,3.6139,3.6563,3.6981,3.7248,3.736,3.7248,3.6874,3.6254,3.6076,3.5669,3.5066,3.4286,3.3878,3.3631,3.3113,3.2791,3.2713,3.3237,3.3543,0.0,0.0,0.0,0.0,0.0,0.0,0.0,3.5663,3.5703,3.5741,3.5932,3.5996,3.5996,3.5996,3.5996,0.0,0.0,3.666,3.7578,3.8633,3.9023,3.9551,4.0918,4.0664,4.0176,4.0176,3.9629,3.9101,3.8906,3.8301,3.7793,3.7617,3.6836,3.6289,3.6289,3.6113,3.5996,3.5996,3.5996,3.5973,3.5907,3.5903,3.5841,3.571,3.5646,3.5611,3.5611,3.5566,3.5534,3.5534,3.5534,3.5198,3.4504,3.3462,3.2632,3.1995,3.1025,3.0606,3.0606,3.0606,3.0568,3.0513,3.0513,3.05,3.0441,3.0442,3.0442,3.0432,3.0424,3.0413,3.0398,0.0,0.0,0.0,0.0,0.0,0.0,0.0,0.0,0.0,0.0,0.0,0.0,0.0,0.0,0.0,0.0,0.0,0.0,0.0,0.0,0.0,3.3093,3.3443,3.3937,3.4609,3.4958,3.5266,3.5548,3.613,3.6563,0.0,0.0,3.5659,3.5226,3.4536,3.4036,3.3601,3.2817,3.2505,3.247,3.2267,3.2161,3.2196,3.2681,3.3082,3.3497,3.4,0.0,0.0,0.0,0.0,0.0,0.0,0.0,3.5729,3.5896,3.5974,3.5996,3.5996,0.0,0.0,3.5996,0.0,3.7377,3.7871,3.8259,3.8762,3.966,3.9549,3.9277,3.9277,3.8906,3.8457,3.8047,3.7598,3.7148,3.6692,3.6241,3.5925,3.5851,3.5868,3.5868,3.5868,3.5868,3.5825,3.5756,3.5768,3.5706,3.5601,3.5566,3.5558,3.5558,3.5509,3.5493,3.5493,3.5493,3.5064,3.418,3.3314,3.2256,3.1064,3.0675,3.0498,3.0498,3.0498,3.0482,3.0442,3.0442,3.0439,3.0398,3.0398,3.0398,3.0398,3.0398,3.0398,3.0398,0.0,0.0,0.0,0.0,0.0,0.0,0.0,0.0,0.0,0.0,0.0,0.0,0.0,0.0,0.0,0.0,0.0,0.0,0.0,0.0,0.0,3.2336,3.2532,3.3002,3.3735,3.4333,3.4688,3.4783,3.5316,0.0,0.0,0.0,0.0,3.4049,3.2814,3.2246,3.2053,3.1444,3.119,3.123,3.1565,3.1696,3.177,3.2196,3.2616,3.3009,3.346,3.3981,3.4574,3.4981,0.0,0.0,0.0,0.0,3.5703,3.5864,3.5945,3.5995,3.5996,0.0,3.5975,3.5954,3.6445,0.0,3.7005,3.7499,3.7925,3.7925,3.8151,3.8358,3.8336,3.82,3.7868,3.7144,3.7027,3.6747,3.5974,3.5869,3.5812,3.5717,3.5703,3.5703,3.5703,3.5703,3.5667,3.5621,3.5611,3.5566,3.5488,3.5493,3.5493,3.5493,3.5493,3.5493,3.5493,3.5493,3.4988,3.3949,3.2949,3.1737,3.0398,3.0398,3.0398,3.0398,3.0398,3.0398,3.0398,3.0398,3.0398,3.0398,3.0398,3.0359,3.0321,3.0321,3.0302,3.0283,0.0,0.0,0.0,0.0,0.0,0.0,0.0,0.0,0.0,0.0,0.0,0.0,0.0,0.0,0.0,0.0,0.0,0.0,2.9002,0.0,0.0,3.1444,3.221,3.3198,3.4431,3.4528,3.4894,3.547,0.0,0.0,0.0,0.0,0.0,3.2577,0.0,3.1935,3.1326,3.1241,3.119,3.119,3.1252,3.1291,3.1329,3.1733,3.1915,3.2144,3.3208,3.3666,3.3889,3.4794,3.5122,0.0,0.0,0.0,3.5639,3.5831,3.5907,3.5938,0.0,0.0,3.5884,0.0,3.5827,3.5905,0.0,0.0,3.6054,0.0,3.6777,3.7347,3.7239,3.6598,3.6053,3.5936,3.5917,3.5872,3.5743,3.5723,3.5717,3.571,3.5703,3.5703,3.5703,3.5703,3.5667,3.5621,3.5611,3.5566,3.5488,3.5493,3.5493,3.5493,3.5493,3.5493,3.5493,3.5493,3.468,3.3045,3.1487,3.0609,3.0398,3.0398,3.0398,3.0398,3.0398,3.0398,3.0398,3.0398,3.0398,3.0398,3.0398,3.0263,3.0052,3.0052,2.9944,2.979,0.0,0.0,0.0,0.0,0.0,0.0,0.0,0.0,0.0,0.0,0.0,0.0,0.0,0.0,0.0,2.7604,2.7604,2.7802,2.8247,2.862,2.9164,2.9986,3.0867,3.1562,3.2158,3.3431,3.4186,3.4496,0.0,0.0,0.0,3.344,3.2899,0.0,0.0,0.0,0.0,3.119,3.119,3.119,3.119,3.119,3.123,3.1389,3.1603,3.188,3.2411,3.3033,3.3666,3.4111,3.462,3.5138,3.5268,0.0,0.0,0.0,3.5841,3.5916,3.5934,3.5916,3.5869,0.0,3.5667,3.5655,3.5696,3.5659,3.5638,3.5638,3.6009,3.63,3.6274,3.5963,3.5703,3.5703,3.5703,3.5689,3.5646,3.5638,3.563,3.559,3.5579,3.5579,3.5579,3.5579,3.5577,3.5546,3.5534,3.5528,3.5507,3.5493,3.5493,3.5493,3.5493,3.5493,3.5493,3.5493,3.4641,3.2872,3.1198,3.0398,3.0398,3.0398,3.0398,3.0398,3.0398,3.0398,3.0379,3.0244,3.0186,3.0167,3.0052,2.9944,2.9819,2.9834,2.9775,2.97,0.0,0.0,0.0,0.0,0.0,0.0,0.0,0.0,0.0,0.0,0.0,0.0,0.0,0.0,0.0,0.0,2.6533,2.6782,2.7351,2.7604,2.7986,2.862,2.969,3.0375,3.0526,3.2384,3.3479,0.0,0.0,0.0,3.3389,3.2645,3.2188,0.0,3.1444,3.119,0.0,0.0,0.0,0.0,3.119,3.119,3.119,3.119,3.1389,3.166,3.1752,3.2444,3.334,3.3533,3.4222,3.4999,3.5088,3.5316,0.0,0.0,0.0,0.0,0.0,0.0,3.5831,3.5689,3.5621,3.5579,0.0,0.0,3.5577,0.0,3.5577,3.559,3.5648,3.5646,3.5646,3.5646,3.5646,3.563,3.5588,3.5577,3.557,3.552,3.5493,3.5493,3.5493,3.5493,3.5493,3.5493,3.5493,3.5493,3.5493,3.5493,3.5493,3.5493,3.5493,3.5493,3.5493,3.5064,3.4199,3.2872,3.1198,3.0367,3.0299,3.0299,3.0299,3.0299,3.0299,3.0273,3.0215,3.0023,2.9914,2.9914,2.9761,2.9669,2.9623,2.9628,2.9577,2.9522,0.0,0.0,0.0,0.0,0.0,0.0,0.0,0.0,0.0,0.0,0.0,0.0,2.6533,2.6533,2.6533,2.6533,2.6533,2.6521,2.6589,2.7297,2.7736,2.7802,2.938,0.0,3.12,3.2139,0.0,0.0,0.0,0.0,3.3389,3.2645,3.1918,3.1258,3.1207,3.119,3.119,0.0,0.0,0.0,0.0,3.119,0.0,3.119,3.123,3.1291,3.166,3.2127,3.2677,3.3368,3.4102,3.4773,3.5016,3.5289,3.5509,0.0,0.0,0.0,0.0,3.5807,0.0,3.5611,3.555,0.0,0.0,0.0,3.552,3.552,3.552,3.552,3.5501,3.5515,3.5515,3.5515,3.5515,3.5501,3.552,3.552,3.5488,3.5507,3.5493,3.5493,3.5493,3.5493,3.5493,3.5493,3.5493,3.5493,3.5493,3.5493,3.5493,3.5493,3.5493,3.5493,3.5493,3.3872,3.2987,3.2872,3.1198,3.0267,3.0013,3.0013,3.0013,3.0013,3.0013,2.9908,2.9731,2.9712,2.9712,2.9712,2.9693,2.9569,2.9425,2.9412,2.926,2.9053,0.0,0.0,0.0,0.0,0.0,0.0,0.0,0.0,0.0,0.0,0.0,0.0,0.0,2.6533,2.6245,2.5581,2.5523,2.5523,2.5523,2.6414,2.6905,2.6905,2.8051,2.8975,2.9818,3.1114,0.0,0.0,0.0,3.2574,3.2107,3.1756,3.1444,3.119,3.119,3.119,3.119,3.119,0.0,0.0,0.0,0.0,0.0,0.0,0.0,3.1252,3.166,3.2092,3.2583,3.3141,3.3792,3.4423,3.4754,3.5035,3.5292,3.5573,3.578,0.0,0.0,0.0,0.0,3.5621,3.5558,3.5493,3.5493,3.5493,3.5446,3.5289,3.5239,3.519,3.5016,3.5273,3.5493,3.5493,3.5493,3.5446,3.5273,3.5239,3.519,3.4999,3.4981,3.4981,3.4981,3.5138,3.5239,3.5239,3.5398,3.5493,3.5493,3.5339,3.5239,3.5239,3.5088,3.4981,3.4981,3.3289,3.245,3.2431,3.0741,2.9896,2.9813,2.9813,2.9748,2.9607,2.9607,2.9731,2.9877,2.9604,2.9513,2.9491,2.9319,2.9215,2.9145,2.9145,2.909,2.8994,0.0,0.0,0.0,0.0,0.0,0.0,0.0,0.0,0.0,0.0,0.0,0.0,0.0,0.0,2.6094,2.5087,2.4707,2.4636,2.5004,2.5664,2.6164,2.6465,2.7297,2.8117,2.9002,3.01,0.0,0.0,0.0,0.0,0.0,3.1254,3.119,3.119,3.119,3.119,0.0,0.0,0.0,3.119,0.0,0.0,3.119,0.0,0.0,3.1252,3.166,3.2092,3.2583,3.3045,3.3723,3.4379,3.4508,3.4774,3.5178,3.5571,0.0,0.0,3.5915,0.0,0.0,0.0,3.5568,3.5534,3.552,3.5493,3.5446,3.5273,3.5155,3.5053,3.487,3.5034,3.5223,3.5223,3.5223,3.5174,3.4981,3.4963,3.4908,3.4714,3.4694,3.4694,3.4694,3.487,3.4963,3.4963,3.5122,3.5223,3.5223,3.507,3.4963,3.4963,3.4793,3.4694,3.4694,3.3034,3.2185,3.2166,3.0506,2.9661,2.9607,2.9607,2.9532,2.9392,2.931,2.9416,2.9641,2.9379,2.9263,2.9248,2.9079,2.8994,2.8994,2.8994,2.8994,2.8994,0.0,0.0,0.0,0.0,0.0,0.0,0.0,0.0,0.0,0.0,0.0,0.0,0.0,0.0,0.0,2.5004,2.4036,2.3891,2.4862,2.4933,2.5441,2.6383,2.7217,2.8051,2.8939,2.9157,0.0,0.0,0.0,0.0,0.0,0.0,3.119,3.119,3.119,3.119,3.119,0.0,3.119,3.119,0.0,3.119,3.119,0.0,3.119,3.1252,3.166,3.2092,3.2583,3.3045,3.388,3.4632,0.0,0.0,0.0,0.0,0.0,0.0,0.0,0.0,0.0,0.0,0.0,0.0,3.5495,0.0,3.5493,3.5479,3.5273,3.5088,3.5051,3.4832,3.4674,3.4674,3.4674,3.4694,3.4674,3.4674,3.4674,3.4674,3.4674,3.4674,3.4674,3.4674,3.4674,3.4674,3.4694,3.4694,3.4694,3.4694,3.4674,3.4674,3.4674,3.4674,3.4674,3.3014,3.2185,3.2147,3.0488,2.957,2.9392,2.9392,2.9392,2.9372,2.9112,2.8994,2.8994,2.8994,2.8994,2.8994,2.8994,2.8994,2.8994,2.8994,2.8994,2.8994,0.0,0.0,0.0,0.0,0.0,0.0,0.0,0.0,0.0,0.0,0.0,0.0,2.4397,2.3649,2.3136,2.285,2.2553,2.2553,2.2776,2.4192,2.5158,2.537,2.6358,2.7229,2.8051,2.8284,2.8663,0.0,0.0,0.0,0.0,0.0,0.0,0.0,3.119,3.119,3.119,3.119,0.0,3.119,3.119,3.119,0.0,0.0,3.119,3.1252,3.166,3.2092,3.2583,3.3045,3.357,3.4111,0.0,0.0,0.0,0.0,0.0,0.0,3.5887,0.0,0.0,0.0,0.0,0.0,3.5488,3.5493,3.5383,3.4999,3.4851,3.4694,3.4237,3.4111,3.4055,3.4055,3.4416,3.4632,3.4379,3.4334,3.4265,3.4062,3.4055,3.4055,3.4055,3.4218,3.4334,0.0,3.4551,3.4694,3.4694,3.4467,3.4242,3.4055,3.4055,3.4055,3.4055,3.2427,3.1612,3.1594,2.9984,2.916,2.9112,2.9112,2.9112,2.9112,2.904,2.8994,2.8994,2.8994,2.8994,2.8994,2.8994,2.8994,2.8994,2.8994,2.8994,2.8994,0.0,0.0,0.0,0.0,0.0,0.0,0.0,0.0,0.0,0.0,0.0,0.0,0.0,2.2627,2.2027,2.2027,2.1669,2.1593,2.1952,2.3514,2.4564,2.5004,2.5943,2.6905,2.767,2.7588,2.7837,0.0,0.0,0.0,0.0,0.0,0.0,0.0,0.0,0.0,0.0,0.0,0.0,0.0,3.119,0.0,0.0,3.119,3.119,3.1252,3.166,3.2004,3.2298,3.2983,3.3465,3.3921,3.4526,0.0,0.0,0.0,0.0,0.0,0.0,0.0,0.0,0.0,0.0,0.0,3.5515,3.5398,3.5239,3.4926,3.4655,3.4379,3.4018,3.3895,3.3807,3.3807,3.4105,3.4279,3.4068,3.4018,3.3986,3.3815,3.3807,3.3807,3.3807,3.3935,3.4018,3.4018,3.4213,3.4307,3.4307,3.4141,3.3961,3.3788,3.3807,3.3807,3.3807,3.2192,3.1384,3.1366,2.9769,2.8994,2.8994,2.8994,2.8994,2.8994,2.8994,2.8994,2.8994,2.8994,2.8994,2.8994,2.8994,2.8994,2.8994,2.8994,2.8994,2.8994,0.0,0.0,0.0,0.0,0.0,0.0,0.0,0.0,0.0,0.0,0.0,0.0,0.0,0.0,0.0,2.1811,2.1078,2.0934,2.1811,2.2776,2.3745,2.4636,2.5734,2.6663,2.73,2.7023,2.7256,0.0,0.0,0.0,0.0,0.0,0.0,0.0,0.0,0.0,0.0,0.0,0.0,3.1252,3.123,3.119,0.0,0.0,3.119,3.1269,3.1603,3.1789,3.2022,3.2934,3.3494,3.3895,3.4483,3.4674,0.0,0.0,3.5424,0.0,0.0,0.0,0.0,0.0,3.5703,0.0,3.554,3.532,3.5138,3.5105,3.4656,3.4246,3.42,3.3986,3.3807,3.3807,3.3807,3.3807,3.3807,3.3807,3.3807,3.3807,3.3807,3.3807,3.3807,3.3807,3.3807,3.3807,3.3807,3.3807,3.3807,3.3807,3.3807,3.3807,3.3807,3.3807,3.3807,3.2192,3.1384,3.1366,2.9769,2.8994,2.8994,2.8994,2.8994,2.8929,2.8994,2.8975,2.8929,2.8929,2.8952,2.8994,2.8994,2.8994,2.8994,2.8994,2.8994,2.8994,1.823,0.0,0.0,0.0,0.0,0.0,0.0,0.0,0.0,0.0,0.0,0.0,0.0,0.0,0.0,0.0,2.0712,2.0712,2.0857,2.1745,2.2403,2.2553,2.4337,2.5165,2.4925,2.5678,2.629,0.0,0.0,0.0,0.0,0.0,0.0,0.0,0.0,0.0,0.0,0.0,0.0,3.166,3.1312,3.119,3.119,3.119,3.119,3.119,3.1291,3.175,3.2517,3.3372,3.3734,3.3868,3.4195,3.4467,3.4754,3.503,0.0,0.0,0.0,0.0,0.0,0.0,3.5742,0.0,3.5599,3.5496,3.5369,3.5138,3.4832,3.4529,3.4246,3.3986,3.3807,3.3807,3.3807,3.3807,3.3807,3.3807,3.3807,3.3807,3.3807,3.3807,3.3807,3.3807,3.3807,3.3807,3.3807,3.3807,3.3807,3.3807,3.3807,3.3807,3.3807,3.3807,3.3807,3.2192,3.1384,3.1366,2.9769,2.8994,2.8994,2.8994,2.8839,2.854,2.8863,2.8815,2.8515,2.8515,2.8707,2.8994,2.8994,2.8994,2.8994,2.8994,2.8994,2.8994,1.7178,0.0,0.0,0.0,0.0,0.0,0.0,0.0,0.0,0.0,0.0,0.0,0.0,0.0,0.0,0.0,0.0,0.0,2.0566,2.1441,2.2027,2.2027,2.3891,2.4767,2.4243,2.5307,2.5813,0.0,0.0,0.0,0.0,0.0,0.0,0.0,0.0,0.0,0.0,0.0,3.1329,3.147,3.1291,0.0,3.147,3.1291,3.119,3.119,3.119,3.175,3.2616,3.3255,3.3494,3.3578,3.3891,3.4157,3.4417,3.4794,3.523,3.5601,0.0,0.0,0.0,3.5797,3.5724,0.0,0.0,3.5445,3.5254,3.5122,3.4889,3.4612,3.4246,3.4074,3.3961,3.3815,3.3807,3.3807,3.3807,3.3807,3.3807,3.3807,3.3807,3.3807,3.3807,3.3807,3.3807,3.3807,3.3807,3.3807,3.3807,3.3807,3.3807,3.3807,3.3807,3.3807,3.3807,3.2192,3.1384,3.1366,2.9769,2.8994,2.8994,2.8994,2.8905,2.8682,2.8682,2.859,2.8394,2.8237,2.8281,2.8464,2.8633,2.8599,2.8471,2.8659,2.8581,2.8453,1.6225,0.0,0.0,0.0,0.0,0.0,0.0,0.0,0.0,0.0,0.0,0.0,0.0,0.0,0.0,0.0,0.0,0.0,2.0566,2.1298,2.1694,2.1611,2.3307,2.4061,2.3649,2.4705,2.5166,0.0,0.0,0.0,0.0,0.0,0.0,0.0,0.0,0.0,0.0,0.0,0.0,3.1428,0.0,3.147,3.166,3.1312,3.119,3.123,3.1389,3.1896,3.2583,3.3045,3.3214,3.3243,3.3578,3.3825,3.4078,3.4473,3.5073,3.5568,3.553,3.5694,3.5841,3.5757,3.574,3.5723,0.0,0.0,0.0,3.5171,3.4963,3.4694,3.4357,3.4246,3.4099,3.3842,3.3807,3.3807,3.3807,3.3807,3.3762,3.3707,3.3734,3.3762,3.3707,3.368,3.3707,3.3788,3.3734,3.3707,3.3807,3.3807,3.3807,3.3807,3.3807,3.3807,3.3807,3.2192,3.1384,3.1366,2.9769,2.8994,2.8994,2.8994,2.8929,2.8791,2.859,2.842,2.829,2.7992,2.7886,2.7933,2.8193,2.8148,2.7939,2.8184,2.8128,2.7904,1.4231,1.6117,0.0,0.0,0.0,0.0,0.0,0.0,0.0,0.0,0.0,0.0,0.0,0.0,0.0,0.0,0.0,0.0,2.0566,2.0712,2.0535,2.0151,2.1219,2.1734,2.1565,2.2551,2.348,0.0,0.0,0.0,0.0,0.0,0.0,0.0,3.0377,0.0,0.0,0.0,3.1657,0.0,3.1897,3.1545,0.0,3.123,3.119,3.1291,3.2092,3.2417,3.2583,0.0,3.3214,3.3214,3.3243,3.3605,3.4013,3.4209,3.4832,3.5476,3.5284,3.5476,3.5761,3.5861,3.5878,3.5841,3.573,0.0,3.5523,3.5468,0.0,3.4963,3.4694,0.0,0.0,3.3842,3.3807,3.3807,3.3807,3.3807,3.368,3.3302,3.3578,3.3652,3.3302,3.3273,3.3437,3.3762,3.3465,3.3419,3.3762,3.3807,3.3807,3.3807,3.3807,3.3807,3.3807,3.2192,3.1384,3.1366,2.9769,2.8994,2.8994,2.8994,2.8651,2.8065,2.8676,2.8558,2.7936,2.7926,2.7888,2.7912,2.7943,2.7939,2.7918,2.7957,2.7937,2.7902,1.2702,1.4877,0.0,0.0,0.0,0.0,0.0,0.0,0.0,0.0,0.0,0.0,0.0,0.0,0.0,0.0,0.0,2.0078,1.9844,1.9824,0.0,1.9561,2.0545,2.0864,2.0457,2.1912,2.2781,2.2907,2.4584,0.0,0.0,0.0,0.0,0.0,3.026,0.0,3.1932,0.0,3.1562,0.0,0.0,3.1696,0.0,3.1545,3.1545,3.164,3.2282,3.2681,3.2983,0.0,3.3196,0.0,0.0,0.0,0.0,3.4024,3.4716,3.5254,3.5159,3.543,3.5717,3.5766,3.5838,0.0,3.5836,0.0,3.559,3.5562,0.0,0.0,0.0,0.0,0.0,0.0,3.3807,3.3807,3.3807,3.3606,3.339,3.3214,3.3332,3.3408,3.3214,3.3214,3.3361,3.3762,3.3437,3.3379,3.378,3.3807,3.3807,3.3807,3.3807,3.3807,3.3807,3.2192,3.1384,3.1366,2.9521,2.8658,2.8658,2.8456,2.8201,2.7897,2.7992,2.7851,2.753,2.7303,2.7198,2.7203,2.7213,2.7191,2.7215,2.7463,2.7385,2.7199,1.1131,0.0,0.0,0.0,0.0,0.0,0.0,0.0,0.0,0.0,0.0,0.0,2.0566,2.0459,0.0,0.0,1.9814,1.9609,1.9307,1.9287,1.9238,1.9111,1.9798,2.0066,1.9735,2.1314,2.2056,2.1877,0.0,0.0,0.0,0.0,0.0,0.0,0.0,3.0824,3.2039,0.0,3.1677,3.2196,3.2196,3.2196,3.2161,3.2022,3.1986,3.2057,3.25,3.2921,3.3243,3.355,3.3225,0.0,3.3524,3.3497,3.3351,0.0,0.0,3.5197,3.5034,0.0,0.0,0.0,0.0,0.0,0.0,0.0,0.0,0.0,3.5562,0.0,0.0,0.0,0.0,0.0,0.0,3.3807,3.3807,3.3447,3.3136,3.3014,3.2903,3.2872,0.0,3.2921,3.3075,3.3597,3.3243,3.3225,3.3762,3.3807,3.3807,3.3807,3.3807,3.3807,3.3807,3.2192,3.1384,3.1366,2.9471,2.8515,2.8394,2.8156,2.7936,2.7725,2.753,2.7378,2.7272,2.6987,2.6873,2.6841,2.6758,2.6691,2.6725,2.7046,2.6945,2.6691,0.9372,1.1749,0.0,0.0,0.0,0.0,0.0,0.0,0.0,0.0,0.0,0.0,0.0,0.0,0.0,0.0,0.0,1.9307,1.9287,1.9287,1.9102,1.8601,1.8652,1.8854,1.933,2.0226,2.106,2.1877,0.0,0.0,0.0,0.0,0.0,0.0,0.0,2.9982,3.0976,3.1554,3.2332,3.3154,3.3154,3.3154,3.3124,0.0,3.2484,3.255,3.3014,0.0,0.0,3.3214,3.3214,0.0,0.0,0.0,0.0,0.0,0.0,0.0,0.0,0.0,0.0,3.5302,0.0,0.0,0.0,0.0,3.5846,0.0,0.0,0.0,0.0,0.0,0.0,0.0,0.0,0.0,0.0,3.3447,3.3045,3.2583,3.2127,3.2022,3.2484,3.2179,3.2317,3.3136,3.2777,3.2903,3.3762,3.3807,3.3807,3.3807,3.3807,3.3807,3.3807,3.2192,3.1384,3.1366,2.9745,2.8773,2.8394,2.8394,2.7984,2.7317,2.7725,2.7648,2.7303,2.7303,2.7272,2.7241,2.6841,2.6691,2.6691,2.6708,2.6708,2.6691,0.0,0.0,0.0,0.0,0.0,0.0,0.0,1.9863,0.0,2.0531,2.0317,2.0246,0.0,1.9939,1.9385,1.9092,1.8945,1.874,1.8467,1.8437,1.8379,1.8223,1.8223,1.8291,1.8472,1.9879,2.0719,0.0,0.0,0.0,0.0,0.0,0.0,0.0,0.0,3.0145,0.0,0.0,0.0,0.0,0.0,3.3214,3.3184,0.0,3.2952,3.2983,3.3136,3.3361,0.0,3.3606,3.3437,3.3255,3.3625,3.3721,3.3827,3.4251,3.4794,3.522,0.0,0.0,3.567,3.556,0.0,0.0,0.0,0.0,0.0,0.0,0.0,0.0,0.0,0.0,0.0,0.0,0.0,0.0,0.0,3.2795,3.2179,3.1694,3.1733,3.1861,3.2022,3.2179,3.2568,3.3136,3.3045,3.3196,3.3762,3.3807,3.3807,3.3807,3.3807,3.3807,3.3807,3.2192,3.1384,3.1366,2.9496,2.854,2.8376,2.7872,2.756,2.7286,2.7147,2.7019,2.6906,2.6906,2.6906,2.6906,2.6758,2.6691,2.6691,2.6691,2.6691,2.6691,0.9221,0.0,0.0,0.0,0.0,0.0,0.0,0.0,0.0,2.072,2.0461,2.0358,2.0988,0.0,1.9827,1.953,1.9101,1.8763,1.8482,1.8462,1.8337,1.8008,1.8596,1.8787,1.8462,2.0139,2.1037,2.1037,0.0,2.4163,0.0,0.0,0.0,0.0,0.0,3.0112,3.1313,3.1828,3.2565,0.0,0.0,3.3419,0.0,0.0,3.3332,3.3214,0.0,3.3578,3.3807,3.3807,3.3625,3.3504,3.3986,3.4056,3.4078,3.4536,3.4958,3.5264,3.5205,3.5436,0.0,3.5582,3.5727,0.0,3.5797,0.0,3.578,0.0,0.0,0.0,0.0,0.0,0.0,0.0,0.0,0.0,0.0,3.2468,3.1877,3.1269,3.1411,3.1623,3.1789,3.1933,3.235,3.3154,3.3045,3.3196,3.3762,3.3807,3.3807,3.3807,3.3807,3.3807,3.3807,3.2192,3.1334,3.1188,2.93,2.8272,2.7984,2.753,2.721,2.7051,2.6808,2.6691,2.6691,2.6691,2.6691,2.6691,2.6691,2.6691,2.6691,2.6691,2.6691,2.6691,0.9069,1.0115,0.0,0.0,1.5685,0.0,0.0,0.0,1.9843,0.0,2.0833,2.0973,2.1774,2.1487,2.1141,2.1141,2.0072,1.9365,1.9365,1.9365,1.8977,1.8134,1.9694,2.0204,1.9365,2.1037,2.1877,2.1877,0.0,0.0,0.0,0.0,0.0,0.0,2.8857,0.0,3.0777,3.1969,3.2996,3.3807,3.3807,3.3807,3.3788,3.3815,3.3578,3.3284,3.3689,3.3815,3.3788,3.3815,3.3842,3.3928,3.4508,3.4694,3.4813,3.532,3.5546,3.554,3.5284,3.5466,3.5651,3.5397,3.5613,0.0,0.0,0.0,3.5933,0.0,0.0,0.0,0.0,0.0,0.0,0.0,0.0,0.0,0.0,0.0,3.2162,3.1329,3.123,3.1389,3.1716,3.147,3.1787,3.3075,3.2777,3.2903,0.0,3.3762,3.378,3.3807,3.3807,3.3807,3.3807,3.2192,3.1232,3.0893,2.9196,2.8012,2.7348,2.7334,2.7083,2.6725,2.6725,2.6691,2.6691,2.6691,2.6691,2.6691,2.6691,2.6691,2.6691,2.6691,2.6691,2.6691,0.9069,1.072,1.2498,0.0,1.6117,1.7288,0.0,0.0,0.0,0.0,2.1103,2.1286,2.1859,2.1247,2.077,2.077,2.0464,0.0,0.0,0.0,0.0,1.9944,2.0333,2.0526,2.0268,2.1365,2.1877,2.1877,0.0,0.0,2.4567,0.0,0.0,0.0,0.0,0.0,3.0777,3.1969,3.2996,3.3807,3.3807,3.3733,3.3668,0.0,3.3975,3.3808,3.4037,3.3961,3.3868,3.4325,3.4307,3.4171,3.4572,3.4851,3.5016,3.5155,3.5386,3.5601,3.5571,3.5717,3.5821,3.5763,3.5825,3.5864,0.0,0.0,0.0,0.0,0.0,0.0,0.0,0.0,0.0,0.0,0.0,0.0,0.0,3.2433,3.1897,3.166,3.166,3.1565,3.1389,3.186,3.2316,3.2648,3.2872,3.3273,3.3762,3.3522,3.3494,3.3788,3.3807,3.3807,3.3807,3.2192,3.1359,3.1239,2.9326,2.8298,2.8112,2.7542,2.7224,2.7115,2.6841,2.6691,2.6691,2.6691,2.6691,2.6691,2.6691,2.6691,2.6691,2.6691,2.6691,2.6691,0.8998,1.095,0.0,1.373,0.0,0.0,1.8232,1.8994,0.0,2.1052,2.1062,0.0,2.1851,2.1803,2.1667,2.1667,2.1353,0.0,2.1175,0.0,0.0,2.059,2.129,2.1553,2.1175,2.2002,2.2445,2.2445,0.0,0.0,2.4794,0.0,0.0,0.0,0.0,2.9745,3.0516,3.2107,3.3248,3.3986,3.3986,3.4006,0.0,3.4338,3.4367,3.4333,3.4515,3.4423,3.4255,3.4591,3.4572,3.4467,3.4774,3.4981,3.5138,3.5288,3.5456,3.5631,3.5743,3.5841,3.5907,3.5942,3.5947,3.5909,3.576,3.5761,3.5745,0.0,3.5607,3.5508,0.0,0.0,0.0,0.0,0.0,0.0,0.0,3.2745,3.2264,3.1861,3.1986,3.1878,3.1269,3.1986,3.2583,3.2777,3.2858,3.3166,0.0,3.3437,3.339,3.3807,3.3625,3.3606,3.3807,3.2036,3.1154,3.1162,2.93,2.8219,2.7918,2.75,2.721,2.7036,2.6808,2.6691,2.6691,2.6691,2.6691,2.6691,2.6691,2.6691,2.6691,2.6691,2.6691,2.6691,0.9069,1.1025,0.0,0.0,0.0,0.0,0.0,1.9083,0.0,2.0986,0.0,2.1227,2.1939,2.2689,2.3078,2.3078,2.2445,2.2063,2.2063,2.2063,2.1753,2.0974,2.231,2.2811,2.2249,2.2871,2.3258,0.0,0.0,0.0,0.0,0.0,0.0,0.0,0.0,0.0,0.0,3.2423,3.3625,3.4288,3.4288,3.4467,3.4754,3.4754,3.4774,3.4851,3.507,3.4963,3.4694,3.4774,3.4774,3.4793,3.5066,3.5168,3.5228,3.5538,3.5631,3.5685,3.5856,3.5907,3.5938,3.5995,3.5996,3.5973,3.5884,3.5869,3.5805,3.5611,3.5579,3.5444,3.4906,0.0,0.0,0.0,0.0,0.0,0.0,3.3243,3.2903,3.2092,3.2332,0.0,3.1466,3.2127,3.2713,3.3014,3.2745,3.2934,0.0,0.0,3.339,3.3807,3.3465,3.3465,3.3807,3.1874,3.0912,3.0948,2.9222,2.8057,2.7396,2.7317,2.7083,2.6691,2.6691,2.6691,2.6691,2.6691,2.6691,2.6691,2.6691,2.6691,2.6691,2.6691,2.6691,2.6691,1.011,0.0,0.0,0.0,0.0,1.6491,1.9976,2.0588,2.0742,2.1163,2.2048,2.2689,2.2884,2.3005,2.3078,2.3078,2.2944,0.0,0.0,0.0,0.0,2.2689,2.2944,2.3352,2.3872,2.4002,2.4118,0.0,0.0,0.0,0.0,0.0,0.0,0.0,0.0,0.0,3.2424,3.3201,0.0,3.4593,3.4593,3.4774,3.5016,3.5016,3.5174,3.5369,3.5398,3.5122,3.4754,3.5207,3.5207,3.5102,3.54,3.5516,3.553,3.5643,3.5749,3.586,3.5896,3.5945,3.5995,3.5996,3.5951,3.5884,3.5766,3.5687,3.5631,3.5528,3.5528,3.5482,3.5383,0.0,0.0,0.0,0.0,0.0,0.0,3.339,3.3154,3.2965,3.3045,3.289,3.2316,3.2745,3.2809,3.2092,3.2681,3.3136,0.0,0.0,3.339,0.0,3.3734,3.3734,0.0,0.0,3.1309,3.129,2.9326,2.8183,2.7765,2.7439,2.7083,2.6691,2.6691,2.6691,2.6691,2.6691,2.6691,2.6691,2.6691,2.6691,2.6691,2.6691,2.6691,2.6691,0.982,0.0,0.0,0.0,0.0,0.0,0.0,2.0812,2.1585,2.1585,2.2094,2.2506,2.2506,2.3233,2.3531,2.3138,2.3813,2.4163,2.3767,2.4105,2.4266,2.4266,2.4266,2.4496,2.4851,2.5162,2.5162,2.4851,0.0,0.0,0.0,0.0,0.0,0.0,0.0,3.1637,0.0,0.0,0.0,3.4908,3.4908,3.507,3.5304,3.5304,3.5402,3.5558,3.5558,3.5412,3.5245,3.5476,3.547,3.5387,3.5592,3.5646,3.5671,3.5761,3.5845,3.5907,3.5945,3.5974,3.5996,3.595,3.5916,3.586,3.5679,3.5621,3.5588,3.5515,3.5493,3.5446,3.532,3.4963,0.0,0.0,0.0,0.0,0.0,3.3634,3.3419,3.3214,3.339,3.3225,3.255,3.3105,3.3225,3.2565,3.2934,3.3302,0.0,0.0,3.339,0.0,0.0,0.0,3.3807,0.0,3.1528,3.1109,2.9717,2.8532,2.756,2.7378,2.7083,2.6691,2.6691,2.6691,2.6691,2.6691,2.6691,2.6691,2.6691,2.6691,2.6691,2.6691,2.6691,2.6742,1.0115,1.2111,0.0,0.0,1.6743,1.8255,1.9293,2.1032,2.2101,2.2101,2.2298,2.2482,2.2652,2.3787,2.4323,2.3833,2.4754,2.5217,2.4741,2.5161,2.5439,2.5577,2.5577,2.5727,2.6037,2.648,2.6556,0.0,0.0,0.0,0.0,0.0,0.0,0.0,0.0,0.0,0.0,0.0,3.4505,3.519,3.52,3.534,3.5522,3.554,3.5577,3.5611,3.5611,3.5655,3.5696,3.5674,3.563,3.5639,3.5723,3.5729,3.5766,3.5884,3.5901,3.5911,3.5957,3.5954,3.5927,3.5877,3.5856,3.58,3.564,3.559,3.5562,3.5515,3.5493,3.5417,3.5138,3.4889,0.0,0.0,0.0,0.0,0.0,3.3842,3.368,3.3361,3.3606,3.3532,3.284,3.339,3.368,3.3332,3.3332,3.3437,3.3652,0.0,0.0,0.0,0.0,3.3494,3.3807,0.0,3.1745,3.0976,3.0044,2.8834,2.7409,2.7317,2.7083,2.6691,2.6691,2.6691,2.6691,2.6691,2.6691,2.6691,2.6691,2.6691,2.6691,2.6691,2.6793,2.7046,0.0,0.0,0.0,0.0,0.0,1.8465,2.0235,2.1844,2.288,2.288,2.3598,2.4323,2.4993,2.5231,2.5522,2.5937,2.5658,2.5617,2.6112,2.5672,2.5617,2.6218,2.6218,2.6762,2.8008,2.8088,2.8248,0.0,0.0,2.842,0.0,0.0,0.0,0.0,0.0,0.0,0.0,3.4331,3.4791,3.5474,3.5531,3.5579,3.56,3.5663,3.5682,3.5689,3.5689,3.5696,3.5717,3.5831,3.5791,3.571,3.5841,3.5877,3.5903,3.5973,3.5953,3.5893,3.591,3.5817,3.5729,3.5717,3.5671,3.5621,3.5591,3.5538,3.5501,3.5507,3.5493,3.5417,3.5138,3.4889,3.4694,0.0,0.0,0.0,0.0,3.3961,3.3807,3.3734,3.378,3.3762,3.3707,3.3734,3.3762,3.3734,3.3734,3.3606,0.0,0.0,0.0,3.3807,3.3762,3.3762,3.3807,3.2947,3.214,3.1334,3.0176,2.8972,2.784,2.7487,2.7083,2.6691,2.6691,2.6691,2.6691,2.6691,2.6691,2.6691,2.6691,2.6691,2.6691,2.6691,2.7131,2.7824,0.0,0.0,0.0,0.0,0.0,0.0,0.0,2.3348,2.4244,2.5492,2.526,2.5063,2.5342,2.6105,2.6524,2.6309,2.7214,2.7728,2.7489,2.7713,2.789,2.8165,2.8373,2.8668,2.8948,2.9828,3.0055,0.0,0.0,0.0,0.0,0.0,0.0,0.0,0.0,3.4016,3.4432,3.4917,3.5284,3.5574,3.5639,3.5663,3.5671,3.5689,3.5755,3.5812,3.5812,3.5812,3.5839,3.5878,3.5851,3.5841,3.5925,3.5937,3.5916,3.5927,3.5857,3.5772,3.5772,3.5729,3.5689,3.5646,3.5611,3.559,3.5546,3.5509,3.5493,3.5493,3.5369,3.519,3.4908,3.4774,3.4591,3.4232,0.0,0.0,0.0,0.0,3.3807,3.3807,3.3807,3.3807,3.3807,3.3807,3.3807,3.3807,3.3807,3.3734,0.0,0.0,0.0,3.3807,0.0,3.3807,3.3807,3.3476,3.2564,3.1101,3.0366,2.9142,2.7547,2.7115,2.6841,2.6691,2.6691,2.6691,2.6691,2.6691,2.6691,2.6691,2.6691,2.6691,2.6691,2.6691,2.7182,2.7943,1.3081,0.0,1.7368,0.0,2.0013,2.1354,2.311,2.4048,2.5138,2.6737,2.6456,2.6177,2.6562,2.7395,2.7875,2.7504,2.8746,2.9428,2.9093,2.9496,2.9848,3.0018,3.031,0.0,3.0303,3.1305,3.1581,3.0934,3.1062,0.0,0.0,0.0,0.0,0.0,3.4141,3.4677,3.48,3.5369,3.563,3.5639,3.573,3.5761,3.5761,3.5783,3.5825,3.5893,3.5893,3.5876,3.5841,3.5841,3.5845,3.5859,3.5891,3.589,3.5841,3.5841,3.5755,3.5659,3.5659,3.5405,3.5146,3.5182,3.4944,3.4723,3.4732,3.487,3.5062,3.5232,3.5105,3.4889,3.4614,3.4551,3.442,3.3986,0.0,0.0,0.0,3.3868,3.3807,3.3807,3.3807,3.3807,3.3807,3.3807,3.3807,3.3807,3.3807,3.3807,0.0,0.0,0.0,0.0,0.0,0.0,3.3807,3.3807,3.2931,3.1227,3.0612,2.9356,2.7601,2.6976,2.6691,2.6691,2.6691,2.6691,2.6691,2.6691,2.6691,2.6691,2.6691,2.6691,2.6725,2.6945,2.7503,2.8281,1.5996,1.6947,1.7819,1.8731,2.0191,2.1213,2.1213,2.3525,2.5437,2.5785,2.6898,2.8127,2.923,2.9361,2.9629,3.0208,3.0086,3.0228,3.0842,3.0729,3.0963,0.0,0.0,3.1865,3.2433,3.2484,3.2713,3.3166,0.0,0.0,3.3542,0.0,3.4095,3.4412,3.4948,3.5348,3.5591,3.5679,3.5703,3.571,3.5841,3.59,3.5907,3.5973,3.5951,3.5903,3.5903,3.5812,3.571,3.571,3.571,3.5691,3.571,3.571,3.571,3.571,3.5655,3.5591,3.5591,3.4725,3.3884,3.4153,3.3417,3.2684,3.2891,3.3389,3.3989,3.4584,3.4694,3.4593,3.4288,3.42,3.42,3.42,0.0,0.0,0.0,3.3961,0.0,3.3807,3.3807,3.3807,3.3807,3.3807,3.3807,3.3807,3.3807,0.0,0.0,0.0,0.0,3.3807,3.3807,0.0,3.3807,3.3807,3.3177,3.1964,3.0832,2.9638,2.8347,2.7214,2.6691,2.6691,2.6691,2.6691,2.6691,2.6691,2.6691,2.6691,2.6691,2.6691,2.6793,2.7537,2.8298,2.9076,1.602,1.7747,1.9412,2.0327,2.1194,2.2299,2.375,2.4944,2.6125,2.7548,2.831,2.9036,2.9778,2.9505,2.9563,0.0,3.0693,3.122,0.0,3.2119,3.2278,3.2491,3.2969,3.3195,3.3045,3.3663,3.3914,3.3758,0.0,0.0,0.0,3.4302,3.469,3.5287,3.5456,3.5588,3.5687,3.5791,3.5836,3.5845,3.5925,3.5937,3.5893,3.5925,3.5857,3.5761,3.5761,3.5709,3.563,3.563,3.5093,3.4404,3.4404,3.4569,3.4709,3.4573,3.407,3.3508,3.3318,3.3134,3.2966,3.2847,3.2724,3.2584,3.2447,3.2571,3.2748,3.2959,3.3291,3.3512,3.3403,3.3673,3.3928,3.3928,3.3868,0.0,3.3928,0.0,3.3807,3.3807,3.3807,3.3807,3.3807,3.3807,3.3807,3.3807,3.3807,0.0,0.0,0.0,0.0,0.0,3.3807,0.0,3.3807,3.3807,3.3177,3.1982,3.0832,2.925,2.7231,2.686,2.6691,2.6691,2.6691,2.6691,2.6691,2.6691,2.6691,2.6691,2.6691,2.7012,2.7503,2.7688,2.8636,2.9786,1.7544,1.925,2.0909,2.2005,2.2707,2.3615,2.5195,2.6006,2.6902,2.8355,2.8888,2.9364,2.9906,2.9611,0.0,3.0349,3.1005,3.1585,3.209,3.2721,3.3107,3.3107,3.3836,3.4143,3.382,3.4425,0.0,3.429,3.4415,3.4592,3.4798,3.4905,3.5231,3.571,3.5755,3.5791,3.5772,3.589,3.5929,3.5897,3.5956,3.5916,3.5812,3.5812,3.5768,3.5671,3.5671,3.5418,3.5071,3.5071,3.4301,3.3344,3.3344,3.3216,3.3096,3.3274,3.2905,3.2416,3.2239,3.2031,3.1822,3.1768,3.1577,3.1427,3.1563,3.1599,3.1655,3.1854,3.2166,3.24,3.24,3.2932,3.3348,3.3348,3.3605,3.3807,3.3807,3.3807,3.3807,3.3807,3.3807,3.3807,3.3807,3.3807,3.3807,0.0,0.0,0.0,0.0,0.0,3.3807,3.3807,3.3807,3.3807,3.3807,3.3807,3.3267,3.2187,3.0571,2.8727,2.6691,2.6691,2.6691,2.6691,2.6691,2.6691,2.6691,2.6691,2.6691,2.6725,2.6996,2.7402,2.7857,2.8431,2.9279,3.0142,2.0247,2.1233,2.2226,2.3707,2.4483,2.5074,2.5729,2.673,2.7682,2.8374,2.8864,2.9289,2.9674,2.9727,2.9925,3.034,0.0,0.0,3.1548,3.2668,3.3355,3.3355,3.4207,3.468,3.468,3.4804,3.4846,3.4846,3.5172,3.5321,3.5359,3.5597,3.5717,3.5729,3.5849,3.591,3.5893,3.5975,3.595,3.5896,3.5896,3.5802,3.5696,3.5696,3.5646,3.557,3.5512,3.4921,3.4166,3.4095,3.335,3.2457,3.2457,3.172,3.1016,3.1845,3.2052,3.1996,3.1977,3.1259,3.0577,3.081,3.0114,2.9576,3.032,3.0488,3.0646,3.1146,3.1274,3.1311,3.1311,3.1971,3.254,3.2596,3.3238,3.3733,3.3788,3.3807,3.3807,3.3807,0.0,0.0,3.3807,3.3807,3.3807,0.0,0.0,0.0,0.0,0.0,3.3807,3.3807,3.3807,3.3807,3.3807,3.3807,3.3288,3.2307,3.0091,2.818,2.6691,2.6691,2.6691,2.6691,2.6691,2.6691,2.6691,2.6691,2.6691,2.6776,2.752,2.7823,2.8078,2.9567,3.0142,3.0277,0.0,0.0,2.3814,2.4492,2.5142,2.5896,2.6864,2.7504,2.8155,2.897,2.9425,2.9692,2.9851,3.0033,3.0177,3.0243,3.0728,3.1318,3.1993,3.2515,3.2842,3.2954,3.3981,3.4546,3.4546,3.5166,3.5494,3.5494,3.5574,3.5671,3.5763,3.5821,3.5887,3.593,3.5954,3.5957,3.5908,3.5921,3.5853,3.5755,3.5755,3.5702,3.5621,3.5621,3.5588,3.5412,3.4534,3.4078,3.3773,3.2961,3.1957,3.1072,3.1072,3.0348,2.9672,3.0688,3.0541,3.0014,2.9805,2.9718,2.9632,2.9502,2.9285,2.9144,2.9329,2.9384,2.9398,2.9531,3.0063,3.0485,3.0485,3.1146,3.188,3.2504,3.2761,3.3109,3.3715,3.3807,3.3807,0.0,3.3807,3.3807,3.3807,3.3807,3.3807,0.0,0.0,3.3807,3.3807,3.3807,3.3807,3.3807,3.3807,3.3807,3.3807,3.3807,3.2801,3.0827,2.9575,2.818,2.6691,2.6691,2.6691,2.6691,2.6691,2.6691,2.6691,2.6691,2.6691,2.6776,2.752,2.8197,2.8822,2.977,3.0463,3.0954,2.3763,2.4687,2.5559,2.6456,2.7016,2.7629,2.8535,2.8855,2.9221,2.9767,3.0008,3.0128,3.0128,3.0253,3.0325,3.0297,3.056,3.0895,3.135,3.1883,3.2214,3.2297,3.3234,3.3784,3.3813,3.4686,3.5385,3.5838,3.5838,3.5871,3.5947,3.5916,3.5918,3.5948,3.5899,3.5838,3.5807,3.5807,3.5743,3.5655,3.5655,3.5542,3.5341,3.4931,3.4688,3.4413,3.3418,3.2832,3.2419,3.1861,3.0941,3.0048,3.0048,2.9433,2.8846,2.9425,2.9411,2.9138,2.8821,2.8832,2.8902,2.8755,2.8863,2.8994,2.8994,2.8994,2.8994,2.8994,2.9342,2.9659,2.9659,3.032,3.0999,3.1439,3.1806,3.2339,3.3146,3.3256,3.3385,3.3752,3.3807,3.3807,3.3807,3.3807,3.3807,3.3807,3.3807,0.0,3.3807,3.3807,3.3807,3.3807,3.3807,3.3807,3.3807,3.34,3.2115,2.998,2.9316,2.818,2.6691,2.6691,2.6691,2.6691,2.6691,2.6691,2.6725,2.7063,2.7199,2.7317,2.8433,2.9127,2.9583,3.0328,3.0852,3.119,2.6256,2.6678,2.7245,2.865,2.9035,2.9375,3.0083,3.0188,3.0275,3.0462,3.0494,3.0482,3.0447,3.0427,3.0426,3.0424,3.0469,3.0486,3.0429,3.1113,3.1523,3.1523,3.2304,3.2772,3.2834,3.3808,3.4784,3.5778,3.5778,3.5837,3.5954,3.589,3.5873,3.5869,3.5755,3.5696,3.5682,3.5682,3.5609,3.5527,3.5527,3.5243,3.4748,3.402,3.352,3.311,3.226,3.1506,3.0903,3.0753,3.0055,2.9251,2.9251,2.8814,2.8324,2.8324,2.8583,2.8767,2.8438,2.8324,2.8324,2.8324,2.8583,2.8815,2.8815,2.8815,2.8815,2.8815,2.8815,2.8815,2.8815,2.943,2.9972,3.0082,3.0736,3.1494,3.232,0.0,3.2852,3.3532,3.3733,3.3807,3.3807,3.3807,3.3807,3.3807,3.3807,3.3807,3.3807,3.3807,3.3807,3.3807,3.3807,3.3762,3.3707,3.2903,3.1595,2.9762,2.9244,2.823,2.686,2.6742,2.6691,2.6691,2.6691,2.6759,2.6911,2.7554,2.7857,2.8129,2.9567,3.0108,3.0192,3.092,3.119,3.119,2.799,2.8274,2.8544,2.912,2.9307,2.9551,3.0118,3.0199,3.0263,3.0464,3.0495,3.0521,3.0565,3.058,3.0553,3.0482,3.0489,3.0495,3.0484,3.0606,3.071,3.0779,3.1602,3.2055,3.2065,3.2957,3.3848,3.4739,3.4739,3.5085,3.5741,3.5729,3.5723,3.5723,3.571,3.5679,3.5621,3.5621,3.5449,3.5184,3.5184,3.4575,3.3658,3.3507,3.3015,3.2241,3.122,3.0764,3.0518,2.961,2.8965,2.8572,2.8572,2.829,2.7982,2.7982,2.8037,2.8065,2.7992,2.7982,2.7982,2.7982,2.8037,2.8065,2.8065,2.8065,2.8065,2.8065,2.8065,2.8065,2.8065,2.8398,2.8895,2.959,3.0075,3.0668,3.1458,0.0,3.2669,3.2779,3.3385,3.3807,3.3807,3.3807,3.3807,3.3807,3.3807,3.3807,3.3807,3.3807,3.3807,3.3807,3.3807,3.3652,3.3302,3.2777,3.1859,3.0525,2.9483,2.8518,2.7621,2.6979,2.6691,2.6691,2.6691,2.7046,2.762,2.7739,2.8213,2.889,2.977,3.0108,3.0192,3.092,3.119,3.119,2.9202,2.9422,2.9574,2.9751,2.9868,3.0039,3.0323,3.0366,3.0389,3.0486,3.0502,3.045,3.0278,3.0276,3.0221,3.0081,3.0073,3.0131,3.0221,3.0369,3.0391,3.0286,3.0801,3.1338,3.1848,3.2166,3.2769,3.365,3.3751,3.3926,3.4206,3.4714,3.4947,3.4958,3.5256,3.5368,3.5325,3.5185,3.4759,3.4168,3.4168,3.3526,3.2478,3.2047,3.1572,3.0993,3.0083,2.9739,2.964,2.8931,2.8565,2.8368,2.8183,2.788,2.7577,2.7577,2.7577,2.7577,2.7577,2.7577,2.7577,2.7577,2.7754,2.7897,2.7897,2.7897,2.7897,2.7897,2.7897,2.7897,2.7897,2.8037,2.8237,2.8621,2.9006,2.9501,3.0327,3.0954,3.1641,3.2504,3.2944,3.333,3.3752,3.3807,3.3807,3.3807,3.3807,3.3807,3.3807,3.3807,3.3807,3.3807,3.3578,3.3273,3.2827,3.2366,3.1532,3.0358,2.983,2.9194,2.8433,2.8078,2.7926,2.7926,2.7926,2.8129,2.8484,2.889,2.9262,2.9668,3.0395,3.0683,3.0734,3.1072,3.119,3.119,2.9717,2.9983,3.0219,3.0267,3.0331,3.0387,3.0414,3.0424,3.0393,3.0326,3.0304,3.0213,2.9969,2.9939,2.9877,2.9713,2.9696,2.9748,2.9861,3.0114,3.0169,3.0013,3.0155,3.0573,3.129,3.1212,3.159,3.245,3.2656,3.2781,3.285,3.3572,3.3901,3.3917,3.4267,3.4426,3.4409,3.4207,3.3693,3.3032,3.3032,3.2381,3.1359,3.0745,3.0212,2.9686,2.9082,2.8815,2.87,2.8386,2.8219,2.8112,2.7851,2.747,2.7147,2.7147,2.7147,2.7147,2.7147,2.7147,2.7147,2.7147,2.7378,2.7619,2.7619,2.7619,2.7619,2.7619,2.7619,2.7619,2.7619,2.7695,2.7754,2.7754,0.0,2.8488,2.9125,2.9686,3.0581,3.2025,3.2452,3.2926,3.3715,3.3807,3.3807,3.3807,3.3807,3.3807,3.3807,3.3707,3.3606,3.3504,3.3302,3.2983,3.2517,3.2022,3.131,3.0362,3.0192,2.9803,2.9245,2.9059,2.9011,2.9011,2.9011,2.9076,2.9296,2.9871,3.0209,3.0412,3.097,3.119,3.119,3.119,3.119,3.119,2.9154,2.9713,3.0267,3.0448,3.0383,3.0285,3.0237,3.0216,3.0119,2.9794,2.9763,2.9746,2.9712,2.9731,2.9713,2.9696,2.9696,2.9644,2.9454,2.9644,2.9832,2.9999,2.9829,2.9784,2.9839,2.9839,3.0272,3.114,3.1333,3.1843,3.2626,3.2703,3.2741,3.2726,3.2498,3.241,3.241,3.2392,3.2202,3.1918,3.1918,3.1277,3.0307,3.0233,2.9509,2.8518,2.8464,2.8237,2.7982,2.7954,2.7678,2.7378,2.7348,2.7051,2.6758,2.6758,2.6758,2.6758,2.6758,2.6758,2.6758,2.6758,2.6758,2.6791,2.6791,2.6791,2.6791,2.6791,2.6791,2.6791,2.6791,2.7083,2.7348,2.7348,0.0,0.0,2.8025,2.8963,2.9972,3.0939,3.1973,3.2926,3.3715,3.3807,3.3807,3.3807,3.3807,3.3807,3.3807,3.3465,3.3045,3.2616,3.2983,3.2983,3.2517,3.2022,3.1568,3.1106,3.0429,3.0074,3.0006,2.9296,2.9011,2.9011,2.9011,2.9381,3.0023,3.0091,3.0497,3.1123,3.1173,3.119,3.119,3.119,3.119,3.119,2.8118,2.8689,2.9224,2.9303,2.967,2.9932,2.9897,2.9882,2.9839,2.9731,2.9696,2.9643,2.9532,2.9513,2.9455,2.9272,2.9272,2.9293,2.9392,2.9312,2.9418,2.9796,2.9626,2.957,2.9696,2.957,2.9663,3.0001,3.0203,3.0406,3.064,3.1293,3.1608,3.1627,3.1864,3.1952,3.1931,3.1759,3.1343,3.0803,3.054,2.9892,2.9069,2.8863,2.8479,2.8102,2.8102,2.7992,2.7869,2.7589,2.7426,2.7272,2.7004,2.6808,2.6691,2.6691,2.6691,2.6691,2.6691,2.6691,2.6691,2.6691,2.6691,2.6691,2.6691,2.6691,2.6691,2.6691,2.6691,2.6691,2.6691,2.6808,2.6939,2.6939,0.0,2.753,2.753,2.8717,2.9927,3.0794,3.1701,3.2536,3.3346,3.3166,3.3118,3.3408,3.3437,3.3437,3.3437,3.3014,3.2681,3.2517,3.24,3.2264,3.2057,3.164,3.1351,3.119,3.092,3.0784,3.0768,3.048,3.0345,3.0345,3.0345,3.0514,3.0784,3.0784,3.0954,3.119,3.119,3.119,3.119,3.119,3.119,3.119,2.6859,2.7447,2.7944,2.7888,2.8444,2.8913,2.9045,2.9156,2.9285,2.9456,2.9282,2.9138,2.9104,2.9082,2.9012,2.8821,2.8929,2.9067,2.9267,2.9089,2.9138,2.9475,2.9353,2.9332,2.9494,2.9353,2.9267,2.9267,2.9513,2.9551,2.9431,3.0151,3.0509,3.0509,3.0793,3.0924,3.0902,3.0595,3.0136,2.9618,2.9232,2.873,2.821,2.801,2.7811,2.7707,2.7707,2.7619,2.747,2.721,2.7115,2.7051,2.6791,2.6691,2.6691,2.6691,2.6691,2.6691,2.6691,2.6691,2.6691,2.6691,2.6691,2.6691,2.6691,2.6691,2.6691,2.6691,2.6691,2.6691,2.6691,2.6691,2.6691,2.6691,2.6939,2.7201,2.741,2.8469,2.9637,3.0707,3.1404,3.2092,3.2893,3.2809,3.284,3.3184,3.3214,3.3075,3.2777,3.2583,3.2384,3.2092,3.1897,3.1752,3.1603,3.1351,3.119,3.119,3.119,3.119,3.119,3.119,3.119,3.119,3.119,3.119,3.119,3.119,3.119,3.119,3.119,3.119,3.119,3.119,3.119,3.119,2.548,2.6023,2.6438,2.6314,2.6735,2.7235,2.7647,2.7978,2.8377,2.891,2.8334,2.802,2.835,2.8394,2.8394,2.8394,2.8749,2.8994,2.8994,2.8994,2.8994,2.8994,2.8994,2.8994,2.8994,2.8994,2.8994,2.8994,2.9267,2.9392,2.9392,2.9392,2.9392,2.9392,2.9112,2.8994,2.897,2.8565,2.8394,2.8368,2.802,2.7897,2.7897,2.7897,2.7648,2.7303,2.7303,2.7019,2.6691,2.6691,2.6691,2.6691,2.6691,2.6691,2.6691,2.6691,2.6691,2.6691,2.6691,2.6691,2.6691,2.6691,2.6691,2.6691,2.6691,2.6691,2.6691,2.6691,2.6691,2.6691,2.6691,2.6691,2.6691,2.6691,2.6691,2.6962,2.7723,2.8151,2.8985,3.0525,3.1038,3.1635,3.2413,3.2921,3.3184,3.3184,3.3184,3.2759,3.1861,3.223,3.2092,3.123,3.1603,3.1603,3.119,3.119,3.119,3.119,3.119,3.119,3.119,3.119,3.119,3.119,3.119,3.119,3.119,3.119,3.119,3.119,3.119,3.119,3.119,3.119,3.119,3.119,2.3887,2.4487,2.5021,2.4967,2.5577,2.6279,2.6971,2.7155,2.746,2.813,2.8037,2.802,2.835,2.8183,2.8156,2.8394,2.829,2.8334,2.8565,2.8565,2.8707,2.8994,2.8994,2.8994,2.8994,2.8994,2.8994,2.8994,2.8803,2.8832,2.9112,2.8832,2.8718,2.8676,2.8615,2.8438,2.8228,2.8102,2.8047,2.802,2.7619,2.747,2.7439,2.7178,2.6987,2.6873,2.6873,2.6808,2.6691,2.6691,2.6691,2.6691,2.6691,2.6691,2.6691,2.6691,2.6691,2.6691,2.6691,2.6691,2.6691,2.6691,2.6691,2.6691,2.6691,2.6691,2.6691,2.6691,2.6691,2.6691,2.6691,2.6691,2.6691,2.6691,2.7131,2.7571,2.7755,2.9094,3.0162,3.0647,3.1255,3.1742,3.1969,3.2127,3.223,3.223,3.223,3.2092,3.1808,3.1677,3.1466,3.119,3.1329,3.1312,3.119,3.119,3.119,3.119,3.119,3.119,3.119,3.119,3.119,3.119,3.119,3.119,3.119,3.119,3.119,3.119,3.119,3.119,3.119,3.119,3.119,3.119,2.2996,2.339,2.3673,2.358,2.4208,2.497,2.5596,2.6055,2.6615,2.7356,2.7444,2.7542,2.7918,2.7776,2.7736,2.7946,2.7936,2.801,2.8183,2.821,2.8308,2.8558,2.8558,2.8626,2.8749,2.8626,2.8558,2.8558,2.8334,2.8334,2.8576,2.8334,2.821,2.821,2.821,2.8102,2.7897,2.7725,2.7648,2.7619,2.7224,2.7051,2.7036,2.6774,2.6691,2.6691,2.6691,2.6691,2.6691,2.6691,2.6691,2.6691,2.6691,2.6691,2.6691,2.6691,2.6691,2.6691,2.6691,2.6691,2.6691,2.6691,2.6691,2.6691,2.6691,2.6691,2.6691,2.6691,2.6691,2.6691,2.6691,2.6691,2.6793,2.7097,2.752,2.7992,2.86,2.9704,3.0589,3.0881,3.1291,3.1565,3.1565,3.1696,3.1789,3.1789,3.1789,3.1716,3.1565,3.1312,3.119,3.119,3.119,3.119,3.119,3.119,3.119,3.119,3.119,3.119,3.119,3.119,3.119,3.119,3.119,3.119,3.119,3.119,3.119,3.119,3.119,3.119,3.119,3.119,3.119,3.119,2.2617,2.2643,2.2573,2.2276,2.2823,2.3425,2.3808,2.4752,2.5723,2.6563,2.663,2.6773,2.7255,2.7272,2.7272,2.7303,2.7589,2.7811,2.784,2.784,2.7869,2.7897,2.7869,2.7992,2.8298,2.8047,2.7897,2.7897,2.7869,2.7869,2.7897,2.7869,2.784,2.784,2.784,2.784,2.7783,2.7378,2.7241,2.7192,2.6841,2.6691,2.6691,2.6691,2.6691,2.6691,2.6691,2.6691,2.6691,2.6691,2.6691,2.6691,2.6691,2.6691,2.6691,2.6691,2.6691,2.6691,2.6691,2.6691,2.6691,2.6691,2.6691,2.6691,2.6691,2.6691,2.6691,2.6691,2.6691,2.6691,2.6691,2.6742,2.7012,2.7671,2.7908,2.8518,2.9905,3.0176,3.0446,3.1123,3.119,3.119,3.119,3.1545,3.1752,3.1789,3.1752,3.1603,3.123,3.119,3.119,3.119,3.119,3.119,3.119,3.119,3.119,3.119,3.119,3.119,3.119,3.119,3.119,3.119,3.119,3.119,3.119,3.119,3.119,3.119,3.119,3.119,3.119,3.119,3.119,3.119,2.1832,2.2141,2.226,2.1823,2.2195,2.263,2.2939,2.3493,2.435,2.5692,2.5873,2.6211,2.7203,2.7019,2.6971,2.7255,2.7083,2.7083,2.7409,2.7409,2.756,2.7897,2.7589,2.747,2.7542,2.7765,2.7897,2.7897,2.7589,2.7589,2.7897,2.756,2.7409,2.7409,2.7409,2.7272,2.6954,2.6873,2.6841,2.6808,2.6725,2.6691,2.6691,2.6691,2.6691,2.6691,2.6691,2.6691,2.6691,2.6691,2.6691,2.6691,2.6691,2.6691,2.6691,2.6691,2.6691,2.6691,2.6691,2.6691,2.6691,2.6691,2.6691,2.6691,2.6691,2.6691,2.6691,2.6691,2.6691,2.6691,2.6691,2.7182,2.7621,2.7755,2.8822,2.9736,3.0057,3.0598,3.1021,3.1173,3.119,3.119,3.119,3.1291,3.147,3.1789,3.1507,3.1291,3.119,3.119,3.119,3.119,3.119,3.119,3.119,3.119,3.119,3.119,3.119,3.119,3.119,3.119,3.119,3.119,3.119,3.119,3.119,3.119,3.119,3.119,3.119,3.119,3.119,3.119,3.119,3.119,2.1552,2.1794,2.1899,2.1642,2.2003,2.2269,2.2184,2.2886,2.3604,2.4141,2.5007,2.5841,2.6422,2.6604,2.6774,2.7004,2.6808,2.6791,2.6987,2.7019,2.7115,2.7334,2.7115,2.7019,2.7019,2.721,2.7317,2.7317,2.7115,2.7115,2.7317,2.7115,2.7019,2.7019,2.7019,2.6906,2.6691,2.6691,2.6691,2.6691,2.6691,2.6691,2.6691,2.6691,2.6691,2.6691,2.6691,2.6691,2.6691,2.6691,2.6691,2.6691,2.6691,2.6691,2.6691,2.6691,2.6691,2.6691,2.6691,2.6691,2.6691,2.6691,2.6691,2.6691,2.6691,2.6691,2.6691,2.6691,2.6691,2.681,2.7165,2.7554,2.8026,2.8789,2.9583,3.0226,3.0581,3.0954,3.119,3.119,3.119,3.119,3.119,3.119,3.1291,3.1507,3.1312,3.119,3.119,3.119,3.119,3.119,3.119,3.119,3.119,3.119,3.119,3.119,3.119,3.119,3.119,3.119,3.119,3.119,3.119,3.119,3.119,3.119,3.119,3.119,3.119,3.119,3.119,3.119,3.119,3.1241,2.143,2.1552,2.1582,2.1491,2.1869,2.2032,2.1568,2.2398,2.3046,2.2839,2.4238,2.5321,2.5575,2.6251,2.6691,2.6691,2.6691,2.6691,2.6691,2.6691,2.6691,2.6691,2.6691,2.6691,2.6691,2.6691,2.6691,2.6691,2.6691,2.6691,2.6691,2.6691,2.6691,2.6691,2.6691,2.6691,2.6691,2.6691,2.6691,2.6691,2.6691,2.6691,2.6691,2.6691,2.6691,2.6691,2.6691,2.6691,2.6691,2.6691,2.6691,2.6691,2.6691,2.6793,2.6894,2.6894,2.6979,2.708,2.708,2.708,2.708,2.708,2.708,2.708,2.708,2.6979,2.6894,2.6894,2.6996,2.7283,2.7909,2.8129,2.86,2.9905,3.0226,3.0497,3.1106,3.119,3.119,3.119,3.119,3.119,3.119,3.119,3.119,3.119,3.119,3.119,3.119,3.119,3.119,3.119,3.119,3.119,3.119,3.119,3.119,3.119,3.119,3.119,3.119,3.119,3.119,3.119,3.119,3.119,3.119,3.119,3.119,3.119,3.119,3.119,3.119,3.119,3.1275,3.1461,2.0991,2.1368,2.1491,2.115,2.1399,2.1568,2.115,2.1528,2.2189,2.3173,2.3532,2.4188,2.5473,2.6251,2.6691,2.6691,2.6691,2.6691,2.6691,2.6691,2.6691,2.6691,2.6691,2.6691,2.6691,2.6691,2.6691,2.6691,2.6691,2.6691,2.6691,2.6691,2.6691,2.6691,2.6691,2.6691,2.6691,2.6691,2.6691,2.6691,2.6691,2.6691,2.6691,2.6691,2.6691,2.6691,2.6691,2.6691,2.6691,2.6691,2.6691,2.6691,2.6691,2.7148,2.7637,2.7637,2.8146,2.8706,2.8706,2.8706,2.8706,2.8706,2.8706,2.8706,2.8706,2.8146,2.7637,2.7637,2.8197,2.8704,2.8805,2.9364,2.9871,3.0074,3.0632,3.1089,3.119,3.119,3.119,3.119,3.119,3.119,3.119,3.119,3.119,3.119,3.119,3.119,3.119,3.119,3.119,3.119,3.119,3.119,3.119,3.119,3.119,3.119,3.119,3.119,3.119,3.119,3.119,3.119,3.119,3.119,3.119,3.119,3.119,3.119,3.119,3.119,3.119,3.119,3.1596,3.2154,2.0516,2.0748,2.0813,2.0649,2.1165,2.146,2.1055,2.1647,2.2274,2.2571,2.3293,2.403,2.4704,2.5673,2.6401,2.6691,2.6691,2.6691,2.6691,2.6691,2.6691,2.6691,2.6691,2.6691,2.6691,2.6691,2.6691,2.6691,2.6691,2.6691,2.6691,2.6691,2.6691,2.6691,2.6691,2.6691,2.6691,2.6691,2.6691,2.6691,2.6691,2.6691,2.6691,2.6691,2.6691,2.6691,2.6691,2.6962,2.7317,2.7317,2.7604,2.7977,2.7977,2.8197,2.8467,2.8467,2.8704,2.9011,2.9011,2.9011,2.9011,2.9011,2.9011,2.9011,2.9011,2.9042,2.8975,2.8569,2.8738,2.911,2.9533,2.9888,3.0243,3.0649,3.0987,3.119,3.119,3.119,3.119,3.119,3.119,3.119,3.119,3.119,3.119,3.119,3.119,3.119,3.119,3.119,3.119,3.119,3.119,3.119,3.119,3.119,3.119,3.119,3.119,3.119,3.119,3.119,3.119,3.119,3.119,3.119,3.119,3.119,3.119,3.119,3.119,3.1444,3.1799,3.1799,3.2273,3.2966]}]]